<?xml version="1.0" encoding="UTF-8" standalone="no" ?>
 
<gpx xmlns="http://www.topografix.com/GPX/1/1" creator="bikehike.co.uk" version="1.1" 
    xmlns:xsi="http://www.w3.org/2001/XMLSchema-instance" 
    xsi:schemaLocation="http://www.topografix.com/GPX/1/1 http://www.topografix.com/GPX/1/1/gpx.xsd">


  <trk>
    <name>Set-Rom03</name>
    <trkseg>
      <trkpt lat="43.728660" lon="5.812740">
       <ele>273</ele>
       <time>2013-10-22T14:46:46Z</time>
      </trkpt>
      <trkpt lat="43.727420" lon="5.812980">
       <ele>265</ele>
       <time>2013-10-22T14:47:11Z</time>
      </trkpt>
      <trkpt lat="43.727030" lon="5.813140">
       <ele>269</ele>
       <time>2013-10-22T14:47:20Z</time>
      </trkpt>
      <trkpt lat="43.726920" lon="5.813150">
       <ele>269</ele>
       <time>2013-10-22T14:47:22Z</time>
      </trkpt>
      <trkpt lat="43.726840" lon="5.813130">
       <ele>269</ele>
       <time>2013-10-22T14:47:24Z</time>
      </trkpt>
      <trkpt lat="43.726760" lon="5.813090">
       <ele>272</ele>
       <time>2013-10-22T14:47:26Z</time>
      </trkpt>
      <trkpt lat="43.726730" lon="5.813030">
       <ele>272</ele>
       <time>2013-10-22T14:47:27Z</time>
      </trkpt>
      <trkpt lat="43.726650" lon="5.813100">
       <ele>272</ele>
       <time>2013-10-22T14:47:29Z</time>
      </trkpt>
      <trkpt lat="43.726420" lon="5.813180">
       <ele>274</ele>
       <time>2013-10-22T14:47:34Z</time>
      </trkpt>
      <trkpt lat="43.726370" lon="5.813250">
       <ele>273</ele>
       <time>2013-10-22T14:47:35Z</time>
      </trkpt>
      <trkpt lat="43.726340" lon="5.813370">
       <ele>273</ele>
       <time>2013-10-22T14:47:37Z</time>
      </trkpt>
      <trkpt lat="43.726710" lon="5.817240">
       <ele>265</ele>
       <time>2013-10-22T14:48:35Z</time>
      </trkpt>
      <trkpt lat="43.727450" lon="5.823480">
       <ele>268</ele>
       <time>2013-10-22T14:50:10Z</time>
      </trkpt>
      <trkpt lat="43.727920" lon="5.827930">
       <ele>271</ele>
       <time>2013-10-22T14:51:18Z</time>
      </trkpt>
      <trkpt lat="43.728640" lon="5.834110">
       <ele>274</ele>
       <time>2013-10-22T14:52:51Z</time>
      </trkpt>
      <trkpt lat="43.728690" lon="5.834620">
       <ele>274</ele>
       <time>2013-10-22T14:52:59Z</time>
      </trkpt>
      <trkpt lat="43.728680" lon="5.834870">
       <ele>275</ele>
       <time>2013-10-22T14:53:03Z</time>
      </trkpt>
      <trkpt lat="43.728640" lon="5.835110">
       <ele>275</ele>
       <time>2013-10-22T14:53:07Z</time>
      </trkpt>
      <trkpt lat="43.728450" lon="5.835610">
       <ele>274</ele>
       <time>2013-10-22T14:53:15Z</time>
      </trkpt>
      <trkpt lat="43.727840" lon="5.837350">
       <ele>272</ele>
       <time>2013-10-22T14:53:44Z</time>
      </trkpt>
      <trkpt lat="43.727660" lon="5.837760">
       <ele>273</ele>
       <time>2013-10-22T14:53:51Z</time>
      </trkpt>
      <trkpt lat="43.727550" lon="5.837920">
       <ele>273</ele>
       <time>2013-10-22T14:53:54Z</time>
      </trkpt>
      <trkpt lat="43.727420" lon="5.838050">
       <ele>273</ele>
       <time>2013-10-22T14:53:58Z</time>
      </trkpt>
      <trkpt lat="43.726920" lon="5.838460">
       <ele>275</ele>
       <time>2013-10-22T14:54:10Z</time>
      </trkpt>
      <trkpt lat="43.725670" lon="5.839800">
       <ele>277</ele>
       <time>2013-10-22T14:54:43Z</time>
      </trkpt>
      <trkpt lat="43.725360" lon="5.840030">
       <ele>280</ele>
       <time>2013-10-22T14:54:50Z</time>
      </trkpt>
      <trkpt lat="43.724850" lon="5.840240">
       <ele>286</ele>
       <time>2013-10-22T14:55:01Z</time>
      </trkpt>
      <trkpt lat="43.724750" lon="5.840310">
       <ele>286</ele>
       <time>2013-10-22T14:55:03Z</time>
      </trkpt>
      <trkpt lat="43.724680" lon="5.840410">
       <ele>286</ele>
       <time>2013-10-22T14:55:05Z</time>
      </trkpt>
      <trkpt lat="43.724650" lon="5.840540">
       <ele>287</ele>
       <time>2013-10-22T14:55:07Z</time>
      </trkpt>
      <trkpt lat="43.724640" lon="5.840690">
       <ele>287</ele>
       <time>2013-10-22T14:55:10Z</time>
      </trkpt>
      <trkpt lat="43.724670" lon="5.840850">
       <ele>289</ele>
       <time>2013-10-22T14:55:12Z</time>
      </trkpt>
      <trkpt lat="43.724730" lon="5.841000">
       <ele>291</ele>
       <time>2013-10-22T14:55:15Z</time>
      </trkpt>
      <trkpt lat="43.724810" lon="5.841140">
       <ele>291</ele>
       <time>2013-10-22T14:55:17Z</time>
      </trkpt>
      <trkpt lat="43.725360" lon="5.841730">
       <ele>288</ele>
       <time>2013-10-22T14:55:32Z</time>
      </trkpt>
      <trkpt lat="43.725590" lon="5.842050">
       <ele>286</ele>
       <time>2013-10-22T14:55:39Z</time>
      </trkpt>
      <trkpt lat="43.726330" lon="5.843500">
       <ele>288</ele>
       <time>2013-10-22T14:56:05Z</time>
      </trkpt>
      <trkpt lat="43.726650" lon="5.844190">
       <ele>287</ele>
       <time>2013-10-22T14:56:17Z</time>
      </trkpt>
      <trkpt lat="43.726780" lon="5.844540">
       <ele>287</ele>
       <time>2013-10-22T14:56:23Z</time>
      </trkpt>
      <trkpt lat="43.726790" lon="5.844700">
       <ele>286</ele>
       <time>2013-10-22T14:56:26Z</time>
      </trkpt>
      <trkpt lat="43.726740" lon="5.844930">
       <ele>285</ele>
       <time>2013-10-22T14:56:29Z</time>
      </trkpt>
      <trkpt lat="43.726700" lon="5.845040">
       <ele>285</ele>
       <time>2013-10-22T14:56:31Z</time>
      </trkpt>
      <trkpt lat="43.726250" lon="5.845650">
       <ele>285</ele>
       <time>2013-10-22T14:56:44Z</time>
      </trkpt>
      <trkpt lat="43.725330" lon="5.846730">
       <ele>290</ele>
       <time>2013-10-22T14:57:09Z</time>
      </trkpt>
      <trkpt lat="43.724930" lon="5.847090">
       <ele>290</ele>
       <time>2013-10-22T14:57:19Z</time>
      </trkpt>
      <trkpt lat="43.724570" lon="5.847300">
       <ele>295</ele>
       <time>2013-10-22T14:57:27Z</time>
      </trkpt>
      <trkpt lat="43.723940" lon="5.847520">
       <ele>295</ele>
       <time>2013-10-22T14:57:41Z</time>
      </trkpt>
      <trkpt lat="43.723080" lon="5.847950">
       <ele>295</ele>
       <time>2013-10-22T14:58:00Z</time>
      </trkpt>
      <trkpt lat="43.722770" lon="5.848010">
       <ele>296</ele>
       <time>2013-10-22T14:58:06Z</time>
      </trkpt>
      <trkpt lat="43.722260" lon="5.848080">
       <ele>300</ele>
       <time>2013-10-22T14:58:17Z</time>
      </trkpt>
      <trkpt lat="43.721480" lon="5.848380">
       <ele>299</ele>
       <time>2013-10-22T14:58:34Z</time>
      </trkpt>
      <trkpt lat="43.720900" lon="5.848410">
       <ele>297</ele>
       <time>2013-10-22T14:58:46Z</time>
      </trkpt>
      <trkpt lat="43.719130" lon="5.848970">
       <ele>298</ele>
       <time>2013-10-22T14:59:23Z</time>
      </trkpt>
      <trkpt lat="43.719000" lon="5.848990">
       <ele>298</ele>
       <time>2013-10-22T14:59:26Z</time>
      </trkpt>
      <trkpt lat="43.718410" lon="5.848880">
       <ele>297</ele>
       <time>2013-10-22T14:59:38Z</time>
      </trkpt>
      <trkpt lat="43.718040" lon="5.848940">
       <ele>296</ele>
       <time>2013-10-22T14:59:46Z</time>
      </trkpt>
      <trkpt lat="43.717690" lon="5.849080">
       <ele>296</ele>
       <time>2013-10-22T14:59:54Z</time>
      </trkpt>
      <trkpt lat="43.717400" lon="5.849260">
       <ele>296</ele>
       <time>2013-10-22T15:00:00Z</time>
      </trkpt>
      <trkpt lat="43.717270" lon="5.849400">
       <ele>297</ele>
       <time>2013-10-22T15:00:04Z</time>
      </trkpt>
      <trkpt lat="43.717120" lon="5.849650">
       <ele>298</ele>
       <time>2013-10-22T15:00:09Z</time>
      </trkpt>
      <trkpt lat="43.716990" lon="5.849990">
       <ele>300</ele>
       <time>2013-10-22T15:00:14Z</time>
      </trkpt>
      <trkpt lat="43.716860" lon="5.850460">
       <ele>300</ele>
       <time>2013-10-22T15:00:22Z</time>
      </trkpt>
      <trkpt lat="43.716660" lon="5.850940">
       <ele>301</ele>
       <time>2013-10-22T15:00:30Z</time>
      </trkpt>
      <trkpt lat="43.716380" lon="5.851340">
       <ele>301</ele>
       <time>2013-10-22T15:00:38Z</time>
      </trkpt>
      <trkpt lat="43.716220" lon="5.851600">
       <ele>303</ele>
       <time>2013-10-22T15:00:44Z</time>
      </trkpt>
      <trkpt lat="43.716190" lon="5.851850">
       <ele>303</ele>
       <time>2013-10-22T15:00:47Z</time>
      </trkpt>
      <trkpt lat="43.716200" lon="5.852060">
       <ele>303</ele>
       <time>2013-10-22T15:00:51Z</time>
      </trkpt>
      <trkpt lat="43.716320" lon="5.852530">
       <ele>302</ele>
       <time>2013-10-22T15:00:58Z</time>
      </trkpt>
      <trkpt lat="43.716410" lon="5.853010">
       <ele>302</ele>
       <time>2013-10-22T15:01:05Z</time>
      </trkpt>
      <trkpt lat="43.716450" lon="5.853520">
       <ele>302</ele>
       <time>2013-10-22T15:01:13Z</time>
      </trkpt>
      <trkpt lat="43.716370" lon="5.854220">
       <ele>300</ele>
       <time>2013-10-22T15:01:24Z</time>
      </trkpt>
      <trkpt lat="43.716170" lon="5.855280">
       <ele>297</ele>
       <time>2013-10-22T15:01:40Z</time>
      </trkpt>
      <trkpt lat="43.715770" lon="5.856250">
       <ele>297</ele>
       <time>2013-10-22T15:01:57Z</time>
      </trkpt>
      <trkpt lat="43.715480" lon="5.857050">
       <ele>300</ele>
       <time>2013-10-22T15:02:10Z</time>
      </trkpt>
      <trkpt lat="43.715320" lon="5.857180">
       <ele>304</ele>
       <time>2013-10-22T15:02:14Z</time>
      </trkpt>
      <trkpt lat="43.715160" lon="5.857190">
       <ele>304</ele>
       <time>2013-10-22T15:02:17Z</time>
      </trkpt>
      <trkpt lat="43.714580" lon="5.856960">
       <ele>312</ele>
       <time>2013-10-22T15:02:30Z</time>
      </trkpt>
      <trkpt lat="43.714350" lon="5.856970">
       <ele>312</ele>
       <time>2013-10-22T15:02:35Z</time>
      </trkpt>
      <trkpt lat="43.713860" lon="5.857200">
       <ele>316</ele>
       <time>2013-10-22T15:02:46Z</time>
      </trkpt>
      <trkpt lat="43.713660" lon="5.857240">
       <ele>316</ele>
       <time>2013-10-22T15:02:50Z</time>
      </trkpt>
      <trkpt lat="43.713340" lon="5.857120">
       <ele>316</ele>
       <time>2013-10-22T15:02:57Z</time>
      </trkpt>
      <trkpt lat="43.713070" lon="5.856870">
       <ele>316</ele>
       <time>2013-10-22T15:03:03Z</time>
      </trkpt>
      <trkpt lat="43.712870" lon="5.856820">
       <ele>317</ele>
       <time>2013-10-22T15:03:08Z</time>
      </trkpt>
      <trkpt lat="43.712580" lon="5.856990">
       <ele>317</ele>
       <time>2013-10-22T15:03:14Z</time>
      </trkpt>
      <trkpt lat="43.711600" lon="5.858090">
       <ele>315</ele>
       <time>2013-10-22T15:03:40Z</time>
      </trkpt>
      <trkpt lat="43.711490" lon="5.858320">
       <ele>315</ele>
       <time>2013-10-22T15:03:44Z</time>
      </trkpt>
      <trkpt lat="43.710670" lon="5.860830">
       <ele>313</ele>
       <time>2013-10-22T15:04:26Z</time>
      </trkpt>
      <trkpt lat="43.709940" lon="5.863140">
       <ele>321</ele>
       <time>2013-10-22T15:05:03Z</time>
      </trkpt>
      <trkpt lat="43.709560" lon="5.864190">
       <ele>331</ele>
       <time>2013-10-22T15:05:21Z</time>
      </trkpt>
      <trkpt lat="43.709540" lon="5.864380">
       <ele>333</ele>
       <time>2013-10-22T15:05:24Z</time>
      </trkpt>
      <trkpt lat="43.709560" lon="5.864560">
       <ele>333</ele>
       <time>2013-10-22T15:05:27Z</time>
      </trkpt>
      <trkpt lat="43.709700" lon="5.864920">
       <ele>334</ele>
       <time>2013-10-22T15:05:33Z</time>
      </trkpt>
      <trkpt lat="43.709880" lon="5.865320">
       <ele>334</ele>
       <time>2013-10-22T15:05:40Z</time>
      </trkpt>
      <trkpt lat="43.709930" lon="5.865580">
       <ele>335</ele>
       <time>2013-10-22T15:05:44Z</time>
      </trkpt>
      <trkpt lat="43.709930" lon="5.865780">
       <ele>335</ele>
       <time>2013-10-22T15:05:47Z</time>
      </trkpt>
      <trkpt lat="43.709900" lon="5.865950">
       <ele>335</ele>
       <time>2013-10-22T15:05:49Z</time>
      </trkpt>
      <trkpt lat="43.709800" lon="5.866200">
       <ele>336</ele>
       <time>2013-10-22T15:05:54Z</time>
      </trkpt>
      <trkpt lat="43.709720" lon="5.866320">
       <ele>335</ele>
       <time>2013-10-22T15:05:56Z</time>
      </trkpt>
      <trkpt lat="43.709410" lon="5.866580">
       <ele>338</ele>
       <time>2013-10-22T15:06:04Z</time>
      </trkpt>
      <trkpt lat="43.708610" lon="5.867090">
       <ele>347</ele>
       <time>2013-10-22T15:06:22Z</time>
      </trkpt>
      <trkpt lat="43.707840" lon="5.867620">
       <ele>354</ele>
       <time>2013-10-22T15:06:40Z</time>
      </trkpt>
      <trkpt lat="43.707690" lon="5.867800">
       <ele>354</ele>
       <time>2013-10-22T15:06:44Z</time>
      </trkpt>
      <trkpt lat="43.707530" lon="5.868800">
       <ele>364</ele>
       <time>2013-10-22T15:06:59Z</time>
      </trkpt>
      <trkpt lat="43.707350" lon="5.869510">
       <ele>372</ele>
       <time>2013-10-22T15:07:11Z</time>
      </trkpt>
      <trkpt lat="43.707310" lon="5.869860">
       <ele>373</ele>
       <time>2013-10-22T15:07:16Z</time>
      </trkpt>
      <trkpt lat="43.707210" lon="5.870150">
       <ele>370</ele>
       <time>2013-10-22T15:07:21Z</time>
      </trkpt>
      <trkpt lat="43.707080" lon="5.870330">
       <ele>378</ele>
       <time>2013-10-22T15:07:24Z</time>
      </trkpt>
      <trkpt lat="43.706660" lon="5.870820">
       <ele>381</ele>
       <time>2013-10-22T15:07:36Z</time>
      </trkpt>
      <trkpt lat="43.706020" lon="5.871890">
       <ele>378</ele>
       <time>2013-10-22T15:07:57Z</time>
      </trkpt>
      <trkpt lat="43.705870" lon="5.872020">
       <ele>382</ele>
       <time>2013-10-22T15:08:00Z</time>
      </trkpt>
      <trkpt lat="43.705710" lon="5.872050">
       <ele>382</ele>
       <time>2013-10-22T15:08:04Z</time>
      </trkpt>
      <trkpt lat="43.704860" lon="5.872120">
       <ele>392</ele>
       <time>2013-10-22T15:08:21Z</time>
      </trkpt>
      <trkpt lat="43.704590" lon="5.872200">
       <ele>392</ele>
       <time>2013-10-22T15:08:27Z</time>
      </trkpt>
      <trkpt lat="43.704410" lon="5.872290">
       <ele>395</ele>
       <time>2013-10-22T15:08:31Z</time>
      </trkpt>
      <trkpt lat="43.704310" lon="5.872360">
       <ele>395</ele>
       <time>2013-10-22T15:08:33Z</time>
      </trkpt>
      <trkpt lat="43.704220" lon="5.872440">
       <ele>394</ele>
       <time>2013-10-22T15:08:36Z</time>
      </trkpt>
      <trkpt lat="43.703880" lon="5.872830">
       <ele>394</ele>
       <time>2013-10-22T15:08:45Z</time>
      </trkpt>
      <trkpt lat="43.703330" lon="5.873410">
       <ele>393</ele>
       <time>2013-10-22T15:08:59Z</time>
      </trkpt>
      <trkpt lat="43.703190" lon="5.873530">
       <ele>393</ele>
       <time>2013-10-22T15:09:03Z</time>
      </trkpt>
      <trkpt lat="43.703120" lon="5.873560">
       <ele>393</ele>
       <time>2013-10-22T15:09:04Z</time>
      </trkpt>
      <trkpt lat="43.702820" lon="5.873580">
       <ele>397</ele>
       <time>2013-10-22T15:09:10Z</time>
      </trkpt>
      <trkpt lat="43.702740" lon="5.873610">
       <ele>397</ele>
       <time>2013-10-22T15:09:12Z</time>
      </trkpt>
      <trkpt lat="43.702670" lon="5.873660">
       <ele>397</ele>
       <time>2013-10-22T15:09:14Z</time>
      </trkpt>
      <trkpt lat="43.702540" lon="5.873820">
       <ele>401</ele>
       <time>2013-10-22T15:09:17Z</time>
      </trkpt>
      <trkpt lat="43.702120" lon="5.874580">
       <ele>401</ele>
       <time>2013-10-22T15:09:32Z</time>
      </trkpt>
      <trkpt lat="43.701920" lon="5.874790">
       <ele>404</ele>
       <time>2013-10-22T15:09:37Z</time>
      </trkpt>
      <trkpt lat="43.701370" lon="5.875150">
       <ele>408</ele>
       <time>2013-10-22T15:09:49Z</time>
      </trkpt>
      <trkpt lat="43.701270" lon="5.875250">
       <ele>408</ele>
       <time>2013-10-22T15:09:52Z</time>
      </trkpt>
      <trkpt lat="43.701190" lon="5.875380">
       <ele>415</ele>
       <time>2013-10-22T15:09:55Z</time>
      </trkpt>
      <trkpt lat="43.701080" lon="5.875670">
       <ele>412</ele>
       <time>2013-10-22T15:09:59Z</time>
      </trkpt>
      <trkpt lat="43.701050" lon="5.875830">
       <ele>411</ele>
       <time>2013-10-22T15:10:02Z</time>
      </trkpt>
      <trkpt lat="43.701030" lon="5.876000">
       <ele>410</ele>
       <time>2013-10-22T15:10:04Z</time>
      </trkpt>
      <trkpt lat="43.701010" lon="5.876670">
       <ele>411</ele>
       <time>2013-10-22T15:10:15Z</time>
      </trkpt>
      <trkpt lat="43.700930" lon="5.877130">
       <ele>421</ele>
       <time>2013-10-22T15:10:22Z</time>
      </trkpt>
      <trkpt lat="43.700930" lon="5.877450">
       <ele>421</ele>
       <time>2013-10-22T15:10:26Z</time>
      </trkpt>
      <trkpt lat="43.701010" lon="5.877740">
       <ele>413</ele>
       <time>2013-10-22T15:10:31Z</time>
      </trkpt>
      <trkpt lat="43.701560" lon="5.878800">
       <ele>409</ele>
       <time>2013-10-22T15:10:51Z</time>
      </trkpt>
      <trkpt lat="43.701720" lon="5.879040">
       <ele>412</ele>
       <time>2013-10-22T15:10:56Z</time>
      </trkpt>
      <trkpt lat="43.702330" lon="5.879650">
       <ele>407</ele>
       <time>2013-10-22T15:11:11Z</time>
      </trkpt>
      <trkpt lat="43.702460" lon="5.879850">
       <ele>399</ele>
       <time>2013-10-22T15:11:15Z</time>
      </trkpt>
      <trkpt lat="43.702530" lon="5.880210">
       <ele>404</ele>
       <time>2013-10-22T15:11:21Z</time>
      </trkpt>
      <trkpt lat="43.702530" lon="5.880320">
       <ele>404</ele>
       <time>2013-10-22T15:11:22Z</time>
      </trkpt>
      <trkpt lat="43.702490" lon="5.880430">
       <ele>406</ele>
       <time>2013-10-22T15:11:24Z</time>
      </trkpt>
      <trkpt lat="43.702430" lon="5.880510">
       <ele>406</ele>
       <time>2013-10-22T15:11:26Z</time>
      </trkpt>
      <trkpt lat="43.702250" lon="5.880620">
       <ele>416</ele>
       <time>2013-10-22T15:11:30Z</time>
      </trkpt>
      <trkpt lat="43.702190" lon="5.880680">
       <ele>416</ele>
       <time>2013-10-22T15:11:32Z</time>
      </trkpt>
      <trkpt lat="43.702160" lon="5.880770">
       <ele>417</ele>
       <time>2013-10-22T15:11:33Z</time>
      </trkpt>
      <trkpt lat="43.702170" lon="5.881000">
       <ele>417</ele>
       <time>2013-10-22T15:11:37Z</time>
      </trkpt>
      <trkpt lat="43.702300" lon="5.881440">
       <ele>416</ele>
       <time>2013-10-22T15:11:44Z</time>
      </trkpt>
      <trkpt lat="43.702300" lon="5.881570">
       <ele>414</ele>
       <time>2013-10-22T15:11:46Z</time>
      </trkpt>
      <trkpt lat="43.702270" lon="5.881690">
       <ele>414</ele>
       <time>2013-10-22T15:11:48Z</time>
      </trkpt>
      <trkpt lat="43.702160" lon="5.881910">
       <ele>410</ele>
       <time>2013-10-22T15:11:52Z</time>
      </trkpt>
      <trkpt lat="43.702080" lon="5.881980">
       <ele>419</ele>
       <time>2013-10-22T15:11:53Z</time>
      </trkpt>
      <trkpt lat="43.702000" lon="5.882030">
       <ele>419</ele>
       <time>2013-10-22T15:11:55Z</time>
      </trkpt>
      <trkpt lat="43.701740" lon="5.882130">
       <ele>424</ele>
       <time>2013-10-22T15:12:01Z</time>
      </trkpt>
      <trkpt lat="43.701670" lon="5.882190">
       <ele>424</ele>
       <time>2013-10-22T15:12:03Z</time>
      </trkpt>
      <trkpt lat="43.701630" lon="5.882390">
       <ele>420</ele>
       <time>2013-10-22T15:12:06Z</time>
      </trkpt>
      <trkpt lat="43.701690" lon="5.882780">
       <ele>417</ele>
       <time>2013-10-22T15:12:12Z</time>
      </trkpt>
      <trkpt lat="43.701690" lon="5.882930">
       <ele>413</ele>
       <time>2013-10-22T15:12:14Z</time>
      </trkpt>
      <trkpt lat="43.701670" lon="5.883230">
       <ele>411</ele>
       <time>2013-10-22T15:12:18Z</time>
      </trkpt>
      <trkpt lat="43.701610" lon="5.883530">
       <ele>408</ele>
       <time>2013-10-22T15:12:23Z</time>
      </trkpt>
      <trkpt lat="43.701500" lon="5.883780">
       <ele>414</ele>
       <time>2013-10-22T15:12:28Z</time>
      </trkpt>
      <trkpt lat="43.701190" lon="5.884160">
       <ele>419</ele>
       <time>2013-10-22T15:12:36Z</time>
      </trkpt>
      <trkpt lat="43.701030" lon="5.884280">
       <ele>419</ele>
       <time>2013-10-22T15:12:40Z</time>
      </trkpt>
      <trkpt lat="43.700950" lon="5.884310">
       <ele>421</ele>
       <time>2013-10-22T15:12:42Z</time>
      </trkpt>
      <trkpt lat="43.700260" lon="5.884210">
       <ele>435</ele>
       <time>2013-10-22T15:12:56Z</time>
      </trkpt>
      <trkpt lat="43.700110" lon="5.884220">
       <ele>435</ele>
       <time>2013-10-22T15:12:59Z</time>
      </trkpt>
      <trkpt lat="43.700050" lon="5.884270">
       <ele>435</ele>
       <time>2013-10-22T15:13:01Z</time>
      </trkpt>
      <trkpt lat="43.700020" lon="5.884340">
       <ele>431</ele>
       <time>2013-10-22T15:13:02Z</time>
      </trkpt>
      <trkpt lat="43.700030" lon="5.884430">
       <ele>431</ele>
       <time>2013-10-22T15:13:03Z</time>
      </trkpt>
      <trkpt lat="43.700060" lon="5.884500">
       <ele>431</ele>
       <time>2013-10-22T15:13:04Z</time>
      </trkpt>
      <trkpt lat="43.700500" lon="5.884820">
       <ele>421</ele>
       <time>2013-10-22T15:13:15Z</time>
      </trkpt>
      <trkpt lat="43.700630" lon="5.884980">
       <ele>419</ele>
       <time>2013-10-22T15:13:18Z</time>
      </trkpt>
      <trkpt lat="43.700660" lon="5.885080">
       <ele>419</ele>
       <time>2013-10-22T15:13:20Z</time>
      </trkpt>
      <trkpt lat="43.700640" lon="5.885300">
       <ele>419</ele>
       <time>2013-10-22T15:13:23Z</time>
      </trkpt>
      <trkpt lat="43.700390" lon="5.885770">
       <ele>426</ele>
       <time>2013-10-22T15:13:32Z</time>
      </trkpt>
      <trkpt lat="43.700240" lon="5.886100">
       <ele>427</ele>
       <time>2013-10-22T15:13:38Z</time>
      </trkpt>
      <trkpt lat="43.700140" lon="5.886460">
       <ele>428</ele>
       <time>2013-10-22T15:13:44Z</time>
      </trkpt>
      <trkpt lat="43.699730" lon="5.887510">
       <ele>439</ele>
       <time>2013-10-22T15:14:01Z</time>
      </trkpt>
      <trkpt lat="43.699440" lon="5.887930">
       <ele>445</ele>
       <time>2013-10-22T15:14:10Z</time>
      </trkpt>
      <trkpt lat="43.699050" lon="5.888290">
       <ele>450</ele>
       <time>2013-10-22T15:14:20Z</time>
      </trkpt>
      <trkpt lat="43.698790" lon="5.888620">
       <ele>454</ele>
       <time>2013-10-22T15:14:27Z</time>
      </trkpt>
      <trkpt lat="43.697460" lon="5.891040">
       <ele>465</ele>
       <time>2013-10-22T15:15:13Z</time>
      </trkpt>
      <trkpt lat="43.697120" lon="5.891690">
       <ele>469</ele>
       <time>2013-10-22T15:15:25Z</time>
      </trkpt>
      <trkpt lat="43.696930" lon="5.892130">
       <ele>473</ele>
       <time>2013-10-22T15:15:32Z</time>
      </trkpt>
      <trkpt lat="43.696880" lon="5.892300">
       <ele>473</ele>
       <time>2013-10-22T15:15:35Z</time>
      </trkpt>
      <trkpt lat="43.696860" lon="5.892480">
       <ele>475</ele>
       <time>2013-10-22T15:15:38Z</time>
      </trkpt>
      <trkpt lat="43.696860" lon="5.892850">
       <ele>476</ele>
       <time>2013-10-22T15:15:44Z</time>
      </trkpt>
      <trkpt lat="43.696940" lon="5.893210">
       <ele>478</ele>
       <time>2013-10-22T15:15:49Z</time>
      </trkpt>
      <trkpt lat="43.697350" lon="5.894480">
       <ele>476</ele>
       <time>2013-10-22T15:16:10Z</time>
      </trkpt>
      <trkpt lat="43.697360" lon="5.894620">
       <ele>474</ele>
       <time>2013-10-22T15:16:12Z</time>
      </trkpt>
      <trkpt lat="43.697300" lon="5.894860">
       <ele>474</ele>
       <time>2013-10-22T15:16:16Z</time>
      </trkpt>
      <trkpt lat="43.697230" lon="5.894930">
       <ele>471</ele>
       <time>2013-10-22T15:16:18Z</time>
      </trkpt>
      <trkpt lat="43.697150" lon="5.894970">
       <ele>471</ele>
       <time>2013-10-22T15:16:19Z</time>
      </trkpt>
      <trkpt lat="43.697060" lon="5.894980">
       <ele>470</ele>
       <time>2013-10-22T15:16:21Z</time>
      </trkpt>
      <trkpt lat="43.696590" lon="5.894890">
       <ele>468</ele>
       <time>2013-10-22T15:16:31Z</time>
      </trkpt>
      <trkpt lat="43.696460" lon="5.894880">
       <ele>467</ele>
       <time>2013-10-22T15:16:34Z</time>
      </trkpt>
      <trkpt lat="43.696200" lon="5.894910">
       <ele>468</ele>
       <time>2013-10-22T15:16:39Z</time>
      </trkpt>
      <trkpt lat="43.696070" lon="5.894970">
       <ele>468</ele>
       <time>2013-10-22T15:16:42Z</time>
      </trkpt>
      <trkpt lat="43.695880" lon="5.895130">
       <ele>469</ele>
       <time>2013-10-22T15:16:47Z</time>
      </trkpt>
      <trkpt lat="43.695240" lon="5.895870">
       <ele>465</ele>
       <time>2013-10-22T15:17:04Z</time>
      </trkpt>
      <trkpt lat="43.695010" lon="5.896160">
       <ele>468</ele>
       <time>2013-10-22T15:17:11Z</time>
      </trkpt>
      <trkpt lat="43.694870" lon="5.896540">
       <ele>463</ele>
       <time>2013-10-22T15:17:17Z</time>
      </trkpt>
      <trkpt lat="43.694820" lon="5.896750">
       <ele>468</ele>
       <time>2013-10-22T15:17:20Z</time>
      </trkpt>
      <trkpt lat="43.694750" lon="5.897160">
       <ele>464</ele>
       <time>2013-10-22T15:17:27Z</time>
      </trkpt>
      <trkpt lat="43.694750" lon="5.897370">
       <ele>461</ele>
       <time>2013-10-22T15:17:30Z</time>
      </trkpt>
      <trkpt lat="43.694800" lon="5.898670">
       <ele>456</ele>
       <time>2013-10-22T15:17:49Z</time>
      </trkpt>
      <trkpt lat="43.694830" lon="5.898860">
       <ele>456</ele>
       <time>2013-10-22T15:17:52Z</time>
      </trkpt>
      <trkpt lat="43.694880" lon="5.899040">
       <ele>454</ele>
       <time>2013-10-22T15:17:55Z</time>
      </trkpt>
      <trkpt lat="43.694960" lon="5.899210">
       <ele>454</ele>
       <time>2013-10-22T15:17:58Z</time>
      </trkpt>
      <trkpt lat="43.695140" lon="5.899480">
       <ele>453</ele>
       <time>2013-10-22T15:18:04Z</time>
      </trkpt>
      <trkpt lat="43.695350" lon="5.899710">
       <ele>454</ele>
       <time>2013-10-22T15:18:09Z</time>
      </trkpt>
      <trkpt lat="43.695950" lon="5.900290">
       <ele>454</ele>
       <time>2013-10-22T15:18:24Z</time>
      </trkpt>
      <trkpt lat="43.696810" lon="5.901300">
       <ele>444</ele>
       <time>2013-10-22T15:18:48Z</time>
      </trkpt>
      <trkpt lat="43.696910" lon="5.901430">
       <ele>444</ele>
       <time>2013-10-22T15:18:51Z</time>
      </trkpt>
      <trkpt lat="43.696990" lon="5.901580">
       <ele>445</ele>
       <time>2013-10-22T15:18:53Z</time>
      </trkpt>
      <trkpt lat="43.697180" lon="5.902090">
       <ele>442</ele>
       <time>2013-10-22T15:19:02Z</time>
      </trkpt>
      <trkpt lat="43.697280" lon="5.902450">
       <ele>442</ele>
       <time>2013-10-22T15:19:08Z</time>
      </trkpt>
      <trkpt lat="43.697310" lon="5.902640">
       <ele>443</ele>
       <time>2013-10-22T15:19:11Z</time>
      </trkpt>
      <trkpt lat="43.697330" lon="5.902830">
       <ele>443</ele>
       <time>2013-10-22T15:19:13Z</time>
      </trkpt>
      <trkpt lat="43.697300" lon="5.903620">
       <ele>443</ele>
       <time>2013-10-22T15:19:25Z</time>
      </trkpt>
      <trkpt lat="43.697310" lon="5.904020">
       <ele>442</ele>
       <time>2013-10-22T15:19:31Z</time>
      </trkpt>
      <trkpt lat="43.697630" lon="5.906080">
       <ele>434</ele>
       <time>2013-10-22T15:20:03Z</time>
      </trkpt>
      <trkpt lat="43.697670" lon="5.906220">
       <ele>431</ele>
       <time>2013-10-22T15:20:05Z</time>
      </trkpt>
      <trkpt lat="43.697730" lon="5.906340">
       <ele>432</ele>
       <time>2013-10-22T15:20:07Z</time>
      </trkpt>
      <trkpt lat="43.697810" lon="5.906430">
       <ele>432</ele>
       <time>2013-10-22T15:20:10Z</time>
      </trkpt>
      <trkpt lat="43.698260" lon="5.906680">
       <ele>427</ele>
       <time>2013-10-22T15:20:20Z</time>
      </trkpt>
      <trkpt lat="43.698390" lon="5.906780">
       <ele>427</ele>
       <time>2013-10-22T15:20:23Z</time>
      </trkpt>
      <trkpt lat="43.698500" lon="5.906910">
       <ele>426</ele>
       <time>2013-10-22T15:20:26Z</time>
      </trkpt>
      <trkpt lat="43.698790" lon="5.907320">
       <ele>425</ele>
       <time>2013-10-22T15:20:34Z</time>
      </trkpt>
      <trkpt lat="43.698910" lon="5.907620">
       <ele>426</ele>
       <time>2013-10-22T15:20:39Z</time>
      </trkpt>
      <trkpt lat="43.698920" lon="5.907780">
       <ele>425</ele>
       <time>2013-10-22T15:20:42Z</time>
      </trkpt>
      <trkpt lat="43.698870" lon="5.908090">
       <ele>425</ele>
       <time>2013-10-22T15:20:47Z</time>
      </trkpt>
      <trkpt lat="43.698730" lon="5.908370">
       <ele>425</ele>
       <time>2013-10-22T15:20:52Z</time>
      </trkpt>
      <trkpt lat="43.698040" lon="5.909280">
       <ele>426</ele>
       <time>2013-10-22T15:21:11Z</time>
      </trkpt>
      <trkpt lat="43.697970" lon="5.909420">
       <ele>425</ele>
       <time>2013-10-22T15:21:14Z</time>
      </trkpt>
      <trkpt lat="43.697550" lon="5.910030">
       <ele>425</ele>
       <time>2013-10-22T15:21:27Z</time>
      </trkpt>
      <trkpt lat="43.697350" lon="5.910260">
       <ele>425</ele>
       <time>2013-10-22T15:21:32Z</time>
      </trkpt>
      <trkpt lat="43.696620" lon="5.910910">
       <ele>424</ele>
       <time>2013-10-22T15:21:50Z</time>
      </trkpt>
      <trkpt lat="43.696330" lon="5.911240">
       <ele>424</ele>
       <time>2013-10-22T15:21:58Z</time>
      </trkpt>
      <trkpt lat="43.695990" lon="5.911960">
       <ele>426</ele>
       <time>2013-10-22T15:22:11Z</time>
      </trkpt>
      <trkpt lat="43.695800" lon="5.912170">
       <ele>426</ele>
       <time>2013-10-22T15:22:16Z</time>
      </trkpt>
      <trkpt lat="43.694640" lon="5.913320">
       <ele>425</ele>
       <time>2013-10-22T15:22:45Z</time>
      </trkpt>
      <trkpt lat="43.694460" lon="5.913550">
       <ele>427</ele>
       <time>2013-10-22T15:22:50Z</time>
      </trkpt>
      <trkpt lat="43.694450" lon="5.913500">
       <ele>427</ele>
       <time>2013-10-22T15:22:51Z</time>
      </trkpt>
      <trkpt lat="43.694400" lon="5.913470">
       <ele>426</ele>
       <time>2013-10-22T15:22:52Z</time>
      </trkpt>
      <trkpt lat="43.694370" lon="5.913470">
       <ele>426</ele>
       <time>2013-10-22T15:22:53Z</time>
      </trkpt>
      <trkpt lat="43.694300" lon="5.913550">
       <ele>428</ele>
       <time>2013-10-22T15:22:55Z</time>
      </trkpt>
      <trkpt lat="43.694320" lon="5.913650">
       <ele>427</ele>
       <time>2013-10-22T15:22:56Z</time>
      </trkpt>
      <trkpt lat="43.694380" lon="5.913700">
       <ele>427</ele>
       <time>2013-10-22T15:22:58Z</time>
      </trkpt>
      <trkpt lat="43.694400" lon="5.913950">
       <ele>428</ele>
       <time>2013-10-22T15:23:02Z</time>
      </trkpt>
      <trkpt lat="43.694560" lon="5.914950">
       <ele>436</ele>
       <time>2013-10-22T15:23:17Z</time>
      </trkpt>
      <trkpt lat="43.694560" lon="5.915180">
       <ele>438</ele>
       <time>2013-10-22T15:23:20Z</time>
      </trkpt>
      <trkpt lat="43.694500" lon="5.915220">
       <ele>438</ele>
       <time>2013-10-22T15:23:22Z</time>
      </trkpt>
      <trkpt lat="43.694480" lon="5.915260">
       <ele>438</ele>
       <time>2013-10-22T15:23:23Z</time>
      </trkpt>
      <trkpt lat="43.694480" lon="5.915320">
       <ele>438</ele>
       <time>2013-10-22T15:23:23Z</time>
      </trkpt>
      <trkpt lat="43.694500" lon="5.915390">
       <ele>438</ele>
       <time>2013-10-22T15:23:25Z</time>
      </trkpt>
      <trkpt lat="43.694530" lon="5.915420">
       <ele>439</ele>
       <time>2013-10-22T15:23:25Z</time>
      </trkpt>
      <trkpt lat="43.694560" lon="5.915430">
       <ele>439</ele>
       <time>2013-10-22T15:23:26Z</time>
      </trkpt>
      <trkpt lat="43.694610" lon="5.915410">
       <ele>438</ele>
       <time>2013-10-22T15:23:27Z</time>
      </trkpt>
      <trkpt lat="43.694820" lon="5.916710">
       <ele>439</ele>
       <time>2013-10-22T15:23:47Z</time>
      </trkpt>
      <trkpt lat="43.695120" lon="5.917930">
       <ele>443</ele>
       <time>2013-10-22T15:24:06Z</time>
      </trkpt>
      <trkpt lat="43.695590" lon="5.920370">
       <ele>445</ele>
       <time>2013-10-22T15:24:44Z</time>
      </trkpt>
      <trkpt lat="43.695800" lon="5.921240">
       <ele>448</ele>
       <time>2013-10-22T15:24:58Z</time>
      </trkpt>
      <trkpt lat="43.696010" lon="5.921870">
       <ele>448</ele>
       <time>2013-10-22T15:25:08Z</time>
      </trkpt>
      <trkpt lat="43.696330" lon="5.922640">
       <ele>447</ele>
       <time>2013-10-22T15:25:22Z</time>
      </trkpt>
      <trkpt lat="43.696600" lon="5.923390">
       <ele>449</ele>
       <time>2013-10-22T15:25:34Z</time>
      </trkpt>
      <trkpt lat="43.696910" lon="5.924320">
       <ele>453</ele>
       <time>2013-10-22T15:25:50Z</time>
      </trkpt>
      <trkpt lat="43.696940" lon="5.924440">
       <ele>453</ele>
       <time>2013-10-22T15:25:51Z</time>
      </trkpt>
      <trkpt lat="43.697100" lon="5.925540">
       <ele>458</ele>
       <time>2013-10-22T15:26:08Z</time>
      </trkpt>
      <trkpt lat="43.697590" lon="5.927080">
       <ele>465</ele>
       <time>2013-10-22T15:26:33Z</time>
      </trkpt>
      <trkpt lat="43.697700" lon="5.927860">
       <ele>470</ele>
       <time>2013-10-22T15:26:45Z</time>
      </trkpt>
      <trkpt lat="43.697920" lon="5.928350">
       <ele>472</ele>
       <time>2013-10-22T15:26:54Z</time>
      </trkpt>
      <trkpt lat="43.698210" lon="5.928740">
       <ele>472</ele>
       <time>2013-10-22T15:27:02Z</time>
      </trkpt>
      <trkpt lat="43.698360" lon="5.929120">
       <ele>475</ele>
       <time>2013-10-22T15:27:09Z</time>
      </trkpt>
      <trkpt lat="43.698420" lon="5.929400">
       <ele>476</ele>
       <time>2013-10-22T15:27:13Z</time>
      </trkpt>
      <trkpt lat="43.698440" lon="5.930130">
       <ele>479</ele>
       <time>2013-10-22T15:27:24Z</time>
      </trkpt>
      <trkpt lat="43.698470" lon="5.930270">
       <ele>480</ele>
       <time>2013-10-22T15:27:26Z</time>
      </trkpt>
      <trkpt lat="43.698630" lon="5.930690">
       <ele>478</ele>
       <time>2013-10-22T15:27:34Z</time>
      </trkpt>
      <trkpt lat="43.698710" lon="5.930980">
       <ele>479</ele>
       <time>2013-10-22T15:27:38Z</time>
      </trkpt>
      <trkpt lat="43.698710" lon="5.931300">
       <ele>479</ele>
       <time>2013-10-22T15:27:43Z</time>
      </trkpt>
      <trkpt lat="43.698660" lon="5.931450">
       <ele>479</ele>
       <time>2013-10-22T15:27:45Z</time>
      </trkpt>
      <trkpt lat="43.698390" lon="5.932020">
       <ele>481</ele>
       <time>2013-10-22T15:27:56Z</time>
      </trkpt>
      <trkpt lat="43.698290" lon="5.932330">
       <ele>481</ele>
       <time>2013-10-22T15:28:01Z</time>
      </trkpt>
      <trkpt lat="43.698020" lon="5.933620">
       <ele>483</ele>
       <time>2013-10-22T15:28:21Z</time>
      </trkpt>
      <trkpt lat="43.697940" lon="5.934800">
       <ele>482</ele>
       <time>2013-10-22T15:28:39Z</time>
      </trkpt>
      <trkpt lat="43.697680" lon="5.935570">
       <ele>483</ele>
       <time>2013-10-22T15:28:51Z</time>
      </trkpt>
      <trkpt lat="43.697650" lon="5.935880">
       <ele>483</ele>
       <time>2013-10-22T15:28:56Z</time>
      </trkpt>
      <trkpt lat="43.697700" lon="5.936180">
       <ele>484</ele>
       <time>2013-10-22T15:29:01Z</time>
      </trkpt>
      <trkpt lat="43.697840" lon="5.936620">
       <ele>486</ele>
       <time>2013-10-22T15:29:08Z</time>
      </trkpt>
      <trkpt lat="43.697860" lon="5.936790">
       <ele>486</ele>
       <time>2013-10-22T15:29:11Z</time>
      </trkpt>
      <trkpt lat="43.697840" lon="5.937110">
       <ele>487</ele>
       <time>2013-10-22T15:29:15Z</time>
      </trkpt>
      <trkpt lat="43.697360" lon="5.938280">
       <ele>492</ele>
       <time>2013-10-22T15:29:35Z</time>
      </trkpt>
      <trkpt lat="43.696910" lon="5.939130">
       <ele>498</ele>
       <time>2013-10-22T15:29:51Z</time>
      </trkpt>
      <trkpt lat="43.696850" lon="5.939270">
       <ele>498</ele>
       <time>2013-10-22T15:29:54Z</time>
      </trkpt>
      <trkpt lat="43.696650" lon="5.939830">
       <ele>500</ele>
       <time>2013-10-22T15:30:03Z</time>
      </trkpt>
      <trkpt lat="43.696650" lon="5.939930">
       <ele>501</ele>
       <time>2013-10-22T15:30:05Z</time>
      </trkpt>
      <trkpt lat="43.696670" lon="5.940000">
       <ele>501</ele>
       <time>2013-10-22T15:30:06Z</time>
      </trkpt>
      <trkpt lat="43.696700" lon="5.940040">
       <ele>501</ele>
       <time>2013-10-22T15:30:07Z</time>
      </trkpt>
      <trkpt lat="43.696750" lon="5.940050">
       <ele>501</ele>
       <time>2013-10-22T15:30:08Z</time>
      </trkpt>
      <trkpt lat="43.697070" lon="5.939860">
       <ele>502</ele>
       <time>2013-10-22T15:30:15Z</time>
      </trkpt>
      <trkpt lat="43.697490" lon="5.939640">
       <ele>504</ele>
       <time>2013-10-22T15:30:24Z</time>
      </trkpt>
      <trkpt lat="43.697830" lon="5.939360">
       <ele>503</ele>
       <time>2013-10-22T15:30:32Z</time>
      </trkpt>
      <trkpt lat="43.697910" lon="5.939310">
       <ele>503</ele>
       <time>2013-10-22T15:30:34Z</time>
      </trkpt>
      <trkpt lat="43.698000" lon="5.939310">
       <ele>502</ele>
       <time>2013-10-22T15:30:36Z</time>
      </trkpt>
      <trkpt lat="43.698070" lon="5.939340">
       <ele>502</ele>
       <time>2013-10-22T15:30:38Z</time>
      </trkpt>
      <trkpt lat="43.698120" lon="5.939390">
       <ele>502</ele>
       <time>2013-10-22T15:30:39Z</time>
      </trkpt>
      <trkpt lat="43.698150" lon="5.939460">
       <ele>502</ele>
       <time>2013-10-22T15:30:40Z</time>
      </trkpt>
      <trkpt lat="43.698180" lon="5.939570">
       <ele>502</ele>
       <time>2013-10-22T15:30:42Z</time>
      </trkpt>
      <trkpt lat="43.698180" lon="5.939680">
       <ele>503</ele>
       <time>2013-10-22T15:30:43Z</time>
      </trkpt>
      <trkpt lat="43.698050" lon="5.940820">
       <ele>508</ele>
       <time>2013-10-22T15:31:01Z</time>
      </trkpt>
      <trkpt lat="43.698090" lon="5.941150">
       <ele>508</ele>
       <time>2013-10-22T15:31:06Z</time>
      </trkpt>
      <trkpt lat="43.698130" lon="5.941310">
       <ele>509</ele>
       <time>2013-10-22T15:31:08Z</time>
      </trkpt>
      <trkpt lat="43.698390" lon="5.941930">
       <ele>510</ele>
       <time>2013-10-22T15:31:19Z</time>
      </trkpt>
      <trkpt lat="43.698440" lon="5.942100">
       <ele>511</ele>
       <time>2013-10-22T15:31:22Z</time>
      </trkpt>
      <trkpt lat="43.698550" lon="5.942860">
       <ele>512</ele>
       <time>2013-10-22T15:31:33Z</time>
      </trkpt>
      <trkpt lat="43.698660" lon="5.943450">
       <ele>512</ele>
       <time>2013-10-22T15:31:43Z</time>
      </trkpt>
      <trkpt lat="43.699100" lon="5.945190">
       <ele>517</ele>
       <time>2013-10-22T15:32:10Z</time>
      </trkpt>
      <trkpt lat="43.699160" lon="5.945700">
       <ele>519</ele>
       <time>2013-10-22T15:32:18Z</time>
      </trkpt>
      <trkpt lat="43.699210" lon="5.946560">
       <ele>521</ele>
       <time>2013-10-22T15:32:31Z</time>
      </trkpt>
      <trkpt lat="43.699360" lon="5.947260">
       <ele>524</ele>
       <time>2013-10-22T15:32:42Z</time>
      </trkpt>
      <trkpt lat="43.699400" lon="5.947610">
       <ele>523</ele>
       <time>2013-10-22T15:32:47Z</time>
      </trkpt>
      <trkpt lat="43.699420" lon="5.948470">
       <ele>521</ele>
       <time>2013-10-22T15:33:00Z</time>
      </trkpt>
      <trkpt lat="43.699550" lon="5.949970">
       <ele>524</ele>
       <time>2013-10-22T15:33:23Z</time>
      </trkpt>
      <trkpt lat="43.699760" lon="5.950760">
       <ele>530</ele>
       <time>2013-10-22T15:33:35Z</time>
      </trkpt>
      <trkpt lat="43.699820" lon="5.951250">
       <ele>531</ele>
       <time>2013-10-22T15:33:43Z</time>
      </trkpt>
      <trkpt lat="43.699820" lon="5.951560">
       <ele>531</ele>
       <time>2013-10-22T15:33:47Z</time>
      </trkpt>
      <trkpt lat="43.699730" lon="5.952250">
       <ele>530</ele>
       <time>2013-10-22T15:33:58Z</time>
      </trkpt>
      <trkpt lat="43.699660" lon="5.952590">
       <ele>530</ele>
       <time>2013-10-22T15:34:03Z</time>
      </trkpt>
      <trkpt lat="43.699360" lon="5.953730">
       <ele>530</ele>
       <time>2013-10-22T15:34:21Z</time>
      </trkpt>
      <trkpt lat="43.699050" lon="5.954380">
       <ele>532</ele>
       <time>2013-10-22T15:34:33Z</time>
      </trkpt>
      <trkpt lat="43.698950" lon="5.954850">
       <ele>533</ele>
       <time>2013-10-22T15:34:40Z</time>
      </trkpt>
      <trkpt lat="43.698730" lon="5.955590">
       <ele>532</ele>
       <time>2013-10-22T15:34:52Z</time>
      </trkpt>
      <trkpt lat="43.698630" lon="5.956810">
       <ele>528</ele>
       <time>2013-10-22T15:35:11Z</time>
      </trkpt>
      <trkpt lat="43.698600" lon="5.957730">
       <ele>527</ele>
       <time>2013-10-22T15:35:25Z</time>
      </trkpt>
      <trkpt lat="43.698580" lon="5.957890">
       <ele>527</ele>
       <time>2013-10-22T15:35:27Z</time>
      </trkpt>
      <trkpt lat="43.698260" lon="5.959170">
       <ele>527</ele>
       <time>2013-10-22T15:35:47Z</time>
      </trkpt>
      <trkpt lat="43.698020" lon="5.960920">
       <ele>528</ele>
       <time>2013-10-22T15:36:14Z</time>
      </trkpt>
      <trkpt lat="43.697920" lon="5.961510">
       <ele>528</ele>
       <time>2013-10-22T15:36:23Z</time>
      </trkpt>
      <trkpt lat="43.697630" lon="5.962570">
       <ele>531</ele>
       <time>2013-10-22T15:36:40Z</time>
      </trkpt>
      <trkpt lat="43.697540" lon="5.962840">
       <ele>531</ele>
       <time>2013-10-22T15:36:45Z</time>
      </trkpt>
      <trkpt lat="43.697180" lon="5.963630">
       <ele>532</ele>
       <time>2013-10-22T15:36:59Z</time>
      </trkpt>
      <trkpt lat="43.697040" lon="5.963800">
       <ele>534</ele>
       <time>2013-10-22T15:37:02Z</time>
      </trkpt>
      <trkpt lat="43.696860" lon="5.963940">
       <ele>534</ele>
       <time>2013-10-22T15:37:07Z</time>
      </trkpt>
      <trkpt lat="43.696410" lon="5.964120">
       <ele>536</ele>
       <time>2013-10-22T15:37:16Z</time>
      </trkpt>
      <trkpt lat="43.696200" lon="5.964250">
       <ele>536</ele>
       <time>2013-10-22T15:37:21Z</time>
      </trkpt>
      <trkpt lat="43.696090" lon="5.964340">
       <ele>536</ele>
       <time>2013-10-22T15:37:24Z</time>
      </trkpt>
      <trkpt lat="43.695530" lon="5.965030">
       <ele>539</ele>
       <time>2013-10-22T15:37:39Z</time>
      </trkpt>
      <trkpt lat="43.695300" lon="5.965180">
       <ele>539</ele>
       <time>2013-10-22T15:37:45Z</time>
      </trkpt>
      <trkpt lat="43.695190" lon="5.965220">
       <ele>539</ele>
       <time>2013-10-22T15:37:47Z</time>
      </trkpt>
      <trkpt lat="43.694550" lon="5.965340">
       <ele>531</ele>
       <time>2013-10-22T15:38:00Z</time>
      </trkpt>
      <trkpt lat="43.694420" lon="5.965380">
       <ele>531</ele>
       <time>2013-10-22T15:38:03Z</time>
      </trkpt>
      <trkpt lat="43.694160" lon="5.965520">
       <ele>530</ele>
       <time>2013-10-22T15:38:09Z</time>
      </trkpt>
      <trkpt lat="43.694030" lon="5.965610">
       <ele>530</ele>
       <time>2013-10-22T15:38:12Z</time>
      </trkpt>
      <trkpt lat="43.693680" lon="5.965940">
       <ele>525</ele>
       <time>2013-10-22T15:38:21Z</time>
      </trkpt>
      <trkpt lat="43.692710" lon="5.967170">
       <ele>521</ele>
       <time>2013-10-22T15:38:48Z</time>
      </trkpt>
      <trkpt lat="43.692000" lon="5.968170">
       <ele>514</ele>
       <time>2013-10-22T15:39:09Z</time>
      </trkpt>
      <trkpt lat="43.691680" lon="5.968710">
       <ele>514</ele>
       <time>2013-10-22T15:39:20Z</time>
      </trkpt>
      <trkpt lat="43.691280" lon="5.969470">
       <ele>515</ele>
       <time>2013-10-22T15:39:34Z</time>
      </trkpt>
      <trkpt lat="43.691070" lon="5.969820">
       <ele>514</ele>
       <time>2013-10-22T15:39:40Z</time>
      </trkpt>
      <trkpt lat="43.690750" lon="5.970310">
       <ele>514</ele>
       <time>2013-10-22T15:39:50Z</time>
      </trkpt>
      <trkpt lat="43.690520" lon="5.970600">
       <ele>513</ele>
       <time>2013-10-22T15:39:57Z</time>
      </trkpt>
      <trkpt lat="43.690410" lon="5.970710">
       <ele>511</ele>
       <time>2013-10-22T15:40:00Z</time>
      </trkpt>
      <trkpt lat="43.689030" lon="5.971420">
       <ele>510</ele>
       <time>2013-10-22T15:40:30Z</time>
      </trkpt>
      <trkpt lat="43.688770" lon="5.971600">
       <ele>510</ele>
       <time>2013-10-22T15:40:36Z</time>
      </trkpt>
      <trkpt lat="43.688540" lon="5.971820">
       <ele>510</ele>
       <time>2013-10-22T15:40:42Z</time>
      </trkpt>
      <trkpt lat="43.687790" lon="5.972680">
       <ele>512</ele>
       <time>2013-10-22T15:41:02Z</time>
      </trkpt>
      <trkpt lat="43.687480" lon="5.973070">
       <ele>513</ele>
       <time>2013-10-22T15:41:11Z</time>
      </trkpt>
      <trkpt lat="43.686680" lon="5.974350">
       <ele>514</ele>
       <time>2013-10-22T15:41:36Z</time>
      </trkpt>
      <trkpt lat="43.686400" lon="5.974750">
       <ele>515</ele>
       <time>2013-10-22T15:41:45Z</time>
      </trkpt>
      <trkpt lat="43.685710" lon="5.975520">
       <ele>515</ele>
       <time>2013-10-22T15:42:03Z</time>
      </trkpt>
      <trkpt lat="43.684750" lon="5.976660">
       <ele>519</ele>
       <time>2013-10-22T15:42:29Z</time>
      </trkpt>
      <trkpt lat="43.682730" lon="5.979220">
       <ele>520</ele>
       <time>2013-10-22T15:43:26Z</time>
      </trkpt>
      <trkpt lat="43.682300" lon="5.980120">
       <ele>518</ele>
       <time>2013-10-22T15:43:42Z</time>
      </trkpt>
      <trkpt lat="43.682200" lon="5.980380">
       <ele>519</ele>
       <time>2013-10-22T15:43:47Z</time>
      </trkpt>
      <trkpt lat="43.682150" lon="5.981900">
       <ele>521</ele>
       <time>2013-10-22T15:44:09Z</time>
      </trkpt>
      <trkpt lat="43.682090" lon="5.982350">
       <ele>522</ele>
       <time>2013-10-22T15:44:16Z</time>
      </trkpt>
      <trkpt lat="43.682040" lon="5.982500">
       <ele>522</ele>
       <time>2013-10-22T15:44:19Z</time>
      </trkpt>
      <trkpt lat="43.681820" lon="5.982800">
       <ele>521</ele>
       <time>2013-10-22T15:44:25Z</time>
      </trkpt>
      <trkpt lat="43.681640" lon="5.983080">
       <ele>519</ele>
       <time>2013-10-22T15:44:31Z</time>
      </trkpt>
      <trkpt lat="43.681590" lon="5.983320">
       <ele>518</ele>
       <time>2013-10-22T15:44:35Z</time>
      </trkpt>
      <trkpt lat="43.681610" lon="5.983850">
       <ele>516</ele>
       <time>2013-10-22T15:44:43Z</time>
      </trkpt>
      <trkpt lat="43.681590" lon="5.983960">
       <ele>516</ele>
       <time>2013-10-22T15:44:44Z</time>
      </trkpt>
      <trkpt lat="43.681240" lon="5.985260">
       <ele>512</ele>
       <time>2013-10-22T15:45:05Z</time>
      </trkpt>
      <trkpt lat="43.681120" lon="5.985420">
       <ele>512</ele>
       <time>2013-10-22T15:45:08Z</time>
      </trkpt>
      <trkpt lat="43.680880" lon="5.985520">
       <ele>511</ele>
       <time>2013-10-22T15:45:14Z</time>
      </trkpt>
      <trkpt lat="43.680610" lon="5.985560">
       <ele>510</ele>
       <time>2013-10-22T15:45:19Z</time>
      </trkpt>
      <trkpt lat="43.680450" lon="5.985460">
       <ele>510</ele>
       <time>2013-10-22T15:45:23Z</time>
      </trkpt>
      <trkpt lat="43.680320" lon="5.985250">
       <ele>509</ele>
       <time>2013-10-22T15:45:27Z</time>
      </trkpt>
      <trkpt lat="43.680030" lon="5.984610">
       <ele>507</ele>
       <time>2013-10-22T15:45:38Z</time>
      </trkpt>
      <trkpt lat="43.679930" lon="5.984510">
       <ele>506</ele>
       <time>2013-10-22T15:45:41Z</time>
      </trkpt>
      <trkpt lat="43.679820" lon="5.984440">
       <ele>506</ele>
       <time>2013-10-22T15:45:43Z</time>
      </trkpt>
      <trkpt lat="43.679560" lon="5.984380">
       <ele>504</ele>
       <time>2013-10-22T15:45:49Z</time>
      </trkpt>
      <trkpt lat="43.678200" lon="5.984190">
       <ele>502</ele>
       <time>2013-10-22T15:46:17Z</time>
      </trkpt>
      <trkpt lat="43.676600" lon="5.984860">
       <ele>504</ele>
       <time>2013-10-22T15:46:52Z</time>
      </trkpt>
      <trkpt lat="43.674750" lon="5.985510">
       <ele>497</ele>
       <time>2013-10-22T15:47:32Z</time>
      </trkpt>
      <trkpt lat="43.672350" lon="5.986210">
       <ele>500</ele>
       <time>2013-10-22T15:48:22Z</time>
      </trkpt>
      <trkpt lat="43.671660" lon="5.986540">
       <ele>501</ele>
       <time>2013-10-22T15:48:38Z</time>
      </trkpt>
      <trkpt lat="43.670920" lon="5.987160">
       <ele>501</ele>
       <time>2013-10-22T15:48:55Z</time>
      </trkpt>
      <trkpt lat="43.670710" lon="5.987440">
       <ele>502</ele>
       <time>2013-10-22T15:49:02Z</time>
      </trkpt>
      <trkpt lat="43.670420" lon="5.988160">
       <ele>503</ele>
       <time>2013-10-22T15:49:14Z</time>
      </trkpt>
      <trkpt lat="43.669460" lon="5.990990">
       <ele>509</ele>
       <time>2013-10-22T15:50:01Z</time>
      </trkpt>
      <trkpt lat="43.669300" lon="5.991230">
       <ele>508</ele>
       <time>2013-10-22T15:50:06Z</time>
      </trkpt>
      <trkpt lat="43.668650" lon="5.991730">
       <ele>511</ele>
       <time>2013-10-22T15:50:21Z</time>
      </trkpt>
      <trkpt lat="43.668380" lon="5.992080">
       <ele>511</ele>
       <time>2013-10-22T15:50:29Z</time>
      </trkpt>
      <trkpt lat="43.667930" lon="5.992910">
       <ele>509</ele>
       <time>2013-10-22T15:50:44Z</time>
      </trkpt>
      <trkpt lat="43.667160" lon="5.994520">
       <ele>503</ele>
       <time>2013-10-22T15:51:13Z</time>
      </trkpt>
      <trkpt lat="43.666960" lon="5.994770">
       <ele>503</ele>
       <time>2013-10-22T15:51:19Z</time>
      </trkpt>
      <trkpt lat="43.666080" lon="5.995570">
       <ele>505</ele>
       <time>2013-10-22T15:51:41Z</time>
      </trkpt>
      <trkpt lat="43.664950" lon="5.996980">
       <ele>506</ele>
       <time>2013-10-22T15:52:12Z</time>
      </trkpt>
      <trkpt lat="43.664050" lon="5.997900">
       <ele>509</ele>
       <time>2013-10-22T15:52:35Z</time>
      </trkpt>
      <trkpt lat="43.663870" lon="5.998260">
       <ele>512</ele>
       <time>2013-10-22T15:52:42Z</time>
      </trkpt>
      <trkpt lat="43.663360" lon="6.000290">
       <ele>518</ele>
       <time>2013-10-22T15:53:14Z</time>
      </trkpt>
      <trkpt lat="43.663130" lon="6.000620">
       <ele>517</ele>
       <time>2013-10-22T15:53:21Z</time>
      </trkpt>
      <trkpt lat="43.659480" lon="6.003150">
       <ele>519</ele>
       <time>2013-10-22T15:54:46Z</time>
      </trkpt>
      <trkpt lat="43.658900" lon="6.003410">
       <ele>519</ele>
       <time>2013-10-22T15:54:58Z</time>
      </trkpt>
      <trkpt lat="43.658230" lon="6.003620">
       <ele>521</ele>
       <time>2013-10-22T15:55:13Z</time>
      </trkpt>
      <trkpt lat="43.656810" lon="6.004550">
       <ele>519</ele>
       <time>2013-10-22T15:55:45Z</time>
      </trkpt>
      <trkpt lat="43.656520" lon="6.004650">
       <ele>521</ele>
       <time>2013-10-22T15:55:51Z</time>
      </trkpt>
      <trkpt lat="43.656230" lon="6.004660">
       <ele>523</ele>
       <time>2013-10-22T15:55:57Z</time>
      </trkpt>
      <trkpt lat="43.655250" lon="6.004510">
       <ele>522</ele>
       <time>2013-10-22T15:56:18Z</time>
      </trkpt>
      <trkpt lat="43.655010" lon="6.004520">
       <ele>522</ele>
       <time>2013-10-22T15:56:23Z</time>
      </trkpt>
      <trkpt lat="43.654250" lon="6.004790">
       <ele>524</ele>
       <time>2013-10-22T15:56:39Z</time>
      </trkpt>
      <trkpt lat="43.653900" lon="6.005010">
       <ele>526</ele>
       <time>2013-10-22T15:56:47Z</time>
      </trkpt>
      <trkpt lat="43.650820" lon="6.009190">
       <ele>540</ele>
       <time>2013-10-22T15:58:17Z</time>
      </trkpt>
      <trkpt lat="43.648730" lon="6.012530">
       <ele>539</ele>
       <time>2013-10-22T15:59:23Z</time>
      </trkpt>
      <trkpt lat="43.648490" lon="6.013190">
       <ele>539</ele>
       <time>2013-10-22T15:59:34Z</time>
      </trkpt>
      <trkpt lat="43.647880" lon="6.015930">
       <ele>538</ele>
       <time>2013-10-22T16:00:17Z</time>
      </trkpt>
      <trkpt lat="43.647300" lon="6.018350">
       <ele>534</ele>
       <time>2013-10-22T16:00:55Z</time>
      </trkpt>
      <trkpt lat="43.648360" lon="6.020650">
       <ele>531</ele>
       <time>2013-10-22T16:01:36Z</time>
      </trkpt>
      <trkpt lat="43.649100" lon="6.022050">
       <ele>533</ele>
       <time>2013-10-22T16:02:02Z</time>
      </trkpt>
      <trkpt lat="43.649760" lon="6.023430">
       <ele>533</ele>
       <time>2013-10-22T16:02:27Z</time>
      </trkpt>
      <trkpt lat="43.650490" lon="6.025330">
       <ele>534</ele>
       <time>2013-10-22T16:02:59Z</time>
      </trkpt>
      <trkpt lat="43.650660" lon="6.025860">
       <ele>535</ele>
       <time>2013-10-22T16:03:08Z</time>
      </trkpt>
      <trkpt lat="43.650790" lon="6.026730">
       <ele>534</ele>
       <time>2013-10-22T16:03:21Z</time>
      </trkpt>
      <trkpt lat="43.650820" lon="6.027040">
       <ele>533</ele>
       <time>2013-10-22T16:03:26Z</time>
      </trkpt>
      <trkpt lat="43.650810" lon="6.027360">
       <ele>533</ele>
       <time>2013-10-22T16:03:31Z</time>
      </trkpt>
      <trkpt lat="43.650710" lon="6.027970">
       <ele>532</ele>
       <time>2013-10-22T16:03:40Z</time>
      </trkpt>
      <trkpt lat="43.650180" lon="6.030050">
       <ele>533</ele>
       <time>2013-10-22T16:04:13Z</time>
      </trkpt>
      <trkpt lat="43.649810" lon="6.031210">
       <ele>534</ele>
       <time>2013-10-22T16:04:32Z</time>
      </trkpt>
      <trkpt lat="43.649680" lon="6.031800">
       <ele>534</ele>
       <time>2013-10-22T16:04:42Z</time>
      </trkpt>
      <trkpt lat="43.649460" lon="6.033320">
       <ele>537</ele>
       <time>2013-10-22T16:05:05Z</time>
      </trkpt>
      <trkpt lat="43.649340" lon="6.033890">
       <ele>537</ele>
       <time>2013-10-22T16:05:14Z</time>
      </trkpt>
      <trkpt lat="43.648990" lon="6.034960">
       <ele>538</ele>
       <time>2013-10-22T16:05:31Z</time>
      </trkpt>
      <trkpt lat="43.648840" lon="6.035510">
       <ele>538</ele>
       <time>2013-10-22T16:05:40Z</time>
      </trkpt>
      <trkpt lat="43.648560" lon="6.037020">
       <ele>540</ele>
       <time>2013-10-22T16:06:03Z</time>
      </trkpt>
      <trkpt lat="43.648280" lon="6.038280">
       <ele>542</ele>
       <time>2013-10-22T16:06:23Z</time>
      </trkpt>
      <trkpt lat="43.647780" lon="6.041360">
       <ele>547</ele>
       <time>2013-10-22T16:07:11Z</time>
      </trkpt>
      <trkpt lat="43.647400" lon="6.043190">
       <ele>548</ele>
       <time>2013-10-22T16:07:39Z</time>
      </trkpt>
      <trkpt lat="43.647300" lon="6.043440">
       <ele>549</ele>
       <time>2013-10-22T16:07:43Z</time>
      </trkpt>
      <trkpt lat="43.646950" lon="6.044130">
       <ele>551</ele>
       <time>2013-10-22T16:07:56Z</time>
      </trkpt>
      <trkpt lat="43.646610" lon="6.044850">
       <ele>553</ele>
       <time>2013-10-22T16:08:09Z</time>
      </trkpt>
      <trkpt lat="43.646480" lon="6.045060">
       <ele>554</ele>
       <time>2013-10-22T16:08:13Z</time>
      </trkpt>
      <trkpt lat="43.646190" lon="6.045440">
       <ele>556</ele>
       <time>2013-10-22T16:08:21Z</time>
      </trkpt>
      <trkpt lat="43.645450" lon="6.046260">
       <ele>556</ele>
       <time>2013-10-22T16:08:41Z</time>
      </trkpt>
      <trkpt lat="43.645000" lon="6.046800">
       <ele>554</ele>
       <time>2013-10-22T16:08:53Z</time>
      </trkpt>
      <trkpt lat="43.644840" lon="6.046970">
       <ele>552</ele>
       <time>2013-10-22T16:08:58Z</time>
      </trkpt>
      <trkpt lat="43.644660" lon="6.047130">
       <ele>550</ele>
       <time>2013-10-22T16:09:02Z</time>
      </trkpt>
      <trkpt lat="43.643730" lon="6.047810">
       <ele>548</ele>
       <time>2013-10-22T16:09:24Z</time>
      </trkpt>
      <trkpt lat="43.643370" lon="6.048150">
       <ele>547</ele>
       <time>2013-10-22T16:09:33Z</time>
      </trkpt>
      <trkpt lat="43.643040" lon="6.048500">
       <ele>542</ele>
       <time>2013-10-22T16:09:42Z</time>
      </trkpt>
      <trkpt lat="43.642870" lon="6.048710">
       <ele>544</ele>
       <time>2013-10-22T16:09:46Z</time>
      </trkpt>
      <trkpt lat="43.642420" lon="6.049370">
       <ele>539</ele>
       <time>2013-10-22T16:10:00Z</time>
      </trkpt>
      <trkpt lat="43.642130" lon="6.049830">
       <ele>539</ele>
       <time>2013-10-22T16:10:09Z</time>
      </trkpt>
      <trkpt lat="43.641350" lon="6.051240">
       <ele>539</ele>
       <time>2013-10-22T16:10:36Z</time>
      </trkpt>
      <trkpt lat="43.640860" lon="6.052060">
       <ele>537</ele>
       <time>2013-10-22T16:10:52Z</time>
      </trkpt>
      <trkpt lat="43.640690" lon="6.052470">
       <ele>537</ele>
       <time>2013-10-22T16:10:59Z</time>
      </trkpt>
      <trkpt lat="43.640640" lon="6.052700">
       <ele>537</ele>
       <time>2013-10-22T16:11:02Z</time>
      </trkpt>
      <trkpt lat="43.640620" lon="6.053150">
       <ele>537</ele>
       <time>2013-10-22T16:11:09Z</time>
      </trkpt>
      <trkpt lat="43.640750" lon="6.053590">
       <ele>534</ele>
       <time>2013-10-22T16:11:16Z</time>
      </trkpt>
      <trkpt lat="43.640860" lon="6.053790">
       <ele>535</ele>
       <time>2013-10-22T16:11:20Z</time>
      </trkpt>
      <trkpt lat="43.642100" lon="6.055720">
       <ele>520</ele>
       <time>2013-10-22T16:11:59Z</time>
      </trkpt>
      <trkpt lat="43.642540" lon="6.056480">
       <ele>513</ele>
       <time>2013-10-22T16:12:13Z</time>
      </trkpt>
      <trkpt lat="43.642670" lon="6.056780">
       <ele>508</ele>
       <time>2013-10-22T16:12:19Z</time>
      </trkpt>
      <trkpt lat="43.642700" lon="6.056940">
       <ele>506</ele>
       <time>2013-10-22T16:12:21Z</time>
      </trkpt>
      <trkpt lat="43.642650" lon="6.057240">
       <ele>504</ele>
       <time>2013-10-22T16:12:26Z</time>
      </trkpt>
      <trkpt lat="43.642590" lon="6.057370">
       <ele>504</ele>
       <time>2013-10-22T16:12:28Z</time>
      </trkpt>
      <trkpt lat="43.642500" lon="6.057480">
       <ele>504</ele>
       <time>2013-10-22T16:12:30Z</time>
      </trkpt>
      <trkpt lat="43.642050" lon="6.057710">
       <ele>504</ele>
       <time>2013-10-22T16:12:40Z</time>
      </trkpt>
      <trkpt lat="43.641940" lon="6.057790">
       <ele>504</ele>
       <time>2013-10-22T16:12:43Z</time>
      </trkpt>
      <trkpt lat="43.641840" lon="6.057900">
       <ele>504</ele>
       <time>2013-10-22T16:12:46Z</time>
      </trkpt>
      <trkpt lat="43.641760" lon="6.058050">
       <ele>503</ele>
       <time>2013-10-22T16:12:48Z</time>
      </trkpt>
      <trkpt lat="43.641460" lon="6.058830">
       <ele>498</ele>
       <time>2013-10-22T16:13:02Z</time>
      </trkpt>
      <trkpt lat="43.641280" lon="6.059180">
       <ele>497</ele>
       <time>2013-10-22T16:13:08Z</time>
      </trkpt>
      <trkpt lat="43.641270" lon="6.059270">
       <ele>497</ele>
       <time>2013-10-22T16:13:10Z</time>
      </trkpt>
      <trkpt lat="43.641300" lon="6.059350">
       <ele>494</ele>
       <time>2013-10-22T16:13:11Z</time>
      </trkpt>
      <trkpt lat="43.641350" lon="6.059390">
       <ele>494</ele>
       <time>2013-10-22T16:13:12Z</time>
      </trkpt>
      <trkpt lat="43.641410" lon="6.059400">
       <ele>494</ele>
       <time>2013-10-22T16:13:13Z</time>
      </trkpt>
      <trkpt lat="43.641490" lon="6.059370">
       <ele>494</ele>
       <time>2013-10-22T16:13:15Z</time>
      </trkpt>
      <trkpt lat="43.641930" lon="6.059080">
       <ele>492</ele>
       <time>2013-10-22T16:13:25Z</time>
      </trkpt>
      <trkpt lat="43.642040" lon="6.059030">
       <ele>492</ele>
       <time>2013-10-22T16:13:28Z</time>
      </trkpt>
      <trkpt lat="43.642170" lon="6.059030">
       <ele>490</ele>
       <time>2013-10-22T16:13:30Z</time>
      </trkpt>
      <trkpt lat="43.642300" lon="6.059060">
       <ele>490</ele>
       <time>2013-10-22T16:13:33Z</time>
      </trkpt>
      <trkpt lat="43.642550" lon="6.059180">
       <ele>488</ele>
       <time>2013-10-22T16:13:38Z</time>
      </trkpt>
      <trkpt lat="43.642670" lon="6.059270">
       <ele>487</ele>
       <time>2013-10-22T16:13:41Z</time>
      </trkpt>
      <trkpt lat="43.642840" lon="6.059560">
       <ele>485</ele>
       <time>2013-10-22T16:13:47Z</time>
      </trkpt>
      <trkpt lat="43.643260" lon="6.060560">
       <ele>478</ele>
       <time>2013-10-22T16:14:04Z</time>
      </trkpt>
      <trkpt lat="43.643470" lon="6.061270">
       <ele>476</ele>
       <time>2013-10-22T16:14:16Z</time>
      </trkpt>
      <trkpt lat="43.643760" lon="6.062040">
       <ele>474</ele>
       <time>2013-10-22T16:14:29Z</time>
      </trkpt>
      <trkpt lat="43.644050" lon="6.062670">
       <ele>477</ele>
       <time>2013-10-22T16:14:40Z</time>
      </trkpt>
      <trkpt lat="43.644000" lon="6.062710">
       <ele>476</ele>
       <time>2013-10-22T16:14:41Z</time>
      </trkpt>
      <trkpt lat="43.643970" lon="6.062800">
       <ele>476</ele>
       <time>2013-10-22T16:14:43Z</time>
      </trkpt>
      <trkpt lat="43.643990" lon="6.062890">
       <ele>476</ele>
       <time>2013-10-22T16:14:44Z</time>
      </trkpt>
      <trkpt lat="43.644020" lon="6.062930">
       <ele>476</ele>
       <time>2013-10-22T16:14:45Z</time>
      </trkpt>
      <trkpt lat="43.644070" lon="6.062960">
       <ele>477</ele>
       <time>2013-10-22T16:14:46Z</time>
      </trkpt>
      <trkpt lat="43.644110" lon="6.062950">
       <ele>477</ele>
       <time>2013-10-22T16:14:47Z</time>
      </trkpt>
      <trkpt lat="43.644130" lon="6.063180">
       <ele>477</ele>
       <time>2013-10-22T16:14:50Z</time>
      </trkpt>
      <trkpt lat="43.644160" lon="6.063290">
       <ele>476</ele>
       <time>2013-10-22T16:14:52Z</time>
      </trkpt>
      <trkpt lat="43.644210" lon="6.063390">
       <ele>476</ele>
       <time>2013-10-22T16:14:54Z</time>
      </trkpt>
      <trkpt lat="43.644270" lon="6.063470">
       <ele>476</ele>
       <time>2013-10-22T16:14:56Z</time>
      </trkpt>
      <trkpt lat="43.645260" lon="6.063870">
       <ele>475</ele>
       <time>2013-10-22T16:15:17Z</time>
      </trkpt>
      <trkpt lat="43.646090" lon="6.064270">
       <ele>474</ele>
       <time>2013-10-22T16:15:35Z</time>
      </trkpt>
      <trkpt lat="43.646590" lon="6.064770">
       <ele>466</ele>
       <time>2013-10-22T16:15:48Z</time>
      </trkpt>
      <trkpt lat="43.646880" lon="6.065090">
       <ele>464</ele>
       <time>2013-10-22T16:15:56Z</time>
      </trkpt>
      <trkpt lat="43.646830" lon="6.065290">
       <ele>461</ele>
       <time>2013-10-22T16:15:59Z</time>
      </trkpt>
      <trkpt lat="43.646350" lon="6.066380">
       <ele>453</ele>
       <time>2013-10-22T16:16:18Z</time>
      </trkpt>
      <trkpt lat="43.645960" lon="6.067040">
       <ele>449</ele>
       <time>2013-10-22T16:16:31Z</time>
      </trkpt>
      <trkpt lat="43.645880" lon="6.067330">
       <ele>448</ele>
       <time>2013-10-22T16:16:36Z</time>
      </trkpt>
      <trkpt lat="43.645880" lon="6.068900">
       <ele>443</ele>
       <time>2013-10-22T16:16:59Z</time>
      </trkpt>
      <trkpt lat="43.645740" lon="6.070830">
       <ele>444</ele>
       <time>2013-10-22T16:17:28Z</time>
      </trkpt>
      <trkpt lat="43.645900" lon="6.074400">
       <ele>439</ele>
       <time>2013-10-22T16:18:22Z</time>
      </trkpt>
      <trkpt lat="43.645900" lon="6.075080">
       <ele>438</ele>
       <time>2013-10-22T16:18:32Z</time>
      </trkpt>
      <trkpt lat="43.645840" lon="6.077140">
       <ele>440</ele>
       <time>2013-10-22T16:19:03Z</time>
      </trkpt>
      <trkpt lat="43.645850" lon="6.078270">
       <ele>443</ele>
       <time>2013-10-22T16:19:20Z</time>
      </trkpt>
      <trkpt lat="43.645880" lon="6.078580">
       <ele>442</ele>
       <time>2013-10-22T16:19:25Z</time>
      </trkpt>
      <trkpt lat="43.646040" lon="6.079570">
       <ele>443</ele>
       <time>2013-10-22T16:19:40Z</time>
      </trkpt>
      <trkpt lat="43.646090" lon="6.080790">
       <ele>447</ele>
       <time>2013-10-22T16:19:58Z</time>
      </trkpt>
      <trkpt lat="43.646130" lon="6.080940">
       <ele>447</ele>
       <time>2013-10-22T16:20:01Z</time>
      </trkpt>
      <trkpt lat="43.646170" lon="6.081070">
       <ele>450</ele>
       <time>2013-10-22T16:20:03Z</time>
      </trkpt>
      <trkpt lat="43.646330" lon="6.081220">
       <ele>451</ele>
       <time>2013-10-22T16:20:07Z</time>
      </trkpt>
      <trkpt lat="43.646670" lon="6.081410">
       <ele>455</ele>
       <time>2013-10-22T16:20:14Z</time>
      </trkpt>
      <trkpt lat="43.646750" lon="6.081500">
       <ele>455</ele>
       <time>2013-10-22T16:20:17Z</time>
      </trkpt>
      <trkpt lat="43.646750" lon="6.081570">
       <ele>458</ele>
       <time>2013-10-22T16:20:18Z</time>
      </trkpt>
      <trkpt lat="43.646720" lon="6.081660">
       <ele>458</ele>
       <time>2013-10-22T16:20:19Z</time>
      </trkpt>
      <trkpt lat="43.646690" lon="6.081700">
       <ele>458</ele>
       <time>2013-10-22T16:20:20Z</time>
      </trkpt>
      <trkpt lat="43.646270" lon="6.081920">
       <ele>461</ele>
       <time>2013-10-22T16:20:29Z</time>
      </trkpt>
      <trkpt lat="43.645760" lon="6.082260">
       <ele>462</ele>
       <time>2013-10-22T16:20:41Z</time>
      </trkpt>
      <trkpt lat="43.645300" lon="6.082640">
       <ele>465</ele>
       <time>2013-10-22T16:20:52Z</time>
      </trkpt>
      <trkpt lat="43.645060" lon="6.082900">
       <ele>465</ele>
       <time>2013-10-22T16:20:58Z</time>
      </trkpt>
      <trkpt lat="43.644980" lon="6.083040">
       <ele>468</ele>
       <time>2013-10-22T16:21:01Z</time>
      </trkpt>
      <trkpt lat="43.644930" lon="6.083230">
       <ele>471</ele>
       <time>2013-10-22T16:21:04Z</time>
      </trkpt>
      <trkpt lat="43.644930" lon="6.083490">
       <ele>474</ele>
       <time>2013-10-22T16:21:08Z</time>
      </trkpt>
      <trkpt lat="43.645030" lon="6.084040">
       <ele>478</ele>
       <time>2013-10-22T16:21:17Z</time>
      </trkpt>
      <trkpt lat="43.645080" lon="6.084150">
       <ele>478</ele>
       <time>2013-10-22T16:21:18Z</time>
      </trkpt>
      <trkpt lat="43.645190" lon="6.084280">
       <ele>478</ele>
       <time>2013-10-22T16:21:21Z</time>
      </trkpt>
      <trkpt lat="43.645950" lon="6.084630">
       <ele>482</ele>
       <time>2013-10-22T16:21:38Z</time>
      </trkpt>
      <trkpt lat="43.647350" lon="6.085230">
       <ele>490</ele>
       <time>2013-10-22T16:22:08Z</time>
      </trkpt>
      <trkpt lat="43.648100" lon="6.085580">
       <ele>495</ele>
       <time>2013-10-22T16:22:25Z</time>
      </trkpt>
      <trkpt lat="43.648560" lon="6.085740">
       <ele>495</ele>
       <time>2013-10-22T16:22:35Z</time>
      </trkpt>
      <trkpt lat="43.648970" lon="6.085770">
       <ele>497</ele>
       <time>2013-10-22T16:22:43Z</time>
      </trkpt>
      <trkpt lat="43.649050" lon="6.085790">
       <ele>499</ele>
       <time>2013-10-22T16:22:45Z</time>
      </trkpt>
      <trkpt lat="43.649100" lon="6.085830">
       <ele>499</ele>
       <time>2013-10-22T16:22:46Z</time>
      </trkpt>
      <trkpt lat="43.649120" lon="6.085890">
       <ele>499</ele>
       <time>2013-10-22T16:22:47Z</time>
      </trkpt>
      <trkpt lat="43.649120" lon="6.085960">
       <ele>499</ele>
       <time>2013-10-22T16:22:48Z</time>
      </trkpt>
      <trkpt lat="43.649050" lon="6.086080">
       <ele>501</ele>
       <time>2013-10-22T16:22:50Z</time>
      </trkpt>
      <trkpt lat="43.648890" lon="6.086240">
       <ele>499</ele>
       <time>2013-10-22T16:22:55Z</time>
      </trkpt>
      <trkpt lat="43.648270" lon="6.087140">
       <ele>509</ele>
       <time>2013-10-22T16:23:13Z</time>
      </trkpt>
      <trkpt lat="43.648040" lon="6.087380">
       <ele>513</ele>
       <time>2013-10-22T16:23:19Z</time>
      </trkpt>
      <trkpt lat="43.647780" lon="6.087610">
       <ele>513</ele>
       <time>2013-10-22T16:23:26Z</time>
      </trkpt>
      <trkpt lat="43.647300" lon="6.087910">
       <ele>512</ele>
       <time>2013-10-22T16:23:37Z</time>
      </trkpt>
      <trkpt lat="43.647200" lon="6.088080">
       <ele>516</ele>
       <time>2013-10-22T16:23:40Z</time>
      </trkpt>
      <trkpt lat="43.647120" lon="6.088280">
       <ele>518</ele>
       <time>2013-10-22T16:23:43Z</time>
      </trkpt>
      <trkpt lat="43.647120" lon="6.088720">
       <ele>519</ele>
       <time>2013-10-22T16:23:50Z</time>
      </trkpt>
      <trkpt lat="43.650240" lon="6.098120">
       <ele>529</ele>
       <time>2013-10-22T16:26:25Z</time>
      </trkpt>
      <trkpt lat="43.653610" lon="6.108490">
       <ele>533</ele>
       <time>2013-10-22T16:29:16Z</time>
      </trkpt>
      <trkpt lat="43.653700" lon="6.108840">
       <ele>531</ele>
       <time>2013-10-22T16:29:21Z</time>
      </trkpt>
      <trkpt lat="43.653790" lon="6.109330">
       <ele>530</ele>
       <time>2013-10-22T16:29:29Z</time>
      </trkpt>
      <trkpt lat="43.654090" lon="6.111740">
       <ele>536</ele>
       <time>2013-10-22T16:30:05Z</time>
      </trkpt>
      <trkpt lat="43.654240" lon="6.112430">
       <ele>537</ele>
       <time>2013-10-22T16:30:16Z</time>
      </trkpt>
      <trkpt lat="43.654380" lon="6.112920">
       <ele>537</ele>
       <time>2013-10-22T16:30:24Z</time>
      </trkpt>
      <trkpt lat="43.655120" lon="6.115020">
       <ele>533</ele>
       <time>2013-10-22T16:30:59Z</time>
      </trkpt>
      <trkpt lat="43.655220" lon="6.115340">
       <ele>531</ele>
       <time>2013-10-22T16:31:04Z</time>
      </trkpt>
      <trkpt lat="43.655640" lon="6.116980">
       <ele>529</ele>
       <time>2013-10-22T16:31:30Z</time>
      </trkpt>
      <trkpt lat="43.655930" lon="6.117860">
       <ele>531</ele>
       <time>2013-10-22T16:31:45Z</time>
      </trkpt>
      <trkpt lat="43.657100" lon="6.121060">
       <ele>541</ele>
       <time>2013-10-22T16:32:39Z</time>
      </trkpt>
      <trkpt lat="43.658360" lon="6.124160">
       <ele>545</ele>
       <time>2013-10-22T16:33:32Z</time>
      </trkpt>
      <trkpt lat="43.658210" lon="6.124500">
       <ele>545</ele>
       <time>2013-10-22T16:33:38Z</time>
      </trkpt>
      <trkpt lat="43.657860" lon="6.125190">
       <ele>543</ele>
       <time>2013-10-22T16:33:51Z</time>
      </trkpt>
      <trkpt lat="43.656630" lon="6.128290">
       <ele>538</ele>
       <time>2013-10-22T16:34:44Z</time>
      </trkpt>
      <trkpt lat="43.656600" lon="6.128480">
       <ele>538</ele>
       <time>2013-10-22T16:34:47Z</time>
      </trkpt>
      <trkpt lat="43.656300" lon="6.129210">
       <ele>536</ele>
       <time>2013-10-22T16:34:59Z</time>
      </trkpt>
      <trkpt lat="43.655280" lon="6.131830">
       <ele>536</ele>
       <time>2013-10-22T16:35:44Z</time>
      </trkpt>
      <trkpt lat="43.655070" lon="6.132100">
       <ele>534</ele>
       <time>2013-10-22T16:35:50Z</time>
      </trkpt>
      <trkpt lat="43.654810" lon="6.132530">
       <ele>533</ele>
       <time>2013-10-22T16:35:58Z</time>
      </trkpt>
      <trkpt lat="43.654670" lon="6.133200">
       <ele>534</ele>
       <time>2013-10-22T16:36:09Z</time>
      </trkpt>
      <trkpt lat="43.654540" lon="6.133440">
       <ele>532</ele>
       <time>2013-10-22T16:36:13Z</time>
      </trkpt>
      <trkpt lat="43.653930" lon="6.135240">
       <ele>521</ele>
       <time>2013-10-22T16:36:43Z</time>
      </trkpt>
      <trkpt lat="43.653800" lon="6.136000">
       <ele>520</ele>
       <time>2013-10-22T16:36:55Z</time>
      </trkpt>
      <trkpt lat="43.653740" lon="6.136220">
       <ele>519</ele>
       <time>2013-10-22T16:36:58Z</time>
      </trkpt>
      <trkpt lat="43.653060" lon="6.137900">
       <ele>513</ele>
       <time>2013-10-22T16:37:27Z</time>
      </trkpt>
      <trkpt lat="43.652930" lon="6.138280">
       <ele>512</ele>
       <time>2013-10-22T16:37:33Z</time>
      </trkpt>
      <trkpt lat="43.652610" lon="6.139750">
       <ele>509</ele>
       <time>2013-10-22T16:37:56Z</time>
      </trkpt>
      <trkpt lat="43.652510" lon="6.140290">
       <ele>508</ele>
       <time>2013-10-22T16:38:05Z</time>
      </trkpt>
      <trkpt lat="43.652480" lon="6.140720">
       <ele>508</ele>
       <time>2013-10-22T16:38:11Z</time>
      </trkpt>
      <trkpt lat="43.652500" lon="6.141180">
       <ele>508</ele>
       <time>2013-10-22T16:38:18Z</time>
      </trkpt>
      <trkpt lat="43.652480" lon="6.141480">
       <ele>508</ele>
       <time>2013-10-22T16:38:23Z</time>
      </trkpt>
      <trkpt lat="43.652220" lon="6.142650">
       <ele>506</ele>
       <time>2013-10-22T16:38:41Z</time>
      </trkpt>
      <trkpt lat="43.652140" lon="6.143390">
       <ele>504</ele>
       <time>2013-10-22T16:38:52Z</time>
      </trkpt>
      <trkpt lat="43.652130" lon="6.144300">
       <ele>504</ele>
       <time>2013-10-22T16:39:06Z</time>
      </trkpt>
      <trkpt lat="43.652140" lon="6.144880">
       <ele>505</ele>
       <time>2013-10-22T16:39:15Z</time>
      </trkpt>
      <trkpt lat="43.652190" lon="6.145140">
       <ele>506</ele>
       <time>2013-10-22T16:39:19Z</time>
      </trkpt>
      <trkpt lat="43.652480" lon="6.146020">
       <ele>509</ele>
       <time>2013-10-22T16:39:33Z</time>
      </trkpt>
      <trkpt lat="43.652580" lon="6.146200">
       <ele>509</ele>
       <time>2013-10-22T16:39:37Z</time>
      </trkpt>
      <trkpt lat="43.652510" lon="6.146370">
       <ele>510</ele>
       <time>2013-10-22T16:39:40Z</time>
      </trkpt>
      <trkpt lat="43.652030" lon="6.147980">
       <ele>507</ele>
       <time>2013-10-22T16:40:06Z</time>
      </trkpt>
      <trkpt lat="43.652010" lon="6.148110">
       <ele>507</ele>
       <time>2013-10-22T16:40:08Z</time>
      </trkpt>
      <trkpt lat="43.652020" lon="6.148490">
       <ele>507</ele>
       <time>2013-10-22T16:40:13Z</time>
      </trkpt>
      <trkpt lat="43.652100" lon="6.149230">
       <ele>513</ele>
       <time>2013-10-22T16:40:25Z</time>
      </trkpt>
      <trkpt lat="43.652080" lon="6.149420">
       <ele>508</ele>
       <time>2013-10-22T16:40:27Z</time>
      </trkpt>
      <trkpt lat="43.652010" lon="6.149850">
       <ele>509</ele>
       <time>2013-10-22T16:40:34Z</time>
      </trkpt>
      <trkpt lat="43.651580" lon="6.151530">
       <ele>510</ele>
       <time>2013-10-22T16:41:01Z</time>
      </trkpt>
      <trkpt lat="43.651440" lon="6.152300">
       <ele>508</ele>
       <time>2013-10-22T16:41:13Z</time>
      </trkpt>
      <trkpt lat="43.651370" lon="6.152780">
       <ele>510</ele>
       <time>2013-10-22T16:41:20Z</time>
      </trkpt>
      <trkpt lat="43.651360" lon="6.153010">
       <ele>511</ele>
       <time>2013-10-22T16:41:24Z</time>
      </trkpt>
      <trkpt lat="43.651370" lon="6.153300">
       <ele>511</ele>
       <time>2013-10-22T16:41:28Z</time>
      </trkpt>
      <trkpt lat="43.651530" lon="6.154530">
       <ele>513</ele>
       <time>2013-10-22T16:41:47Z</time>
      </trkpt>
      <trkpt lat="43.651550" lon="6.154870">
       <ele>510</ele>
       <time>2013-10-22T16:41:52Z</time>
      </trkpt>
      <trkpt lat="43.651480" lon="6.155370">
       <ele>503</ele>
       <time>2013-10-22T16:41:59Z</time>
      </trkpt>
      <trkpt lat="43.650840" lon="6.157760">
       <ele>501</ele>
       <time>2013-10-22T16:42:38Z</time>
      </trkpt>
      <trkpt lat="43.650700" lon="6.158190">
       <ele>502</ele>
       <time>2013-10-22T16:42:45Z</time>
      </trkpt>
      <trkpt lat="43.650520" lon="6.158570">
       <ele>500</ele>
       <time>2013-10-22T16:42:52Z</time>
      </trkpt>
      <trkpt lat="43.650390" lon="6.158890">
       <ele>497</ele>
       <time>2013-10-22T16:42:57Z</time>
      </trkpt>
      <trkpt lat="43.650330" lon="6.159230">
       <ele>498</ele>
       <time>2013-10-22T16:43:02Z</time>
      </trkpt>
      <trkpt lat="43.650310" lon="6.159530">
       <ele>499</ele>
       <time>2013-10-22T16:43:07Z</time>
      </trkpt>
      <trkpt lat="43.650360" lon="6.160340">
       <ele>500</ele>
       <time>2013-10-22T16:43:19Z</time>
      </trkpt>
      <trkpt lat="43.650290" lon="6.161470">
       <ele>501</ele>
       <time>2013-10-22T16:43:36Z</time>
      </trkpt>
      <trkpt lat="43.650210" lon="6.162220">
       <ele>503</ele>
       <time>2013-10-22T16:43:47Z</time>
      </trkpt>
      <trkpt lat="43.650160" lon="6.162910">
       <ele>504</ele>
       <time>2013-10-22T16:43:58Z</time>
      </trkpt>
      <trkpt lat="43.650200" lon="6.165460">
       <ele>505</ele>
       <time>2013-10-22T16:44:36Z</time>
      </trkpt>
      <trkpt lat="43.650180" lon="6.166430">
       <ele>503</ele>
       <time>2013-10-22T16:44:51Z</time>
      </trkpt>
      <trkpt lat="43.650200" lon="6.166840">
       <ele>502</ele>
       <time>2013-10-22T16:44:57Z</time>
      </trkpt>
      <trkpt lat="43.650290" lon="6.167430">
       <ele>499</ele>
       <time>2013-10-22T16:45:06Z</time>
      </trkpt>
      <trkpt lat="43.650680" lon="6.168960">
       <ele>499</ele>
       <time>2013-10-22T16:45:30Z</time>
      </trkpt>
      <trkpt lat="43.651150" lon="6.170310">
       <ele>498</ele>
       <time>2013-10-22T16:45:53Z</time>
      </trkpt>
      <trkpt lat="43.651230" lon="6.170630">
       <ele>496</ele>
       <time>2013-10-22T16:45:58Z</time>
      </trkpt>
      <trkpt lat="43.651240" lon="6.170920">
       <ele>495</ele>
       <time>2013-10-22T16:46:02Z</time>
      </trkpt>
      <trkpt lat="43.651190" lon="6.171140">
       <ele>494</ele>
       <time>2013-10-22T16:46:06Z</time>
      </trkpt>
      <trkpt lat="43.651050" lon="6.171540">
       <ele>493</ele>
       <time>2013-10-22T16:46:12Z</time>
      </trkpt>
      <trkpt lat="43.650700" lon="6.171960">
       <ele>493</ele>
       <time>2013-10-22T16:46:22Z</time>
      </trkpt>
      <trkpt lat="43.649330" lon="6.173220">
       <ele>480</ele>
       <time>2013-10-22T16:46:56Z</time>
      </trkpt>
      <trkpt lat="43.648990" lon="6.173580">
       <ele>474</ele>
       <time>2013-10-22T16:47:05Z</time>
      </trkpt>
      <trkpt lat="43.648760" lon="6.173890">
       <ele>473</ele>
       <time>2013-10-22T16:47:11Z</time>
      </trkpt>
      <trkpt lat="43.647620" lon="6.175920">
       <ele>466</ele>
       <time>2013-10-22T16:47:50Z</time>
      </trkpt>
      <trkpt lat="43.647440" lon="6.176320">
       <ele>468</ele>
       <time>2013-10-22T16:47:57Z</time>
      </trkpt>
      <trkpt lat="43.647360" lon="6.176540">
       <ele>466</ele>
       <time>2013-10-22T16:48:01Z</time>
      </trkpt>
      <trkpt lat="43.647200" lon="6.177210">
       <ele>469</ele>
       <time>2013-10-22T16:48:11Z</time>
      </trkpt>
      <trkpt lat="43.646880" lon="6.179070">
       <ele>473</ele>
       <time>2013-10-22T16:48:40Z</time>
      </trkpt>
      <trkpt lat="43.646560" lon="6.180260">
       <ele>477</ele>
       <time>2013-10-22T16:48:59Z</time>
      </trkpt>
      <trkpt lat="43.646010" lon="6.181580">
       <ele>475</ele>
       <time>2013-10-22T16:49:22Z</time>
      </trkpt>
      <trkpt lat="43.644520" lon="6.184980">
       <ele>479</ele>
       <time>2013-10-22T16:50:22Z</time>
      </trkpt>
      <trkpt lat="43.643080" lon="6.187830">
       <ele>492</ele>
       <time>2013-10-22T16:51:14Z</time>
      </trkpt>
      <trkpt lat="43.642790" lon="6.188480">
       <ele>493</ele>
       <time>2013-10-22T16:51:25Z</time>
      </trkpt>
      <trkpt lat="43.641020" lon="6.193590">
       <ele>501</ele>
       <time>2013-10-22T16:52:50Z</time>
      </trkpt>
      <trkpt lat="43.640430" lon="6.195610">
       <ele>500</ele>
       <time>2013-10-22T16:53:23Z</time>
      </trkpt>
      <trkpt lat="43.639090" lon="6.200440">
       <ele>498</ele>
       <time>2013-10-22T16:54:41Z</time>
      </trkpt>
      <trkpt lat="43.638300" lon="6.202700">
       <ele>507</ele>
       <time>2013-10-22T16:55:18Z</time>
      </trkpt>
      <trkpt lat="43.638160" lon="6.203150">
       <ele>503</ele>
       <time>2013-10-22T16:55:26Z</time>
      </trkpt>
      <trkpt lat="43.637950" lon="6.204710">
       <ele>497</ele>
       <time>2013-10-22T16:55:49Z</time>
      </trkpt>
      <trkpt lat="43.637840" lon="6.205250">
       <ele>498</ele>
       <time>2013-10-22T16:55:58Z</time>
      </trkpt>
      <trkpt lat="43.637710" lon="6.205580">
       <ele>499</ele>
       <time>2013-10-22T16:56:03Z</time>
      </trkpt>
      <trkpt lat="43.637420" lon="6.206000">
       <ele>501</ele>
       <time>2013-10-22T16:56:12Z</time>
      </trkpt>
      <trkpt lat="43.636370" lon="6.207070">
       <ele>505</ele>
       <time>2013-10-22T16:56:39Z</time>
      </trkpt>
      <trkpt lat="43.636050" lon="6.207460">
       <ele>507</ele>
       <time>2013-10-22T16:56:48Z</time>
      </trkpt>
      <trkpt lat="43.635790" lon="6.207880">
       <ele>506</ele>
       <time>2013-10-22T16:56:56Z</time>
      </trkpt>
      <trkpt lat="43.635550" lon="6.208350">
       <ele>505</ele>
       <time>2013-10-22T16:57:05Z</time>
      </trkpt>
      <trkpt lat="43.632750" lon="6.215400">
       <ele>514</ele>
       <time>2013-10-22T16:59:06Z</time>
      </trkpt>
      <trkpt lat="43.632090" lon="6.217450">
       <ele>520</ele>
       <time>2013-10-22T16:59:39Z</time>
      </trkpt>
      <trkpt lat="43.631770" lon="6.218380">
       <ele>519</ele>
       <time>2013-10-22T16:59:55Z</time>
      </trkpt>
      <trkpt lat="43.631370" lon="6.219180">
       <ele>521</ele>
       <time>2013-10-22T17:00:09Z</time>
      </trkpt>
      <trkpt lat="43.631290" lon="6.219310">
       <ele>522</ele>
       <time>2013-10-22T17:00:12Z</time>
      </trkpt>
      <trkpt lat="43.631240" lon="6.219360">
       <ele>522</ele>
       <time>2013-10-22T17:00:13Z</time>
      </trkpt>
      <trkpt lat="43.631140" lon="6.219360">
       <ele>522</ele>
       <time>2013-10-22T17:00:15Z</time>
      </trkpt>
      <trkpt lat="43.631080" lon="6.219400">
       <ele>522</ele>
       <time>2013-10-22T17:00:17Z</time>
      </trkpt>
      <trkpt lat="43.631030" lon="6.219540">
       <ele>522</ele>
       <time>2013-10-22T17:00:19Z</time>
      </trkpt>
      <trkpt lat="43.631050" lon="6.219690">
       <ele>522</ele>
       <time>2013-10-22T17:00:21Z</time>
      </trkpt>
      <trkpt lat="43.630980" lon="6.219950">
       <ele>522</ele>
       <time>2013-10-22T17:00:25Z</time>
      </trkpt>
      <trkpt lat="43.630690" lon="6.220640">
       <ele>520</ele>
       <time>2013-10-22T17:00:37Z</time>
      </trkpt>
      <trkpt lat="43.630630" lon="6.220750">
       <ele>519</ele>
       <time>2013-10-22T17:00:39Z</time>
      </trkpt>
      <trkpt lat="43.630520" lon="6.220790">
       <ele>519</ele>
       <time>2013-10-22T17:00:42Z</time>
      </trkpt>
      <trkpt lat="43.630390" lon="6.220790">
       <ele>517</ele>
       <time>2013-10-22T17:00:45Z</time>
      </trkpt>
      <trkpt lat="43.630290" lon="6.220830">
       <ele>517</ele>
       <time>2013-10-22T17:00:47Z</time>
      </trkpt>
      <trkpt lat="43.630240" lon="6.220950">
       <ele>517</ele>
       <time>2013-10-22T17:00:49Z</time>
      </trkpt>
      <trkpt lat="43.630210" lon="6.221060">
       <ele>517</ele>
       <time>2013-10-22T17:00:51Z</time>
      </trkpt>
      <trkpt lat="43.630260" lon="6.221250">
       <ele>516</ele>
       <time>2013-10-22T17:00:54Z</time>
      </trkpt>
      <trkpt lat="43.630450" lon="6.221490">
       <ele>517</ele>
       <time>2013-10-22T17:00:59Z</time>
      </trkpt>
      <trkpt lat="43.630480" lon="6.221550">
       <ele>516</ele>
       <time>2013-10-22T17:01:00Z</time>
      </trkpt>
      <trkpt lat="43.630530" lon="6.221750">
       <ele>516</ele>
       <time>2013-10-22T17:01:03Z</time>
      </trkpt>
      <trkpt lat="43.630760" lon="6.223500">
       <ele>504</ele>
       <time>2013-10-22T17:01:30Z</time>
      </trkpt>
      <trkpt lat="43.630760" lon="6.223600">
       <ele>504</ele>
       <time>2013-10-22T17:01:31Z</time>
      </trkpt>
      <trkpt lat="43.630710" lon="6.223740">
       <ele>504</ele>
       <time>2013-10-22T17:01:34Z</time>
      </trkpt>
      <trkpt lat="43.630660" lon="6.223820">
       <ele>506</ele>
       <time>2013-10-22T17:01:35Z</time>
      </trkpt>
      <trkpt lat="43.630560" lon="6.223900">
       <ele>506</ele>
       <time>2013-10-22T17:01:38Z</time>
      </trkpt>
      <trkpt lat="43.630240" lon="6.224080">
       <ele>508</ele>
       <time>2013-10-22T17:01:45Z</time>
      </trkpt>
      <trkpt lat="43.630050" lon="6.224230">
       <ele>508</ele>
       <time>2013-10-22T17:01:49Z</time>
      </trkpt>
      <trkpt lat="43.629820" lon="6.224480">
       <ele>510</ele>
       <time>2013-10-22T17:01:55Z</time>
      </trkpt>
      <trkpt lat="43.629700" lon="6.224650">
       <ele>511</ele>
       <time>2013-10-22T17:01:59Z</time>
      </trkpt>
      <trkpt lat="43.629550" lon="6.225050">
       <ele>512</ele>
       <time>2013-10-22T17:02:06Z</time>
      </trkpt>
      <trkpt lat="43.629180" lon="6.225590">
       <ele>514</ele>
       <time>2013-10-22T17:02:17Z</time>
      </trkpt>
      <trkpt lat="43.629040" lon="6.225770">
       <ele>515</ele>
       <time>2013-10-22T17:02:21Z</time>
      </trkpt>
      <trkpt lat="43.628880" lon="6.226020">
       <ele>513</ele>
       <time>2013-10-22T17:02:26Z</time>
      </trkpt>
      <trkpt lat="43.628340" lon="6.226710">
       <ele>505</ele>
       <time>2013-10-22T17:02:41Z</time>
      </trkpt>
      <trkpt lat="43.628220" lon="6.226820">
       <ele>505</ele>
       <time>2013-10-22T17:02:44Z</time>
      </trkpt>
      <trkpt lat="43.628020" lon="6.226880">
       <ele>501</ele>
       <time>2013-10-22T17:02:48Z</time>
      </trkpt>
      <trkpt lat="43.627410" lon="6.226780">
       <ele>494</ele>
       <time>2013-10-22T17:03:01Z</time>
      </trkpt>
      <trkpt lat="43.627280" lon="6.226710">
       <ele>491</ele>
       <time>2013-10-22T17:03:04Z</time>
      </trkpt>
      <trkpt lat="43.626300" lon="6.229470">
       <ele>496</ele>
       <time>2013-10-22T17:03:50Z</time>
      </trkpt>
      <trkpt lat="43.626160" lon="6.229780">
       <ele>494</ele>
       <time>2013-10-22T17:03:56Z</time>
      </trkpt>
      <trkpt lat="43.625510" lon="6.230810">
       <ele>493</ele>
       <time>2013-10-22T17:04:16Z</time>
      </trkpt>
      <trkpt lat="43.625350" lon="6.231010">
       <ele>493</ele>
       <time>2013-10-22T17:04:21Z</time>
      </trkpt>
      <trkpt lat="43.624840" lon="6.231530">
       <ele>490</ele>
       <time>2013-10-22T17:04:34Z</time>
      </trkpt>
      <trkpt lat="43.624190" lon="6.232310">
       <ele>489</ele>
       <time>2013-10-22T17:04:52Z</time>
      </trkpt>
      <trkpt lat="43.624100" lon="6.232430">
       <ele>492</ele>
       <time>2013-10-22T17:04:54Z</time>
      </trkpt>
      <trkpt lat="43.623610" lon="6.233210">
       <ele>493</ele>
       <time>2013-10-22T17:05:10Z</time>
      </trkpt>
      <trkpt lat="43.623190" lon="6.234010">
       <ele>486</ele>
       <time>2013-10-22T17:05:25Z</time>
      </trkpt>
      <trkpt lat="43.622940" lon="6.234550">
       <ele>487</ele>
       <time>2013-10-22T17:05:34Z</time>
      </trkpt>
      <trkpt lat="43.622870" lon="6.234830">
       <ele>484</ele>
       <time>2013-10-22T17:05:39Z</time>
      </trkpt>
      <trkpt lat="43.622810" lon="6.235270">
       <ele>487</ele>
       <time>2013-10-22T17:05:45Z</time>
      </trkpt>
      <trkpt lat="43.622710" lon="6.235560">
       <ele>489</ele>
       <time>2013-10-22T17:05:50Z</time>
      </trkpt>
      <trkpt lat="43.622420" lon="6.236080">
       <ele>491</ele>
       <time>2013-10-22T17:06:00Z</time>
      </trkpt>
      <trkpt lat="43.622160" lon="6.236590">
       <ele>494</ele>
       <time>2013-10-22T17:06:09Z</time>
      </trkpt>
      <trkpt lat="43.622080" lon="6.236660">
       <ele>494</ele>
       <time>2013-10-22T17:06:11Z</time>
      </trkpt>
      <trkpt lat="43.622000" lon="6.236700">
       <ele>494</ele>
       <time>2013-10-22T17:06:13Z</time>
      </trkpt>
      <trkpt lat="43.621920" lon="6.236700">
       <ele>494</ele>
       <time>2013-10-22T17:06:15Z</time>
      </trkpt>
      <trkpt lat="43.621750" lon="6.236650">
       <ele>494</ele>
       <time>2013-10-22T17:06:18Z</time>
      </trkpt>
      <trkpt lat="43.621670" lon="6.236660">
       <ele>494</ele>
       <time>2013-10-22T17:06:20Z</time>
      </trkpt>
      <trkpt lat="43.621600" lon="6.236720">
       <ele>494</ele>
       <time>2013-10-22T17:06:22Z</time>
      </trkpt>
      <trkpt lat="43.621550" lon="6.236910">
       <ele>496</ele>
       <time>2013-10-22T17:06:25Z</time>
      </trkpt>
      <trkpt lat="43.621680" lon="6.237310">
       <ele>497</ele>
       <time>2013-10-22T17:06:31Z</time>
      </trkpt>
      <trkpt lat="43.621910" lon="6.237790">
       <ele>500</ele>
       <time>2013-10-22T17:06:40Z</time>
      </trkpt>
      <trkpt lat="43.622180" lon="6.238160">
       <ele>503</ele>
       <time>2013-10-22T17:06:48Z</time>
      </trkpt>
      <trkpt lat="43.622230" lon="6.238290">
       <ele>504</ele>
       <time>2013-10-22T17:06:50Z</time>
      </trkpt>
      <trkpt lat="43.622260" lon="6.238430">
       <ele>504</ele>
       <time>2013-10-22T17:06:52Z</time>
      </trkpt>
      <trkpt lat="43.622230" lon="6.238710">
       <ele>506</ele>
       <time>2013-10-22T17:06:57Z</time>
      </trkpt>
      <trkpt lat="43.621960" lon="6.239720">
       <ele>510</ele>
       <time>2013-10-22T17:07:13Z</time>
      </trkpt>
      <trkpt lat="43.621840" lon="6.240030">
       <ele>513</ele>
       <time>2013-10-22T17:07:18Z</time>
      </trkpt>
      <trkpt lat="43.621700" lon="6.240270">
       <ele>512</ele>
       <time>2013-10-22T17:07:23Z</time>
      </trkpt>
      <trkpt lat="43.621440" lon="6.240560">
       <ele>512</ele>
       <time>2013-10-22T17:07:30Z</time>
      </trkpt>
      <trkpt lat="43.621380" lon="6.240660">
       <ele>512</ele>
       <time>2013-10-22T17:07:31Z</time>
      </trkpt>
      <trkpt lat="43.621330" lon="6.240890">
       <ele>513</ele>
       <time>2013-10-22T17:07:35Z</time>
      </trkpt>
      <trkpt lat="43.621380" lon="6.241160">
       <ele>515</ele>
       <time>2013-10-22T17:07:39Z</time>
      </trkpt>
      <trkpt lat="43.621570" lon="6.241860">
       <ele>521</ele>
       <time>2013-10-22T17:07:50Z</time>
      </trkpt>
      <trkpt lat="43.621620" lon="6.242140">
       <ele>522</ele>
       <time>2013-10-22T17:07:55Z</time>
      </trkpt>
      <trkpt lat="43.621590" lon="6.242420">
       <ele>523</ele>
       <time>2013-10-22T17:07:59Z</time>
      </trkpt>
      <trkpt lat="43.621440" lon="6.242950">
       <ele>525</ele>
       <time>2013-10-22T17:08:08Z</time>
      </trkpt>
      <trkpt lat="43.621440" lon="6.243090">
       <ele>525</ele>
       <time>2013-10-22T17:08:10Z</time>
      </trkpt>
      <trkpt lat="43.621550" lon="6.243470">
       <ele>528</ele>
       <time>2013-10-22T17:08:16Z</time>
      </trkpt>
      <trkpt lat="43.621620" lon="6.243580">
       <ele>530</ele>
       <time>2013-10-22T17:08:18Z</time>
      </trkpt>
      <trkpt lat="43.621780" lon="6.243770">
       <ele>532</ele>
       <time>2013-10-22T17:08:22Z</time>
      </trkpt>
      <trkpt lat="43.621830" lon="6.243890">
       <ele>534</ele>
       <time>2013-10-22T17:08:25Z</time>
      </trkpt>
      <trkpt lat="43.621860" lon="6.244020">
       <ele>534</ele>
       <time>2013-10-22T17:08:27Z</time>
      </trkpt>
      <trkpt lat="43.621860" lon="6.244290">
       <ele>536</ele>
       <time>2013-10-22T17:08:31Z</time>
      </trkpt>
      <trkpt lat="43.621680" lon="6.244710">
       <ele>536</ele>
       <time>2013-10-22T17:08:38Z</time>
      </trkpt>
      <trkpt lat="43.621470" lon="6.244990">
       <ele>535</ele>
       <time>2013-10-22T17:08:44Z</time>
      </trkpt>
      <trkpt lat="43.621020" lon="6.245510">
       <ele>538</ele>
       <time>2013-10-22T17:08:56Z</time>
      </trkpt>
      <trkpt lat="43.620880" lon="6.245770">
       <ele>540</ele>
       <time>2013-10-22T17:09:01Z</time>
      </trkpt>
      <trkpt lat="43.620850" lon="6.245900">
       <ele>540</ele>
       <time>2013-10-22T17:09:03Z</time>
      </trkpt>
      <trkpt lat="43.620860" lon="6.246190">
       <ele>541</ele>
       <time>2013-10-22T17:09:07Z</time>
      </trkpt>
      <trkpt lat="43.621010" lon="6.247070">
       <ele>544</ele>
       <time>2013-10-22T17:09:21Z</time>
      </trkpt>
      <trkpt lat="43.621050" lon="6.247220">
       <ele>546</ele>
       <time>2013-10-22T17:09:23Z</time>
      </trkpt>
      <trkpt lat="43.621120" lon="6.247340">
       <ele>546</ele>
       <time>2013-10-22T17:09:26Z</time>
      </trkpt>
      <trkpt lat="43.621200" lon="6.247430">
       <ele>546</ele>
       <time>2013-10-22T17:09:28Z</time>
      </trkpt>
      <trkpt lat="43.621300" lon="6.247470">
       <ele>547</ele>
       <time>2013-10-22T17:09:30Z</time>
      </trkpt>
      <trkpt lat="43.621390" lon="6.247480">
       <ele>547</ele>
       <time>2013-10-22T17:09:32Z</time>
      </trkpt>
      <trkpt lat="43.621490" lon="6.247450">
       <ele>547</ele>
       <time>2013-10-22T17:09:34Z</time>
      </trkpt>
      <trkpt lat="43.621600" lon="6.247390">
       <ele>548</ele>
       <time>2013-10-22T17:09:36Z</time>
      </trkpt>
      <trkpt lat="43.621840" lon="6.247140">
       <ele>547</ele>
       <time>2013-10-22T17:09:43Z</time>
      </trkpt>
      <trkpt lat="43.621940" lon="6.247110">
       <ele>547</ele>
       <time>2013-10-22T17:09:45Z</time>
      </trkpt>
      <trkpt lat="43.622040" lon="6.247120">
       <ele>547</ele>
       <time>2013-10-22T17:09:47Z</time>
      </trkpt>
      <trkpt lat="43.622120" lon="6.247170">
       <ele>549</ele>
       <time>2013-10-22T17:09:49Z</time>
      </trkpt>
      <trkpt lat="43.622180" lon="6.247250">
       <ele>549</ele>
       <time>2013-10-22T17:09:50Z</time>
      </trkpt>
      <trkpt lat="43.622230" lon="6.247370">
       <ele>550</ele>
       <time>2013-10-22T17:09:53Z</time>
      </trkpt>
      <trkpt lat="43.622280" lon="6.247670">
       <ele>552</ele>
       <time>2013-10-22T17:09:57Z</time>
      </trkpt>
      <trkpt lat="43.622230" lon="6.247960">
       <ele>554</ele>
       <time>2013-10-22T17:10:02Z</time>
      </trkpt>
      <trkpt lat="43.622180" lon="6.248080">
       <ele>554</ele>
       <time>2013-10-22T17:10:04Z</time>
      </trkpt>
      <trkpt lat="43.621920" lon="6.248390">
       <ele>553</ele>
       <time>2013-10-22T17:10:11Z</time>
      </trkpt>
      <trkpt lat="43.621840" lon="6.248510">
       <ele>555</ele>
       <time>2013-10-22T17:10:13Z</time>
      </trkpt>
      <trkpt lat="43.621790" lon="6.248650">
       <ele>552</ele>
       <time>2013-10-22T17:10:16Z</time>
      </trkpt>
      <trkpt lat="43.621780" lon="6.248800">
       <ele>554</ele>
       <time>2013-10-22T17:10:18Z</time>
      </trkpt>
      <trkpt lat="43.621840" lon="6.249310">
       <ele>559</ele>
       <time>2013-10-22T17:10:26Z</time>
      </trkpt>
      <trkpt lat="43.621830" lon="6.249720">
       <ele>561</ele>
       <time>2013-10-22T17:10:32Z</time>
      </trkpt>
      <trkpt lat="43.621710" lon="6.251100">
       <ele>563</ele>
       <time>2013-10-22T17:10:53Z</time>
      </trkpt>
      <trkpt lat="43.621550" lon="6.252340">
       <ele>567</ele>
       <time>2013-10-22T17:11:12Z</time>
      </trkpt>
      <trkpt lat="43.621470" lon="6.252690">
       <ele>567</ele>
       <time>2013-10-22T17:11:17Z</time>
      </trkpt>
      <trkpt lat="43.620970" lon="6.253980">
       <ele>562</ele>
       <time>2013-10-22T17:11:39Z</time>
      </trkpt>
      <trkpt lat="43.620650" lon="6.254930">
       <ele>561</ele>
       <time>2013-10-22T17:11:55Z</time>
      </trkpt>
      <trkpt lat="43.620570" lon="6.255080">
       <ele>561</ele>
       <time>2013-10-22T17:11:58Z</time>
      </trkpt>
      <trkpt lat="43.620390" lon="6.255340">
       <ele>560</ele>
       <time>2013-10-22T17:12:03Z</time>
      </trkpt>
      <trkpt lat="43.620330" lon="6.255490">
       <ele>561</ele>
       <time>2013-10-22T17:12:06Z</time>
      </trkpt>
      <trkpt lat="43.620220" lon="6.256150">
       <ele>562</ele>
       <time>2013-10-22T17:12:16Z</time>
      </trkpt>
      <trkpt lat="43.620060" lon="6.256690">
       <ele>562</ele>
       <time>2013-10-22T17:12:24Z</time>
      </trkpt>
      <trkpt lat="43.619650" lon="6.257400">
       <ele>559</ele>
       <time>2013-10-22T17:12:38Z</time>
      </trkpt>
      <trkpt lat="43.619190" lon="6.258140">
       <ele>551</ele>
       <time>2013-10-22T17:12:53Z</time>
      </trkpt>
      <trkpt lat="43.619080" lon="6.258290">
       <ele>551</ele>
       <time>2013-10-22T17:12:56Z</time>
      </trkpt>
      <trkpt lat="43.618850" lon="6.258540">
       <ele>549</ele>
       <time>2013-10-22T17:13:02Z</time>
      </trkpt>
      <trkpt lat="43.618480" lon="6.258840">
       <ele>548</ele>
       <time>2013-10-22T17:13:11Z</time>
      </trkpt>
      <trkpt lat="43.618370" lon="6.258950">
       <ele>547</ele>
       <time>2013-10-22T17:13:14Z</time>
      </trkpt>
      <trkpt lat="43.618270" lon="6.259080">
       <ele>548</ele>
       <time>2013-10-22T17:13:17Z</time>
      </trkpt>
      <trkpt lat="43.618190" lon="6.259220">
       <ele>548</ele>
       <time>2013-10-22T17:13:19Z</time>
      </trkpt>
      <trkpt lat="43.617900" lon="6.260170">
       <ele>549</ele>
       <time>2013-10-22T17:13:35Z</time>
      </trkpt>
      <trkpt lat="43.617800" lon="6.260560">
       <ele>549</ele>
       <time>2013-10-22T17:13:41Z</time>
      </trkpt>
      <trkpt lat="43.617660" lon="6.261740">
       <ele>553</ele>
       <time>2013-10-22T17:13:59Z</time>
      </trkpt>
      <trkpt lat="43.617610" lon="6.261920">
       <ele>553</ele>
       <time>2013-10-22T17:14:02Z</time>
      </trkpt>
      <trkpt lat="43.617370" lon="6.262350">
       <ele>553</ele>
       <time>2013-10-22T17:14:10Z</time>
      </trkpt>
      <trkpt lat="43.617310" lon="6.262500">
       <ele>553</ele>
       <time>2013-10-22T17:14:12Z</time>
      </trkpt>
      <trkpt lat="43.617260" lon="6.262840">
       <ele>553</ele>
       <time>2013-10-22T17:14:18Z</time>
      </trkpt>
      <trkpt lat="43.617290" lon="6.263620">
       <ele>553</ele>
       <time>2013-10-22T17:14:29Z</time>
      </trkpt>
      <trkpt lat="43.617210" lon="6.264030">
       <ele>556</ele>
       <time>2013-10-22T17:14:36Z</time>
      </trkpt>
      <trkpt lat="43.616630" lon="6.266090">
       <ele>565</ele>
       <time>2013-10-22T17:15:09Z</time>
      </trkpt>
      <trkpt lat="43.616610" lon="6.266420">
       <ele>566</ele>
       <time>2013-10-22T17:15:14Z</time>
      </trkpt>
      <trkpt lat="43.616680" lon="6.266930">
       <ele>569</ele>
       <time>2013-10-22T17:15:22Z</time>
      </trkpt>
      <trkpt lat="43.616680" lon="6.267120">
       <ele>570</ele>
       <time>2013-10-22T17:15:25Z</time>
      </trkpt>
      <trkpt lat="43.616570" lon="6.267830">
       <ele>573</ele>
       <time>2013-10-22T17:15:35Z</time>
      </trkpt>
      <trkpt lat="43.616530" lon="6.267980">
       <ele>575</ele>
       <time>2013-10-22T17:15:38Z</time>
      </trkpt>
      <trkpt lat="43.616470" lon="6.268120">
       <ele>574</ele>
       <time>2013-10-22T17:15:40Z</time>
      </trkpt>
      <trkpt lat="43.616310" lon="6.268340">
       <ele>576</ele>
       <time>2013-10-22T17:15:45Z</time>
      </trkpt>
      <trkpt lat="43.614940" lon="6.269720">
       <ele>579</ele>
       <time>2013-10-22T17:16:20Z</time>
      </trkpt>
      <trkpt lat="43.614310" lon="6.270420">
       <ele>576</ele>
       <time>2013-10-22T17:16:37Z</time>
      </trkpt>
      <trkpt lat="43.613810" lon="6.271340">
       <ele>574</ele>
       <time>2013-10-22T17:16:54Z</time>
      </trkpt>
      <trkpt lat="43.613090" lon="6.272180">
       <ele>567</ele>
       <time>2013-10-22T17:17:14Z</time>
      </trkpt>
      <trkpt lat="43.612820" lon="6.272580">
       <ele>565</ele>
       <time>2013-10-22T17:17:22Z</time>
      </trkpt>
      <trkpt lat="43.612350" lon="6.273010">
       <ele>562</ele>
       <time>2013-10-22T17:17:34Z</time>
      </trkpt>
      <trkpt lat="43.611800" lon="6.273380">
       <ele>559</ele>
       <time>2013-10-22T17:17:46Z</time>
      </trkpt>
      <trkpt lat="43.611710" lon="6.273400">
       <ele>559</ele>
       <time>2013-10-22T17:17:48Z</time>
      </trkpt>
      <trkpt lat="43.611640" lon="6.273370">
       <ele>559</ele>
       <time>2013-10-22T17:17:50Z</time>
      </trkpt>
      <trkpt lat="43.611560" lon="6.273310">
       <ele>559</ele>
       <time>2013-10-22T17:17:52Z</time>
      </trkpt>
      <trkpt lat="43.611460" lon="6.273120">
       <ele>561</ele>
       <time>2013-10-22T17:17:55Z</time>
      </trkpt>
      <trkpt lat="43.611380" lon="6.272880">
       <ele>561</ele>
       <time>2013-10-22T17:17:59Z</time>
      </trkpt>
      <trkpt lat="43.611370" lon="6.272740">
       <ele>561</ele>
       <time>2013-10-22T17:18:01Z</time>
      </trkpt>
      <trkpt lat="43.611400" lon="6.272440">
       <ele>563</ele>
       <time>2013-10-22T17:18:06Z</time>
      </trkpt>
      <trkpt lat="43.611430" lon="6.272290">
       <ele>565</ele>
       <time>2013-10-22T17:18:08Z</time>
      </trkpt>
      <trkpt lat="43.611560" lon="6.272040">
       <ele>562</ele>
       <time>2013-10-22T17:18:13Z</time>
      </trkpt>
      <trkpt lat="43.611820" lon="6.271680">
       <ele>562</ele>
       <time>2013-10-22T17:18:20Z</time>
      </trkpt>
      <trkpt lat="43.611960" lon="6.271390">
       <ele>563</ele>
       <time>2013-10-22T17:18:26Z</time>
      </trkpt>
      <trkpt lat="43.612200" lon="6.270810">
       <ele>562</ele>
       <time>2013-10-22T17:18:36Z</time>
      </trkpt>
      <trkpt lat="43.612250" lon="6.270660">
       <ele>562</ele>
       <time>2013-10-22T17:18:38Z</time>
      </trkpt>
      <trkpt lat="43.612240" lon="6.270360">
       <ele>562</ele>
       <time>2013-10-22T17:18:43Z</time>
      </trkpt>
      <trkpt lat="43.612140" lon="6.270020">
       <ele>562</ele>
       <time>2013-10-22T17:18:48Z</time>
      </trkpt>
      <trkpt lat="43.611990" lon="6.269730">
       <ele>564</ele>
       <time>2013-10-22T17:18:53Z</time>
      </trkpt>
      <trkpt lat="43.611610" lon="6.269180">
       <ele>566</ele>
       <time>2013-10-22T17:19:05Z</time>
      </trkpt>
      <trkpt lat="43.611400" lon="6.268920">
       <ele>568</ele>
       <time>2013-10-22T17:19:11Z</time>
      </trkpt>
      <trkpt lat="43.611090" lon="6.268620">
       <ele>569</ele>
       <time>2013-10-22T17:19:19Z</time>
      </trkpt>
      <trkpt lat="43.610980" lon="6.268570">
       <ele>569</ele>
       <time>2013-10-22T17:19:21Z</time>
      </trkpt>
      <trkpt lat="43.610640" lon="6.268490">
       <ele>575</ele>
       <time>2013-10-22T17:19:28Z</time>
      </trkpt>
      <trkpt lat="43.610530" lon="6.268430">
       <ele>571</ele>
       <time>2013-10-22T17:19:31Z</time>
      </trkpt>
      <trkpt lat="43.610190" lon="6.268160">
       <ele>569</ele>
       <time>2013-10-22T17:19:39Z</time>
      </trkpt>
      <trkpt lat="43.609690" lon="6.267890">
       <ele>565</ele>
       <time>2013-10-22T17:19:50Z</time>
      </trkpt>
      <trkpt lat="43.609450" lon="6.267800">
       <ele>563</ele>
       <time>2013-10-22T17:19:55Z</time>
      </trkpt>
      <trkpt lat="43.609340" lon="6.267810">
       <ele>563</ele>
       <time>2013-10-22T17:19:57Z</time>
      </trkpt>
      <trkpt lat="43.609230" lon="6.267860">
       <ele>561</ele>
       <time>2013-10-22T17:20:00Z</time>
      </trkpt>
      <trkpt lat="43.609130" lon="6.267930">
       <ele>565</ele>
       <time>2013-10-22T17:20:02Z</time>
      </trkpt>
      <trkpt lat="43.608740" lon="6.268390">
       <ele>565</ele>
       <time>2013-10-22T17:20:13Z</time>
      </trkpt>
      <trkpt lat="43.608070" lon="6.268960">
       <ele>569</ele>
       <time>2013-10-22T17:20:29Z</time>
      </trkpt>
      <trkpt lat="43.607920" lon="6.269180">
       <ele>575</ele>
       <time>2013-10-22T17:20:33Z</time>
      </trkpt>
      <trkpt lat="43.607760" lon="6.269710">
       <ele>576</ele>
       <time>2013-10-22T17:20:42Z</time>
      </trkpt>
      <trkpt lat="43.607710" lon="6.269810">
       <ele>576</ele>
       <time>2013-10-22T17:20:44Z</time>
      </trkpt>
      <trkpt lat="43.607630" lon="6.269870">
       <ele>573</ele>
       <time>2013-10-22T17:20:46Z</time>
      </trkpt>
      <trkpt lat="43.607570" lon="6.269880">
       <ele>573</ele>
       <time>2013-10-22T17:20:47Z</time>
      </trkpt>
      <trkpt lat="43.607490" lon="6.269850">
       <ele>569</ele>
       <time>2013-10-22T17:20:49Z</time>
      </trkpt>
      <trkpt lat="43.607330" lon="6.269610">
       <ele>564</ele>
       <time>2013-10-22T17:20:54Z</time>
      </trkpt>
      <trkpt lat="43.607230" lon="6.269560">
       <ele>561</ele>
       <time>2013-10-22T17:20:56Z</time>
      </trkpt>
      <trkpt lat="43.607150" lon="6.269550">
       <ele>561</ele>
       <time>2013-10-22T17:20:58Z</time>
      </trkpt>
      <trkpt lat="43.607040" lon="6.269580">
       <ele>557</ele>
       <time>2013-10-22T17:21:00Z</time>
      </trkpt>
      <trkpt lat="43.606800" lon="6.269700">
       <ele>557</ele>
       <time>2013-10-22T17:21:05Z</time>
      </trkpt>
      <trkpt lat="43.606680" lon="6.269780">
       <ele>557</ele>
       <time>2013-10-22T17:21:08Z</time>
      </trkpt>
      <trkpt lat="43.606480" lon="6.269980">
       <ele>559</ele>
       <time>2013-10-22T17:21:13Z</time>
      </trkpt>
      <trkpt lat="43.606380" lon="6.270110">
       <ele>559</ele>
       <time>2013-10-22T17:21:16Z</time>
      </trkpt>
      <trkpt lat="43.605940" lon="6.270810">
       <ele>568</ele>
       <time>2013-10-22T17:21:30Z</time>
      </trkpt>
      <trkpt lat="43.605880" lon="6.270960">
       <ele>568</ele>
       <time>2013-10-22T17:21:32Z</time>
      </trkpt>
      <trkpt lat="43.605850" lon="6.271110">
       <ele>571</ele>
       <time>2013-10-22T17:21:35Z</time>
      </trkpt>
      <trkpt lat="43.605800" lon="6.271730">
       <ele>578</ele>
       <time>2013-10-22T17:21:44Z</time>
      </trkpt>
      <trkpt lat="43.605750" lon="6.271870">
       <ele>582</ele>
       <time>2013-10-22T17:21:46Z</time>
      </trkpt>
      <trkpt lat="43.605590" lon="6.272130">
       <ele>577</ele>
       <time>2013-10-22T17:21:52Z</time>
      </trkpt>
      <trkpt lat="43.605400" lon="6.272540">
       <ele>573</ele>
       <time>2013-10-22T17:21:59Z</time>
      </trkpt>
      <trkpt lat="43.605320" lon="6.272670">
       <ele>579</ele>
       <time>2013-10-22T17:22:01Z</time>
      </trkpt>
      <trkpt lat="43.605120" lon="6.272870">
       <ele>573</ele>
       <time>2013-10-22T17:22:07Z</time>
      </trkpt>
      <trkpt lat="43.605040" lon="6.272980">
       <ele>580</ele>
       <time>2013-10-22T17:22:09Z</time>
      </trkpt>
      <trkpt lat="43.604850" lon="6.273320">
       <ele>581</ele>
       <time>2013-10-22T17:22:15Z</time>
      </trkpt>
      <trkpt lat="43.604750" lon="6.273390">
       <ele>581</ele>
       <time>2013-10-22T17:22:18Z</time>
      </trkpt>
      <trkpt lat="43.604660" lon="6.273420">
       <ele>581</ele>
       <time>2013-10-22T17:22:20Z</time>
      </trkpt>
      <trkpt lat="43.604320" lon="6.273430">
       <ele>575</ele>
       <time>2013-10-22T17:22:27Z</time>
      </trkpt>
      <trkpt lat="43.604090" lon="6.273520">
       <ele>575</ele>
       <time>2013-10-22T17:22:32Z</time>
      </trkpt>
      <trkpt lat="43.604000" lon="6.273600">
       <ele>569</ele>
       <time>2013-10-22T17:22:34Z</time>
      </trkpt>
      <trkpt lat="43.603930" lon="6.273710">
       <ele>569</ele>
       <time>2013-10-22T17:22:36Z</time>
      </trkpt>
      <trkpt lat="43.603870" lon="6.273850">
       <ele>574</ele>
       <time>2013-10-22T17:22:38Z</time>
      </trkpt>
      <trkpt lat="43.603710" lon="6.274870">
       <ele>583</ele>
       <time>2013-10-22T17:22:54Z</time>
      </trkpt>
      <trkpt lat="43.603600" lon="6.275130">
       <ele>583</ele>
       <time>2013-10-22T17:22:59Z</time>
      </trkpt>
      <trkpt lat="43.603230" lon="6.275590">
       <ele>583</ele>
       <time>2013-10-22T17:23:09Z</time>
      </trkpt>
      <trkpt lat="43.602810" lon="6.276200">
       <ele>580</ele>
       <time>2013-10-22T17:23:22Z</time>
      </trkpt>
      <trkpt lat="43.602420" lon="6.276650">
       <ele>582</ele>
       <time>2013-10-22T17:23:32Z</time>
      </trkpt>
      <trkpt lat="43.602210" lon="6.276980">
       <ele>580</ele>
       <time>2013-10-22T17:23:39Z</time>
      </trkpt>
      <trkpt lat="43.601860" lon="6.277670">
       <ele>584</ele>
       <time>2013-10-22T17:23:51Z</time>
      </trkpt>
      <trkpt lat="43.601740" lon="6.278000">
       <ele>580</ele>
       <time>2013-10-22T17:23:57Z</time>
      </trkpt>
      <trkpt lat="43.601710" lon="6.278330">
       <ele>582</ele>
       <time>2013-10-22T17:24:02Z</time>
      </trkpt>
      <trkpt lat="43.601810" lon="6.278920">
       <ele>593</ele>
       <time>2013-10-22T17:24:11Z</time>
      </trkpt>
      <trkpt lat="43.601630" lon="6.279870">
       <ele>587</ele>
       <time>2013-10-22T17:24:26Z</time>
      </trkpt>
      <trkpt lat="43.601570" lon="6.280030">
       <ele>587</ele>
       <time>2013-10-22T17:24:28Z</time>
      </trkpt>
      <trkpt lat="43.601490" lon="6.280180">
       <ele>581</ele>
       <time>2013-10-22T17:24:31Z</time>
      </trkpt>
      <trkpt lat="43.601080" lon="6.280690">
       <ele>579</ele>
       <time>2013-10-22T17:24:43Z</time>
      </trkpt>
      <trkpt lat="43.600840" lon="6.280880">
       <ele>578</ele>
       <time>2013-10-22T17:24:48Z</time>
      </trkpt>
      <trkpt lat="43.600680" lon="6.281120">
       <ele>578</ele>
       <time>2013-10-22T17:24:53Z</time>
      </trkpt>
      <trkpt lat="43.600630" lon="6.281260">
       <ele>579</ele>
       <time>2013-10-22T17:24:56Z</time>
      </trkpt>
      <trkpt lat="43.600590" lon="6.281600">
       <ele>579</ele>
       <time>2013-10-22T17:25:01Z</time>
      </trkpt>
      <trkpt lat="43.600620" lon="6.281770">
       <ele>579</ele>
       <time>2013-10-22T17:25:03Z</time>
      </trkpt>
      <trkpt lat="43.600680" lon="6.281930">
       <ele>579</ele>
       <time>2013-10-22T17:25:06Z</time>
      </trkpt>
      <trkpt lat="43.600840" lon="6.282230">
       <ele>583</ele>
       <time>2013-10-22T17:25:12Z</time>
      </trkpt>
      <trkpt lat="43.601040" lon="6.282510">
       <ele>586</ele>
       <time>2013-10-22T17:25:18Z</time>
      </trkpt>
      <trkpt lat="43.601150" lon="6.282610">
       <ele>586</ele>
       <time>2013-10-22T17:25:20Z</time>
      </trkpt>
      <trkpt lat="43.601460" lon="6.282820">
       <ele>590</ele>
       <time>2013-10-22T17:25:28Z</time>
      </trkpt>
      <trkpt lat="43.601540" lon="6.282910">
       <ele>595</ele>
       <time>2013-10-22T17:25:30Z</time>
      </trkpt>
      <trkpt lat="43.601580" lon="6.283020">
       <ele>594</ele>
       <time>2013-10-22T17:25:32Z</time>
      </trkpt>
      <trkpt lat="43.601600" lon="6.283150">
       <ele>594</ele>
       <time>2013-10-22T17:25:34Z</time>
      </trkpt>
      <trkpt lat="43.601490" lon="6.283700">
       <ele>587</ele>
       <time>2013-10-22T17:25:42Z</time>
      </trkpt>
      <trkpt lat="43.601490" lon="6.283840">
       <ele>588</ele>
       <time>2013-10-22T17:25:44Z</time>
      </trkpt>
      <trkpt lat="43.601550" lon="6.284310">
       <ele>594</ele>
       <time>2013-10-22T17:25:51Z</time>
      </trkpt>
      <trkpt lat="43.601490" lon="6.284600">
       <ele>591</ele>
       <time>2013-10-22T17:25:56Z</time>
      </trkpt>
      <trkpt lat="43.601180" lon="6.285120">
       <ele>589</ele>
       <time>2013-10-22T17:26:06Z</time>
      </trkpt>
      <trkpt lat="43.601120" lon="6.285280">
       <ele>590</ele>
       <time>2013-10-22T17:26:09Z</time>
      </trkpt>
      <trkpt lat="43.601080" lon="6.285470">
       <ele>591</ele>
       <time>2013-10-22T17:26:12Z</time>
      </trkpt>
      <trkpt lat="43.601050" lon="6.285870">
       <ele>593</ele>
       <time>2013-10-22T17:26:18Z</time>
      </trkpt>
      <trkpt lat="43.601040" lon="6.286290">
       <ele>595</ele>
       <time>2013-10-22T17:26:24Z</time>
      </trkpt>
      <trkpt lat="43.601080" lon="6.287310">
       <ele>600</ele>
       <time>2013-10-22T17:26:39Z</time>
      </trkpt>
      <trkpt lat="43.601050" lon="6.287660">
       <ele>606</ele>
       <time>2013-10-22T17:26:45Z</time>
      </trkpt>
      <trkpt lat="43.601020" lon="6.287810">
       <ele>606</ele>
       <time>2013-10-22T17:26:47Z</time>
      </trkpt>
      <trkpt lat="43.600960" lon="6.287920">
       <ele>601</ele>
       <time>2013-10-22T17:26:49Z</time>
      </trkpt>
      <trkpt lat="43.600860" lon="6.288010">
       <ele>601</ele>
       <time>2013-10-22T17:26:52Z</time>
      </trkpt>
      <trkpt lat="43.600760" lon="6.288070">
       <ele>601</ele>
       <time>2013-10-22T17:26:54Z</time>
      </trkpt>
      <trkpt lat="43.600550" lon="6.288150">
       <ele>594</ele>
       <time>2013-10-22T17:26:58Z</time>
      </trkpt>
      <trkpt lat="43.600440" lon="6.288210">
       <ele>597</ele>
       <time>2013-10-22T17:27:01Z</time>
      </trkpt>
      <trkpt lat="43.600340" lon="6.288300">
       <ele>591</ele>
       <time>2013-10-22T17:27:03Z</time>
      </trkpt>
      <trkpt lat="43.599200" lon="6.289960">
       <ele>603</ele>
       <time>2013-10-22T17:27:38Z</time>
      </trkpt>
      <trkpt lat="43.599120" lon="6.290040">
       <ele>603</ele>
       <time>2013-10-22T17:27:40Z</time>
      </trkpt>
      <trkpt lat="43.599030" lon="6.290080">
       <ele>603</ele>
       <time>2013-10-22T17:27:42Z</time>
      </trkpt>
      <trkpt lat="43.598930" lon="6.290080">
       <ele>605</ele>
       <time>2013-10-22T17:27:44Z</time>
      </trkpt>
      <trkpt lat="43.598820" lon="6.290050">
       <ele>605</ele>
       <time>2013-10-22T17:27:46Z</time>
      </trkpt>
      <trkpt lat="43.598590" lon="6.289930">
       <ele>607</ele>
       <time>2013-10-22T17:27:51Z</time>
      </trkpt>
      <trkpt lat="43.598480" lon="6.289900">
       <ele>607</ele>
       <time>2013-10-22T17:27:53Z</time>
      </trkpt>
      <trkpt lat="43.597930" lon="6.289850">
       <ele>602</ele>
       <time>2013-10-22T17:28:05Z</time>
      </trkpt>
      <trkpt lat="43.597800" lon="6.289820">
       <ele>603</ele>
       <time>2013-10-22T17:28:08Z</time>
      </trkpt>
      <trkpt lat="43.597320" lon="6.289580">
       <ele>595</ele>
       <time>2013-10-22T17:28:18Z</time>
      </trkpt>
      <trkpt lat="43.597190" lon="6.289560">
       <ele>595</ele>
       <time>2013-10-22T17:28:21Z</time>
      </trkpt>
      <trkpt lat="43.596930" lon="6.289550">
       <ele>594</ele>
       <time>2013-10-22T17:28:26Z</time>
      </trkpt>
      <trkpt lat="43.596210" lon="6.289440">
       <ele>589</ele>
       <time>2013-10-22T17:28:41Z</time>
      </trkpt>
      <trkpt lat="43.596060" lon="6.289440">
       <ele>589</ele>
       <time>2013-10-22T17:28:44Z</time>
      </trkpt>
      <trkpt lat="43.595920" lon="6.289460">
       <ele>586</ele>
       <time>2013-10-22T17:28:47Z</time>
      </trkpt>
      <trkpt lat="43.595650" lon="6.289540">
       <ele>584</ele>
       <time>2013-10-22T17:28:53Z</time>
      </trkpt>
      <trkpt lat="43.595500" lon="6.289610">
       <ele>589</ele>
       <time>2013-10-22T17:28:56Z</time>
      </trkpt>
      <trkpt lat="43.595280" lon="6.289810">
       <ele>587</ele>
       <time>2013-10-22T17:29:02Z</time>
      </trkpt>
      <trkpt lat="43.595180" lon="6.289940">
       <ele>592</ele>
       <time>2013-10-22T17:29:05Z</time>
      </trkpt>
      <trkpt lat="43.594760" lon="6.290720">
       <ele>599</ele>
       <time>2013-10-22T17:29:19Z</time>
      </trkpt>
      <trkpt lat="43.594650" lon="6.290860">
       <ele>599</ele>
       <time>2013-10-22T17:29:22Z</time>
      </trkpt>
      <trkpt lat="43.593860" lon="6.291610">
       <ele>594</ele>
       <time>2013-10-22T17:29:42Z</time>
      </trkpt>
      <trkpt lat="43.593630" lon="6.291880">
       <ele>592</ele>
       <time>2013-10-22T17:29:49Z</time>
      </trkpt>
      <trkpt lat="43.593520" lon="6.292040">
       <ele>592</ele>
       <time>2013-10-22T17:29:52Z</time>
      </trkpt>
      <trkpt lat="43.593330" lon="6.292550">
       <ele>592</ele>
       <time>2013-10-22T17:30:00Z</time>
      </trkpt>
      <trkpt lat="43.593250" lon="6.292930">
       <ele>598</ele>
       <time>2013-10-22T17:30:06Z</time>
      </trkpt>
      <trkpt lat="43.593230" lon="6.293110">
       <ele>598</ele>
       <time>2013-10-22T17:30:09Z</time>
      </trkpt>
      <trkpt lat="43.593220" lon="6.293910">
       <ele>603</ele>
       <time>2013-10-22T17:30:21Z</time>
      </trkpt>
      <trkpt lat="43.593230" lon="6.294520">
       <ele>603</ele>
       <time>2013-10-22T17:30:30Z</time>
      </trkpt>
      <trkpt lat="43.593170" lon="6.295210">
       <ele>596</ele>
       <time>2013-10-22T17:30:41Z</time>
      </trkpt>
      <trkpt lat="43.593180" lon="6.295360">
       <ele>596</ele>
       <time>2013-10-22T17:30:43Z</time>
      </trkpt>
      <trkpt lat="43.593220" lon="6.295480">
       <ele>600</ele>
       <time>2013-10-22T17:30:45Z</time>
      </trkpt>
      <trkpt lat="43.593280" lon="6.295590">
       <ele>600</ele>
       <time>2013-10-22T17:30:47Z</time>
      </trkpt>
      <trkpt lat="43.593360" lon="6.295670">
       <ele>600</ele>
       <time>2013-10-22T17:30:49Z</time>
      </trkpt>
      <trkpt lat="43.593810" lon="6.295950">
       <ele>608</ele>
       <time>2013-10-22T17:30:59Z</time>
      </trkpt>
      <trkpt lat="43.593890" lon="6.296040">
       <ele>608</ele>
       <time>2013-10-22T17:31:01Z</time>
      </trkpt>
      <trkpt lat="43.593810" lon="6.296060">
       <ele>608</ele>
       <time>2013-10-22T17:31:03Z</time>
      </trkpt>
      <trkpt lat="43.593760" lon="6.296140">
       <ele>608</ele>
       <time>2013-10-22T17:31:05Z</time>
      </trkpt>
      <trkpt lat="43.593760" lon="6.296230">
       <ele>608</ele>
       <time>2013-10-22T17:31:06Z</time>
      </trkpt>
      <trkpt lat="43.593780" lon="6.296310">
       <ele>609</ele>
       <time>2013-10-22T17:31:07Z</time>
      </trkpt>
      <trkpt lat="43.593880" lon="6.296360">
       <ele>609</ele>
       <time>2013-10-22T17:31:10Z</time>
      </trkpt>
      <trkpt lat="43.593960" lon="6.296310">
       <ele>609</ele>
       <time>2013-10-22T17:31:11Z</time>
      </trkpt>
      <trkpt lat="43.593990" lon="6.296220">
       <ele>608</ele>
       <time>2013-10-22T17:31:13Z</time>
      </trkpt>
      <trkpt lat="43.593970" lon="6.296130">
       <ele>608</ele>
       <time>2013-10-22T17:31:14Z</time>
      </trkpt>
      <trkpt lat="43.594600" lon="6.295930">
       <ele>620</ele>
       <time>2013-10-22T17:31:28Z</time>
      </trkpt>
      <trkpt lat="43.595180" lon="6.295910">
       <ele>625</ele>
       <time>2013-10-22T17:31:40Z</time>
      </trkpt>
      <trkpt lat="43.595650" lon="6.296070">
       <ele>624</ele>
       <time>2013-10-22T17:31:50Z</time>
      </trkpt>
      <trkpt lat="43.595920" lon="6.296340">
       <ele>625</ele>
       <time>2013-10-22T17:31:57Z</time>
      </trkpt>
      <trkpt lat="43.596130" lon="6.296730">
       <ele>625</ele>
       <time>2013-10-22T17:32:04Z</time>
      </trkpt>
      <trkpt lat="43.596180" lon="6.297200">
       <ele>627</ele>
       <time>2013-10-22T17:32:11Z</time>
      </trkpt>
      <trkpt lat="43.595370" lon="6.300150">
       <ele>648</ele>
       <time>2013-10-22T17:32:58Z</time>
      </trkpt>
      <trkpt lat="43.595050" lon="6.301570">
       <ele>647</ele>
       <time>2013-10-22T17:33:21Z</time>
      </trkpt>
      <trkpt lat="43.594760" lon="6.303000">
       <ele>651</ele>
       <time>2013-10-22T17:33:43Z</time>
      </trkpt>
      <trkpt lat="43.594700" lon="6.303980">
       <ele>656</ele>
       <time>2013-10-22T17:33:58Z</time>
      </trkpt>
      <trkpt lat="43.594460" lon="6.304770">
       <ele>656</ele>
       <time>2013-10-22T17:34:11Z</time>
      </trkpt>
      <trkpt lat="43.594260" lon="6.306130">
       <ele>653</ele>
       <time>2013-10-22T17:34:32Z</time>
      </trkpt>
      <trkpt lat="43.594100" lon="6.306370">
       <ele>653</ele>
       <time>2013-10-22T17:34:36Z</time>
      </trkpt>
      <trkpt lat="43.593860" lon="6.306510">
       <ele>652</ele>
       <time>2013-10-22T17:34:42Z</time>
      </trkpt>
      <trkpt lat="43.593680" lon="6.306750">
       <ele>652</ele>
       <time>2013-10-22T17:34:47Z</time>
      </trkpt>
      <trkpt lat="43.593520" lon="6.307240">
       <ele>653</ele>
       <time>2013-10-22T17:34:55Z</time>
      </trkpt>
      <trkpt lat="43.593170" lon="6.307790">
       <ele>651</ele>
       <time>2013-10-22T17:35:06Z</time>
      </trkpt>
      <trkpt lat="43.592990" lon="6.308170">
       <ele>651</ele>
       <time>2013-10-22T17:35:13Z</time>
      </trkpt>
      <trkpt lat="43.592910" lon="6.308890">
       <ele>654</ele>
       <time>2013-10-22T17:35:24Z</time>
      </trkpt>
      <trkpt lat="43.592940" lon="6.310130">
       <ele>661</ele>
       <time>2013-10-22T17:35:43Z</time>
      </trkpt>
      <trkpt lat="43.592520" lon="6.311500">
       <ele>666</ele>
       <time>2013-10-22T17:36:05Z</time>
      </trkpt>
      <trkpt lat="43.592560" lon="6.311610">
       <ele>668</ele>
       <time>2013-10-22T17:36:07Z</time>
      </trkpt>
      <trkpt lat="43.592560" lon="6.312400">
       <ele>671</ele>
       <time>2013-10-22T17:36:19Z</time>
      </trkpt>
      <trkpt lat="43.592520" lon="6.312750">
       <ele>672</ele>
       <time>2013-10-22T17:36:24Z</time>
      </trkpt>
      <trkpt lat="43.592410" lon="6.313230">
       <ele>673</ele>
       <time>2013-10-22T17:36:31Z</time>
      </trkpt>
      <trkpt lat="43.592430" lon="6.313480">
       <ele>672</ele>
       <time>2013-10-22T17:36:35Z</time>
      </trkpt>
      <trkpt lat="43.592670" lon="6.314080">
       <ele>671</ele>
       <time>2013-10-22T17:36:46Z</time>
      </trkpt>
      <trkpt lat="43.592850" lon="6.314700">
       <ele>668</ele>
       <time>2013-10-22T17:36:56Z</time>
      </trkpt>
      <trkpt lat="43.592860" lon="6.314860">
       <ele>668</ele>
       <time>2013-10-22T17:36:58Z</time>
      </trkpt>
      <trkpt lat="43.592860" lon="6.315020">
       <ele>667</ele>
       <time>2013-10-22T17:37:00Z</time>
      </trkpt>
      <trkpt lat="43.592750" lon="6.315650">
       <ele>666</ele>
       <time>2013-10-22T17:37:10Z</time>
      </trkpt>
      <trkpt lat="43.592720" lon="6.315980">
       <ele>666</ele>
       <time>2013-10-22T17:37:15Z</time>
      </trkpt>
      <trkpt lat="43.592700" lon="6.316540">
       <ele>667</ele>
       <time>2013-10-22T17:37:24Z</time>
      </trkpt>
      <trkpt lat="43.592730" lon="6.317590">
       <ele>666</ele>
       <time>2013-10-22T17:37:39Z</time>
      </trkpt>
      <trkpt lat="43.592700" lon="6.318230">
       <ele>666</ele>
       <time>2013-10-22T17:37:49Z</time>
      </trkpt>
      <trkpt lat="43.592730" lon="6.318610">
       <ele>666</ele>
       <time>2013-10-22T17:37:55Z</time>
      </trkpt>
      <trkpt lat="43.592970" lon="6.320000">
       <ele>672</ele>
       <time>2013-10-22T17:38:16Z</time>
      </trkpt>
      <trkpt lat="43.593360" lon="6.321990">
       <ele>666</ele>
       <time>2013-10-22T17:38:47Z</time>
      </trkpt>
      <trkpt lat="43.593440" lon="6.322480">
       <ele>663</ele>
       <time>2013-10-22T17:38:55Z</time>
      </trkpt>
      <trkpt lat="43.593490" lon="6.322610">
       <ele>666</ele>
       <time>2013-10-22T17:38:57Z</time>
      </trkpt>
      <trkpt lat="43.593570" lon="6.322710">
       <ele>664</ele>
       <time>2013-10-22T17:38:59Z</time>
      </trkpt>
      <trkpt lat="43.593670" lon="6.322790">
       <ele>664</ele>
       <time>2013-10-22T17:39:01Z</time>
      </trkpt>
      <trkpt lat="43.594310" lon="6.323190">
       <ele>673</ele>
       <time>2013-10-22T17:39:16Z</time>
      </trkpt>
      <trkpt lat="43.594390" lon="6.323280">
       <ele>672</ele>
       <time>2013-10-22T17:39:18Z</time>
      </trkpt>
      <trkpt lat="43.594450" lon="6.323380">
       <ele>672</ele>
       <time>2013-10-22T17:39:20Z</time>
      </trkpt>
      <trkpt lat="43.594460" lon="6.323500">
       <ele>671</ele>
       <time>2013-10-22T17:39:22Z</time>
      </trkpt>
      <trkpt lat="43.594390" lon="6.323730">
       <ele>671</ele>
       <time>2013-10-22T17:39:26Z</time>
      </trkpt>
      <trkpt lat="43.594200" lon="6.324130">
       <ele>667</ele>
       <time>2013-10-22T17:39:33Z</time>
      </trkpt>
      <trkpt lat="43.594150" lon="6.324280">
       <ele>667</ele>
       <time>2013-10-22T17:39:35Z</time>
      </trkpt>
      <trkpt lat="43.594130" lon="6.324590">
       <ele>668</ele>
       <time>2013-10-22T17:39:40Z</time>
      </trkpt>
      <trkpt lat="43.594150" lon="6.324730">
       <ele>668</ele>
       <time>2013-10-22T17:39:42Z</time>
      </trkpt>
      <trkpt lat="43.594250" lon="6.325020">
       <ele>668</ele>
       <time>2013-10-22T17:39:47Z</time>
      </trkpt>
      <trkpt lat="43.594630" lon="6.326060">
       <ele>675</ele>
       <time>2013-10-22T17:40:04Z</time>
      </trkpt>
      <trkpt lat="43.594810" lon="6.326330">
       <ele>672</ele>
       <time>2013-10-22T17:40:10Z</time>
      </trkpt>
      <trkpt lat="43.594920" lon="6.326430">
       <ele>680</ele>
       <time>2013-10-22T17:40:13Z</time>
      </trkpt>
      <trkpt lat="43.595600" lon="6.326930">
       <ele>695</ele>
       <time>2013-10-22T17:40:29Z</time>
      </trkpt>
      <trkpt lat="43.595680" lon="6.327010">
       <ele>695</ele>
       <time>2013-10-22T17:40:31Z</time>
      </trkpt>
      <trkpt lat="43.595730" lon="6.327110">
       <ele>703</ele>
       <time>2013-10-22T17:40:33Z</time>
      </trkpt>
      <trkpt lat="43.595760" lon="6.327220">
       <ele>703</ele>
       <time>2013-10-22T17:40:34Z</time>
      </trkpt>
      <trkpt lat="43.595740" lon="6.327440">
       <ele>703</ele>
       <time>2013-10-22T17:40:38Z</time>
      </trkpt>
      <trkpt lat="43.595710" lon="6.327550">
       <ele>703</ele>
       <time>2013-10-22T17:40:39Z</time>
      </trkpt>
      <trkpt lat="43.595390" lon="6.328220">
       <ele>687</ele>
       <time>2013-10-22T17:40:51Z</time>
      </trkpt>
      <trkpt lat="43.595340" lon="6.328430">
       <ele>687</ele>
       <time>2013-10-22T17:40:55Z</time>
      </trkpt>
      <trkpt lat="43.595360" lon="6.328520">
       <ele>688</ele>
       <time>2013-10-22T17:40:56Z</time>
      </trkpt>
      <trkpt lat="43.595400" lon="6.328600">
       <ele>688</ele>
       <time>2013-10-22T17:40:58Z</time>
      </trkpt>
      <trkpt lat="43.595710" lon="6.328980">
       <ele>704</ele>
       <time>2013-10-22T17:41:06Z</time>
      </trkpt>
      <trkpt lat="43.595790" lon="6.329050">
       <ele>703</ele>
       <time>2013-10-22T17:41:08Z</time>
      </trkpt>
      <trkpt lat="43.596000" lon="6.329140">
       <ele>709</ele>
       <time>2013-10-22T17:41:13Z</time>
      </trkpt>
      <trkpt lat="43.596350" lon="6.329210">
       <ele>714</ele>
       <time>2013-10-22T17:41:20Z</time>
      </trkpt>
      <trkpt lat="43.596580" lon="6.329330">
       <ele>714</ele>
       <time>2013-10-22T17:41:25Z</time>
      </trkpt>
      <trkpt lat="43.597480" lon="6.330100">
       <ele>711</ele>
       <time>2013-10-22T17:41:47Z</time>
      </trkpt>
      <trkpt lat="43.597720" lon="6.330360">
       <ele>710</ele>
       <time>2013-10-22T17:41:54Z</time>
      </trkpt>
      <trkpt lat="43.597820" lon="6.330580">
       <ele>709</ele>
       <time>2013-10-22T17:41:57Z</time>
      </trkpt>
      <trkpt lat="43.597870" lon="6.330990">
       <ele>708</ele>
       <time>2013-10-22T17:42:04Z</time>
      </trkpt>
      <trkpt lat="43.597880" lon="6.331580">
       <ele>707</ele>
       <time>2013-10-22T17:42:13Z</time>
      </trkpt>
      <trkpt lat="43.597960" lon="6.332010">
       <ele>706</ele>
       <time>2013-10-22T17:42:19Z</time>
      </trkpt>
      <trkpt lat="43.598960" lon="6.333980">
       <ele>700</ele>
       <time>2013-10-22T17:42:55Z</time>
      </trkpt>
      <trkpt lat="43.600020" lon="6.335970">
       <ele>690</ele>
       <time>2013-10-22T17:43:32Z</time>
      </trkpt>
      <trkpt lat="43.600360" lon="6.336750">
       <ele>689</ele>
       <time>2013-10-22T17:43:46Z</time>
      </trkpt>
      <trkpt lat="43.600670" lon="6.337590">
       <ele>690</ele>
       <time>2013-10-22T17:44:00Z</time>
      </trkpt>
      <trkpt lat="43.600800" lon="6.338190">
       <ele>689</ele>
       <time>2013-10-22T17:44:10Z</time>
      </trkpt>
      <trkpt lat="43.600890" lon="6.339050">
       <ele>690</ele>
       <time>2013-10-22T17:44:23Z</time>
      </trkpt>
      <trkpt lat="43.600920" lon="6.339500">
       <ele>690</ele>
       <time>2013-10-22T17:44:29Z</time>
      </trkpt>
      <trkpt lat="43.600910" lon="6.340600">
       <ele>686</ele>
       <time>2013-10-22T17:44:46Z</time>
      </trkpt>
      <trkpt lat="43.600990" lon="6.341840">
       <ele>682</ele>
       <time>2013-10-22T17:45:05Z</time>
      </trkpt>
      <trkpt lat="43.600990" lon="6.342150">
       <ele>682</ele>
       <time>2013-10-22T17:45:09Z</time>
      </trkpt>
      <trkpt lat="43.600860" lon="6.342820">
       <ele>684</ele>
       <time>2013-10-22T17:45:20Z</time>
      </trkpt>
      <trkpt lat="43.600860" lon="6.343000">
       <ele>684</ele>
       <time>2013-10-22T17:45:22Z</time>
      </trkpt>
      <trkpt lat="43.600920" lon="6.343360">
       <ele>685</ele>
       <time>2013-10-22T17:45:28Z</time>
      </trkpt>
      <trkpt lat="43.601120" lon="6.343880">
       <ele>683</ele>
       <time>2013-10-22T17:45:37Z</time>
      </trkpt>
      <trkpt lat="43.601210" lon="6.344220">
       <ele>683</ele>
       <time>2013-10-22T17:45:42Z</time>
      </trkpt>
      <trkpt lat="43.601210" lon="6.344560">
       <ele>683</ele>
       <time>2013-10-22T17:45:47Z</time>
      </trkpt>
      <trkpt lat="43.601100" lon="6.345340">
       <ele>685</ele>
       <time>2013-10-22T17:45:59Z</time>
      </trkpt>
      <trkpt lat="43.601100" lon="6.345520">
       <ele>685</ele>
       <time>2013-10-22T17:46:02Z</time>
      </trkpt>
      <trkpt lat="43.601180" lon="6.345910">
       <ele>685</ele>
       <time>2013-10-22T17:46:08Z</time>
      </trkpt>
      <trkpt lat="43.601440" lon="6.346770">
       <ele>682</ele>
       <time>2013-10-22T17:46:22Z</time>
      </trkpt>
      <trkpt lat="43.601520" lon="6.347220">
       <ele>680</ele>
       <time>2013-10-22T17:46:29Z</time>
      </trkpt>
      <trkpt lat="43.601540" lon="6.347440">
       <ele>680</ele>
       <time>2013-10-22T17:46:32Z</time>
      </trkpt>
      <trkpt lat="43.601570" lon="6.348310">
       <ele>672</ele>
       <time>2013-10-22T17:46:45Z</time>
      </trkpt>
      <trkpt lat="43.601470" lon="6.349930">
       <ele>664</ele>
       <time>2013-10-22T17:47:10Z</time>
      </trkpt>
      <trkpt lat="43.601470" lon="6.350150">
       <ele>663</ele>
       <time>2013-10-22T17:47:13Z</time>
      </trkpt>
      <trkpt lat="43.601500" lon="6.350350">
       <ele>663</ele>
       <time>2013-10-22T17:47:16Z</time>
      </trkpt>
      <trkpt lat="43.601580" lon="6.350750">
       <ele>658</ele>
       <time>2013-10-22T17:47:22Z</time>
      </trkpt>
      <trkpt lat="43.601760" lon="6.351480">
       <ele>656</ele>
       <time>2013-10-22T17:47:34Z</time>
      </trkpt>
      <trkpt lat="43.601890" lon="6.351810">
       <ele>654</ele>
       <time>2013-10-22T17:47:40Z</time>
      </trkpt>
      <trkpt lat="43.602050" lon="6.352040">
       <ele>654</ele>
       <time>2013-10-22T17:47:44Z</time>
      </trkpt>
      <trkpt lat="43.602980" lon="6.352810">
       <ele>647</ele>
       <time>2013-10-22T17:48:07Z</time>
      </trkpt>
      <trkpt lat="43.603130" lon="6.353040">
       <ele>646</ele>
       <time>2013-10-22T17:48:12Z</time>
      </trkpt>
      <trkpt lat="43.603190" lon="6.353330">
       <ele>645</ele>
       <time>2013-10-22T17:48:16Z</time>
      </trkpt>
      <trkpt lat="43.603130" lon="6.354520">
       <ele>641</ele>
       <time>2013-10-22T17:48:34Z</time>
      </trkpt>
      <trkpt lat="43.603140" lon="6.354860">
       <ele>641</ele>
       <time>2013-10-22T17:48:39Z</time>
      </trkpt>
      <trkpt lat="43.603180" lon="6.355030">
       <ele>640</ele>
       <time>2013-10-22T17:48:42Z</time>
      </trkpt>
      <trkpt lat="43.603320" lon="6.355460">
       <ele>639</ele>
       <time>2013-10-22T17:48:49Z</time>
      </trkpt>
      <trkpt lat="43.604160" lon="6.357180">
       <ele>625</ele>
       <time>2013-10-22T17:49:20Z</time>
      </trkpt>
      <trkpt lat="43.604270" lon="6.357530">
       <ele>623</ele>
       <time>2013-10-22T17:49:26Z</time>
      </trkpt>
      <trkpt lat="43.604250" lon="6.357640">
       <ele>623</ele>
       <time>2013-10-22T17:49:27Z</time>
      </trkpt>
      <trkpt lat="43.603000" lon="6.361890">
       <ele>626</ele>
       <time>2013-10-22T17:50:36Z</time>
      </trkpt>
      <trkpt lat="43.602980" lon="6.362200">
       <ele>626</ele>
       <time>2013-10-22T17:50:41Z</time>
      </trkpt>
      <trkpt lat="43.603000" lon="6.362470">
       <ele>626</ele>
       <time>2013-10-22T17:50:45Z</time>
      </trkpt>
      <trkpt lat="43.603030" lon="6.362610">
       <ele>626</ele>
       <time>2013-10-22T17:50:47Z</time>
      </trkpt>
      <trkpt lat="43.603160" lon="6.362970">
       <ele>624</ele>
       <time>2013-10-22T17:50:53Z</time>
      </trkpt>
      <trkpt lat="43.603180" lon="6.363380">
       <ele>622</ele>
       <time>2013-10-22T17:51:00Z</time>
      </trkpt>
      <trkpt lat="43.603160" lon="6.363520">
       <ele>621</ele>
       <time>2013-10-22T17:51:02Z</time>
      </trkpt>
      <trkpt lat="43.602980" lon="6.364060">
       <ele>621</ele>
       <time>2013-10-22T17:51:11Z</time>
      </trkpt>
      <trkpt lat="43.602950" lon="6.365150">
       <ele>627</ele>
       <time>2013-10-22T17:51:27Z</time>
      </trkpt>
      <trkpt lat="43.603020" lon="6.365360">
       <ele>627</ele>
       <time>2013-10-22T17:51:30Z</time>
      </trkpt>
      <trkpt lat="43.603110" lon="6.365540">
       <ele>628</ele>
       <time>2013-10-22T17:51:34Z</time>
      </trkpt>
      <trkpt lat="43.603390" lon="6.365880">
       <ele>624</ele>
       <time>2013-10-22T17:51:41Z</time>
      </trkpt>
      <trkpt lat="43.604220" lon="6.366750">
       <ele>617</ele>
       <time>2013-10-22T17:52:03Z</time>
      </trkpt>
      <trkpt lat="43.604880" lon="6.367860">
       <ele>623</ele>
       <time>2013-10-22T17:52:25Z</time>
      </trkpt>
      <trkpt lat="43.605860" lon="6.369800">
       <ele>628</ele>
       <time>2013-10-22T17:53:00Z</time>
      </trkpt>
      <trkpt lat="43.606040" lon="6.370240">
       <ele>628</ele>
       <time>2013-10-22T17:53:08Z</time>
      </trkpt>
      <trkpt lat="43.606170" lon="6.370710">
       <ele>627</ele>
       <time>2013-10-22T17:53:15Z</time>
      </trkpt>
      <trkpt lat="43.606430" lon="6.371980">
       <ele>626</ele>
       <time>2013-10-22T17:53:35Z</time>
      </trkpt>
      <trkpt lat="43.606440" lon="6.372390">
       <ele>623</ele>
       <time>2013-10-22T17:53:41Z</time>
      </trkpt>
      <trkpt lat="43.606400" lon="6.372780">
       <ele>622</ele>
       <time>2013-10-22T17:53:47Z</time>
      </trkpt>
      <trkpt lat="43.606280" lon="6.373150">
       <ele>620</ele>
       <time>2013-10-22T17:53:53Z</time>
      </trkpt>
      <trkpt lat="43.606170" lon="6.373390">
       <ele>617</ele>
       <time>2013-10-22T17:53:58Z</time>
      </trkpt>
      <trkpt lat="43.606110" lon="6.373510">
       <ele>616</ele>
       <time>2013-10-22T17:54:00Z</time>
      </trkpt>
      <trkpt lat="43.605880" lon="6.373820">
       <ele>612</ele>
       <time>2013-10-22T17:54:06Z</time>
      </trkpt>
      <trkpt lat="43.605220" lon="6.374530">
       <ele>604</ele>
       <time>2013-10-22T17:54:24Z</time>
      </trkpt>
      <trkpt lat="43.604960" lon="6.374890">
       <ele>601</ele>
       <time>2013-10-22T17:54:31Z</time>
      </trkpt>
      <trkpt lat="43.604770" lon="6.375320">
       <ele>600</ele>
       <time>2013-10-22T17:54:39Z</time>
      </trkpt>
      <trkpt lat="43.604560" lon="6.375990">
       <ele>598</ele>
       <time>2013-10-22T17:54:50Z</time>
      </trkpt>
      <trkpt lat="43.604350" lon="6.376720">
       <ele>597</ele>
       <time>2013-10-22T17:55:02Z</time>
      </trkpt>
      <trkpt lat="43.604250" lon="6.377320">
       <ele>592</ele>
       <time>2013-10-22T17:55:11Z</time>
      </trkpt>
      <trkpt lat="43.604220" lon="6.377860">
       <ele>590</ele>
       <time>2013-10-22T17:55:19Z</time>
      </trkpt>
      <trkpt lat="43.604190" lon="6.379370">
       <ele>582</ele>
       <time>2013-10-22T17:55:42Z</time>
      </trkpt>
      <trkpt lat="43.604080" lon="6.380540">
       <ele>574</ele>
       <time>2013-10-22T17:55:59Z</time>
      </trkpt>
      <trkpt lat="43.604030" lon="6.380770">
       <ele>569</ele>
       <time>2013-10-22T17:56:03Z</time>
      </trkpt>
      <trkpt lat="43.603930" lon="6.381090">
       <ele>563</ele>
       <time>2013-10-22T17:56:08Z</time>
      </trkpt>
      <trkpt lat="43.603660" lon="6.381530">
       <ele>553</ele>
       <time>2013-10-22T17:56:17Z</time>
      </trkpt>
      <trkpt lat="43.603530" lon="6.381660">
       <ele>553</ele>
       <time>2013-10-22T17:56:20Z</time>
      </trkpt>
      <trkpt lat="43.603560" lon="6.381820">
       <ele>548</ele>
       <time>2013-10-22T17:56:23Z</time>
      </trkpt>
      <trkpt lat="43.603630" lon="6.381860">
       <ele>548</ele>
       <time>2013-10-22T17:56:24Z</time>
      </trkpt>
      <trkpt lat="43.603720" lon="6.381850">
       <ele>548</ele>
       <time>2013-10-22T17:56:26Z</time>
      </trkpt>
      <trkpt lat="43.603930" lon="6.381770">
       <ele>552</ele>
       <time>2013-10-22T17:56:31Z</time>
      </trkpt>
      <trkpt lat="43.604010" lon="6.381770">
       <ele>552</ele>
       <time>2013-10-22T17:56:32Z</time>
      </trkpt>
      <trkpt lat="43.604320" lon="6.381870">
       <ele>553</ele>
       <time>2013-10-22T17:56:39Z</time>
      </trkpt>
      <trkpt lat="43.604560" lon="6.381910">
       <ele>553</ele>
       <time>2013-10-22T17:56:44Z</time>
      </trkpt>
      <trkpt lat="43.604800" lon="6.381910">
       <ele>558</ele>
       <time>2013-10-22T17:56:49Z</time>
      </trkpt>
      <trkpt lat="43.605110" lon="6.381850">
       <ele>564</ele>
       <time>2013-10-22T17:56:55Z</time>
      </trkpt>
      <trkpt lat="43.605220" lon="6.381850">
       <ele>570</ele>
       <time>2013-10-22T17:56:58Z</time>
      </trkpt>
      <trkpt lat="43.605510" lon="6.381990">
       <ele>577</ele>
       <time>2013-10-22T17:57:04Z</time>
      </trkpt>
      <trkpt lat="43.606150" lon="6.382370">
       <ele>582</ele>
       <time>2013-10-22T17:57:19Z</time>
      </trkpt>
      <trkpt lat="43.606040" lon="6.382870">
       <ele>580</ele>
       <time>2013-10-22T17:57:26Z</time>
      </trkpt>
      <trkpt lat="43.605940" lon="6.383110">
       <ele>574</ele>
       <time>2013-10-22T17:57:31Z</time>
      </trkpt>
      <trkpt lat="43.605750" lon="6.383350">
       <ele>573</ele>
       <time>2013-10-22T17:57:36Z</time>
      </trkpt>
      <trkpt lat="43.605700" lon="6.383490">
       <ele>573</ele>
       <time>2013-10-22T17:57:38Z</time>
      </trkpt>
      <trkpt lat="43.605670" lon="6.383690">
       <ele>569</ele>
       <time>2013-10-22T17:57:41Z</time>
      </trkpt>
      <trkpt lat="43.605670" lon="6.384230">
       <ele>571</ele>
       <time>2013-10-22T17:57:49Z</time>
      </trkpt>
      <trkpt lat="43.605650" lon="6.384350">
       <ele>572</ele>
       <time>2013-10-22T17:57:51Z</time>
      </trkpt>
      <trkpt lat="43.605490" lon="6.384620">
       <ele>573</ele>
       <time>2013-10-22T17:57:56Z</time>
      </trkpt>
      <trkpt lat="43.605460" lon="6.384830">
       <ele>573</ele>
       <time>2013-10-22T17:58:00Z</time>
      </trkpt>
      <trkpt lat="43.605450" lon="6.384910">
       <ele>573</ele>
       <time>2013-10-22T17:58:01Z</time>
      </trkpt>
      <trkpt lat="43.605480" lon="6.385110">
       <ele>573</ele>
       <time>2013-10-22T17:58:04Z</time>
      </trkpt>
      <trkpt lat="43.605540" lon="6.385320">
       <ele>573</ele>
       <time>2013-10-22T17:58:07Z</time>
      </trkpt>
      <trkpt lat="43.605620" lon="6.385420">
       <ele>572</ele>
       <time>2013-10-22T17:58:10Z</time>
      </trkpt>
      <trkpt lat="43.605750" lon="6.385450">
       <ele>571</ele>
       <time>2013-10-22T17:58:12Z</time>
      </trkpt>
      <trkpt lat="43.605960" lon="6.385440">
       <ele>571</ele>
       <time>2013-10-22T17:58:17Z</time>
      </trkpt>
      <trkpt lat="43.606400" lon="6.385050">
       <ele>573</ele>
       <time>2013-10-22T17:58:28Z</time>
      </trkpt>
      <trkpt lat="43.607180" lon="6.384730">
       <ele>565</ele>
       <time>2013-10-22T17:58:44Z</time>
      </trkpt>
      <trkpt lat="43.607460" lon="6.384600">
       <ele>560</ele>
       <time>2013-10-22T17:58:51Z</time>
      </trkpt>
      <trkpt lat="43.607590" lon="6.384530">
       <ele>562</ele>
       <time>2013-10-22T17:58:53Z</time>
      </trkpt>
      <trkpt lat="43.608100" lon="6.384190">
       <ele>559</ele>
       <time>2013-10-22T17:59:05Z</time>
      </trkpt>
      <trkpt lat="43.608370" lon="6.384060">
       <ele>556</ele>
       <time>2013-10-22T17:59:11Z</time>
      </trkpt>
      <trkpt lat="43.608790" lon="6.384000">
       <ele>557</ele>
       <time>2013-10-22T17:59:20Z</time>
      </trkpt>
      <trkpt lat="43.610030" lon="6.383940">
       <ele>543</ele>
       <time>2013-10-22T17:59:46Z</time>
      </trkpt>
      <trkpt lat="43.610130" lon="6.383910">
       <ele>543</ele>
       <time>2013-10-22T17:59:48Z</time>
      </trkpt>
      <trkpt lat="43.610220" lon="6.383850">
       <ele>540</ele>
       <time>2013-10-22T17:59:50Z</time>
      </trkpt>
      <trkpt lat="43.610480" lon="6.383620">
       <ele>544</ele>
       <time>2013-10-22T17:59:56Z</time>
      </trkpt>
      <trkpt lat="43.611010" lon="6.383240">
       <ele>541</ele>
       <time>2013-10-22T18:00:09Z</time>
      </trkpt>
      <trkpt lat="43.611080" lon="6.383220">
       <ele>541</ele>
       <time>2013-10-22T18:00:10Z</time>
      </trkpt>
      <trkpt lat="43.611350" lon="6.383260">
       <ele>540</ele>
       <time>2013-10-22T18:00:16Z</time>
      </trkpt>
      <trkpt lat="43.611460" lon="6.383370">
       <ele>540</ele>
       <time>2013-10-22T18:00:18Z</time>
      </trkpt>
      <trkpt lat="43.611530" lon="6.383450">
       <ele>543</ele>
       <time>2013-10-22T18:00:20Z</time>
      </trkpt>
      <trkpt lat="43.611740" lon="6.383950">
       <ele>538</ele>
       <time>2013-10-22T18:00:29Z</time>
      </trkpt>
      <trkpt lat="43.611850" lon="6.384560">
       <ele>541</ele>
       <time>2013-10-22T18:00:38Z</time>
      </trkpt>
      <trkpt lat="43.611870" lon="6.384840">
       <ele>540</ele>
       <time>2013-10-22T18:00:43Z</time>
      </trkpt>
      <trkpt lat="43.611830" lon="6.384980">
       <ele>540</ele>
       <time>2013-10-22T18:00:45Z</time>
      </trkpt>
      <trkpt lat="43.611770" lon="6.385110">
       <ele>535</ele>
       <time>2013-10-22T18:00:47Z</time>
      </trkpt>
      <trkpt lat="43.611140" lon="6.386180">
       <ele>525</ele>
       <time>2013-10-22T18:01:08Z</time>
      </trkpt>
      <trkpt lat="43.611030" lon="6.386480">
       <ele>526</ele>
       <time>2013-10-22T18:01:13Z</time>
      </trkpt>
      <trkpt lat="43.610950" lon="6.386970">
       <ele>525</ele>
       <time>2013-10-22T18:01:21Z</time>
      </trkpt>
      <trkpt lat="43.610870" lon="6.387300">
       <ele>525</ele>
       <time>2013-10-22T18:01:26Z</time>
      </trkpt>
      <trkpt lat="43.610480" lon="6.387990">
       <ele>524</ele>
       <time>2013-10-22T18:01:39Z</time>
      </trkpt>
      <trkpt lat="43.610390" lon="6.388260">
       <ele>524</ele>
       <time>2013-10-22T18:01:43Z</time>
      </trkpt>
      <trkpt lat="43.610370" lon="6.388520">
       <ele>525</ele>
       <time>2013-10-22T18:01:47Z</time>
      </trkpt>
      <trkpt lat="43.610450" lon="6.389580">
       <ele>529</ele>
       <time>2013-10-22T18:02:03Z</time>
      </trkpt>
      <trkpt lat="43.610510" lon="6.389740">
       <ele>531</ele>
       <time>2013-10-22T18:02:06Z</time>
      </trkpt>
      <trkpt lat="43.610710" lon="6.390020">
       <ele>533</ele>
       <time>2013-10-22T18:02:12Z</time>
      </trkpt>
      <trkpt lat="43.611220" lon="6.390520">
       <ele>537</ele>
       <time>2013-10-22T18:02:25Z</time>
      </trkpt>
      <trkpt lat="43.611500" lon="6.390760">
       <ele>538</ele>
       <time>2013-10-22T18:02:32Z</time>
      </trkpt>
      <trkpt lat="43.611640" lon="6.390850">
       <ele>538</ele>
       <time>2013-10-22T18:02:35Z</time>
      </trkpt>
      <trkpt lat="43.611800" lon="6.390910">
       <ele>538</ele>
       <time>2013-10-22T18:02:38Z</time>
      </trkpt>
      <trkpt lat="43.612300" lon="6.391040">
       <ele>539</ele>
       <time>2013-10-22T18:02:49Z</time>
      </trkpt>
      <trkpt lat="43.612650" lon="6.391180">
       <ele>540</ele>
       <time>2013-10-22T18:02:56Z</time>
      </trkpt>
      <trkpt lat="43.612930" lon="6.391360">
       <ele>543</ele>
       <time>2013-10-22T18:03:03Z</time>
      </trkpt>
      <trkpt lat="43.613010" lon="6.391460">
       <ele>543</ele>
       <time>2013-10-22T18:03:05Z</time>
      </trkpt>
      <trkpt lat="43.613070" lon="6.391580">
       <ele>544</ele>
       <time>2013-10-22T18:03:07Z</time>
      </trkpt>
      <trkpt lat="43.613090" lon="6.391710">
       <ele>544</ele>
       <time>2013-10-22T18:03:09Z</time>
      </trkpt>
      <trkpt lat="43.613040" lon="6.391990">
       <ele>546</ele>
       <time>2013-10-22T18:03:14Z</time>
      </trkpt>
      <trkpt lat="43.612910" lon="6.392220">
       <ele>549</ele>
       <time>2013-10-22T18:03:18Z</time>
      </trkpt>
      <trkpt lat="43.612830" lon="6.392310">
       <ele>549</ele>
       <time>2013-10-22T18:03:20Z</time>
      </trkpt>
      <trkpt lat="43.612740" lon="6.392370">
       <ele>553</ele>
       <time>2013-10-22T18:03:22Z</time>
      </trkpt>
      <trkpt lat="43.612620" lon="6.392400">
       <ele>554</ele>
       <time>2013-10-22T18:03:25Z</time>
      </trkpt>
      <trkpt lat="43.612040" lon="6.392420">
       <ele>555</ele>
       <time>2013-10-22T18:03:37Z</time>
      </trkpt>
      <trkpt lat="43.611830" lon="6.392310">
       <ele>552</ele>
       <time>2013-10-22T18:03:41Z</time>
      </trkpt>
      <trkpt lat="43.611620" lon="6.392130">
       <ele>552</ele>
       <time>2013-10-22T18:03:47Z</time>
      </trkpt>
      <trkpt lat="43.611380" lon="6.391990">
       <ele>548</ele>
       <time>2013-10-22T18:03:52Z</time>
      </trkpt>
      <trkpt lat="43.611250" lon="6.391960">
       <ele>548</ele>
       <time>2013-10-22T18:03:55Z</time>
      </trkpt>
      <trkpt lat="43.611130" lon="6.391970">
       <ele>548</ele>
       <time>2013-10-22T18:03:57Z</time>
      </trkpt>
      <trkpt lat="43.611010" lon="6.392010">
       <ele>548</ele>
       <time>2013-10-22T18:04:00Z</time>
      </trkpt>
      <trkpt lat="43.610770" lon="6.392180">
       <ele>549</ele>
       <time>2013-10-22T18:04:05Z</time>
      </trkpt>
      <trkpt lat="43.609980" lon="6.392960">
       <ele>550</ele>
       <time>2013-10-22T18:04:25Z</time>
      </trkpt>
      <trkpt lat="43.609730" lon="6.393240">
       <ele>550</ele>
       <time>2013-10-22T18:04:32Z</time>
      </trkpt>
      <trkpt lat="43.609630" lon="6.393390">
       <ele>550</ele>
       <time>2013-10-22T18:04:35Z</time>
      </trkpt>
      <trkpt lat="43.609530" lon="6.393560">
       <ele>552</ele>
       <time>2013-10-22T18:04:39Z</time>
      </trkpt>
      <trkpt lat="43.609420" lon="6.393930">
       <ele>555</ele>
       <time>2013-10-22T18:04:45Z</time>
      </trkpt>
      <trkpt lat="43.609370" lon="6.394480">
       <ele>559</ele>
       <time>2013-10-22T18:04:53Z</time>
      </trkpt>
      <trkpt lat="43.609370" lon="6.394750">
       <ele>561</ele>
       <time>2013-10-22T18:04:57Z</time>
      </trkpt>
      <trkpt lat="43.609400" lon="6.394860">
       <ele>561</ele>
       <time>2013-10-22T18:04:59Z</time>
      </trkpt>
      <trkpt lat="43.609450" lon="6.394960">
       <ele>563</ele>
       <time>2013-10-22T18:05:00Z</time>
      </trkpt>
      <trkpt lat="43.609530" lon="6.395050">
       <ele>563</ele>
       <time>2013-10-22T18:05:03Z</time>
      </trkpt>
      <trkpt lat="43.609970" lon="6.395310">
       <ele>567</ele>
       <time>2013-10-22T18:05:13Z</time>
      </trkpt>
      <trkpt lat="43.610060" lon="6.395410">
       <ele>567</ele>
       <time>2013-10-22T18:05:15Z</time>
      </trkpt>
      <trkpt lat="43.610130" lon="6.395540">
       <ele>568</ele>
       <time>2013-10-22T18:05:17Z</time>
      </trkpt>
      <trkpt lat="43.610160" lon="6.395680">
       <ele>570</ele>
       <time>2013-10-22T18:05:20Z</time>
      </trkpt>
      <trkpt lat="43.610140" lon="6.396390">
       <ele>573</ele>
       <time>2013-10-22T18:05:30Z</time>
      </trkpt>
      <trkpt lat="43.610160" lon="6.396580">
       <ele>574</ele>
       <time>2013-10-22T18:05:33Z</time>
      </trkpt>
      <trkpt lat="43.610240" lon="6.396930">
       <ele>574</ele>
       <time>2013-10-22T18:05:39Z</time>
      </trkpt>
      <trkpt lat="43.610400" lon="6.397430">
       <ele>574</ele>
       <time>2013-10-22T18:05:47Z</time>
      </trkpt>
      <trkpt lat="43.610400" lon="6.397700">
       <ele>574</ele>
       <time>2013-10-22T18:05:51Z</time>
      </trkpt>
      <trkpt lat="43.610370" lon="6.397850">
       <ele>574</ele>
       <time>2013-10-22T18:05:53Z</time>
      </trkpt>
      <trkpt lat="43.610270" lon="6.398150">
       <ele>575</ele>
       <time>2013-10-22T18:05:58Z</time>
      </trkpt>
      <trkpt lat="43.610240" lon="6.398310">
       <ele>576</ele>
       <time>2013-10-22T18:06:01Z</time>
      </trkpt>
      <trkpt lat="43.610190" lon="6.398810">
       <ele>579</ele>
       <time>2013-10-22T18:06:08Z</time>
      </trkpt>
      <trkpt lat="43.610140" lon="6.398950">
       <ele>579</ele>
       <time>2013-10-22T18:06:11Z</time>
      </trkpt>
      <trkpt lat="43.610080" lon="6.399050">
       <ele>576</ele>
       <time>2013-10-22T18:06:13Z</time>
      </trkpt>
      <trkpt lat="43.609760" lon="6.399330">
       <ele>575</ele>
       <time>2013-10-22T18:06:20Z</time>
      </trkpt>
      <trkpt lat="43.609260" lon="6.399820">
       <ele>574</ele>
       <time>2013-10-22T18:06:33Z</time>
      </trkpt>
      <trkpt lat="43.609080" lon="6.400050">
       <ele>577</ele>
       <time>2013-10-22T18:06:38Z</time>
      </trkpt>
      <trkpt lat="43.609000" lon="6.400170">
       <ele>579</ele>
       <time>2013-10-22T18:06:41Z</time>
      </trkpt>
      <trkpt lat="43.608790" lon="6.400630">
       <ele>581</ele>
       <time>2013-10-22T18:06:49Z</time>
      </trkpt>
      <trkpt lat="43.608700" lon="6.400750">
       <ele>582</ele>
       <time>2013-10-22T18:06:51Z</time>
      </trkpt>
      <trkpt lat="43.608520" lon="6.400880">
       <ele>582</ele>
       <time>2013-10-22T18:06:56Z</time>
      </trkpt>
      <trkpt lat="43.608450" lon="6.400970">
       <ele>580</ele>
       <time>2013-10-22T18:06:58Z</time>
      </trkpt>
      <trkpt lat="43.608370" lon="6.401110">
       <ele>582</ele>
       <time>2013-10-22T18:07:00Z</time>
      </trkpt>
      <trkpt lat="43.608180" lon="6.401590">
       <ele>584</ele>
       <time>2013-10-22T18:07:08Z</time>
      </trkpt>
      <trkpt lat="43.608120" lon="6.401710">
       <ele>584</ele>
       <time>2013-10-22T18:07:11Z</time>
      </trkpt>
      <trkpt lat="43.608050" lon="6.401790">
       <ele>584</ele>
       <time>2013-10-22T18:07:13Z</time>
      </trkpt>
      <trkpt lat="43.607960" lon="6.401840">
       <ele>586</ele>
       <time>2013-10-22T18:07:15Z</time>
      </trkpt>
      <trkpt lat="43.607840" lon="6.401850">
       <ele>585</ele>
       <time>2013-10-22T18:07:17Z</time>
      </trkpt>
      <trkpt lat="43.607470" lon="6.401760">
       <ele>584</ele>
       <time>2013-10-22T18:07:25Z</time>
      </trkpt>
      <trkpt lat="43.607340" lon="6.401750">
       <ele>585</ele>
       <time>2013-10-22T18:07:28Z</time>
      </trkpt>
      <trkpt lat="43.607200" lon="6.401770">
       <ele>585</ele>
       <time>2013-10-22T18:07:30Z</time>
      </trkpt>
      <trkpt lat="43.607070" lon="6.401810">
       <ele>588</ele>
       <time>2013-10-22T18:07:33Z</time>
      </trkpt>
      <trkpt lat="43.606960" lon="6.401880">
       <ele>588</ele>
       <time>2013-10-22T18:07:36Z</time>
      </trkpt>
      <trkpt lat="43.606860" lon="6.401980">
       <ele>588</ele>
       <time>2013-10-22T18:07:38Z</time>
      </trkpt>
      <trkpt lat="43.606780" lon="6.402090">
       <ele>590</ele>
       <time>2013-10-22T18:07:41Z</time>
      </trkpt>
      <trkpt lat="43.606720" lon="6.402240">
       <ele>590</ele>
       <time>2013-10-22T18:07:43Z</time>
      </trkpt>
      <trkpt lat="43.605780" lon="6.407580">
       <ele>598</ele>
       <time>2013-10-22T18:09:06Z</time>
      </trkpt>
      <trkpt lat="43.605370" lon="6.409820">
       <ele>600</ele>
       <time>2013-10-22T18:09:40Z</time>
      </trkpt>
      <trkpt lat="43.605060" lon="6.411620">
       <ele>601</ele>
       <time>2013-10-22T18:10:08Z</time>
      </trkpt>
      <trkpt lat="43.604930" lon="6.412530">
       <ele>603</ele>
       <time>2013-10-22T18:10:22Z</time>
      </trkpt>
      <trkpt lat="43.604190" lon="6.416710">
       <ele>602</ele>
       <time>2013-10-22T18:11:27Z</time>
      </trkpt>
      <trkpt lat="43.603560" lon="6.420560">
       <ele>612</ele>
       <time>2013-10-22T18:12:26Z</time>
      </trkpt>
      <trkpt lat="43.603450" lon="6.421100">
       <ele>612</ele>
       <time>2013-10-22T18:12:34Z</time>
      </trkpt>
      <trkpt lat="43.603140" lon="6.422930">
       <ele>614</ele>
       <time>2013-10-22T18:13:03Z</time>
      </trkpt>
      <trkpt lat="43.603180" lon="6.424820">
       <ele>620</ele>
       <time>2013-10-22T18:13:31Z</time>
      </trkpt>
      <trkpt lat="43.603110" lon="6.426600">
       <ele>621</ele>
       <time>2013-10-22T18:13:58Z</time>
      </trkpt>
      <trkpt lat="43.603140" lon="6.427250">
       <ele>620</ele>
       <time>2013-10-22T18:14:08Z</time>
      </trkpt>
      <trkpt lat="43.603310" lon="6.428480">
       <ele>620</ele>
       <time>2013-10-22T18:14:26Z</time>
      </trkpt>
      <trkpt lat="43.603260" lon="6.428930">
       <ele>620</ele>
       <time>2013-10-22T18:14:33Z</time>
      </trkpt>
      <trkpt lat="43.603350" lon="6.429690">
       <ele>622</ele>
       <time>2013-10-22T18:14:45Z</time>
      </trkpt>
      <trkpt lat="43.603420" lon="6.430090">
       <ele>622</ele>
       <time>2013-10-22T18:14:51Z</time>
      </trkpt>
      <trkpt lat="43.603400" lon="6.430580">
       <ele>622</ele>
       <time>2013-10-22T18:14:58Z</time>
      </trkpt>
      <trkpt lat="43.603420" lon="6.430850">
       <ele>622</ele>
       <time>2013-10-22T18:15:02Z</time>
      </trkpt>
      <trkpt lat="43.603480" lon="6.431200">
       <ele>623</ele>
       <time>2013-10-22T18:15:08Z</time>
      </trkpt>
      <trkpt lat="43.603580" lon="6.431450">
       <ele>622</ele>
       <time>2013-10-22T18:15:12Z</time>
      </trkpt>
      <trkpt lat="43.604240" lon="6.432510">
       <ele>623</ele>
       <time>2013-10-22T18:15:33Z</time>
      </trkpt>
      <trkpt lat="43.604480" lon="6.432970">
       <ele>625</ele>
       <time>2013-10-22T18:15:42Z</time>
      </trkpt>
      <trkpt lat="43.604530" lon="6.433130">
       <ele>625</ele>
       <time>2013-10-22T18:15:44Z</time>
      </trkpt>
      <trkpt lat="43.604540" lon="6.433460">
       <ele>625</ele>
       <time>2013-10-22T18:15:49Z</time>
      </trkpt>
      <trkpt lat="43.604460" lon="6.433700">
       <ele>625</ele>
       <time>2013-10-22T18:15:53Z</time>
      </trkpt>
      <trkpt lat="43.604400" lon="6.433770">
       <ele>625</ele>
       <time>2013-10-22T18:15:55Z</time>
      </trkpt>
      <trkpt lat="43.604300" lon="6.433810">
       <ele>622</ele>
       <time>2013-10-22T18:15:57Z</time>
      </trkpt>
      <trkpt lat="43.604050" lon="6.433790">
       <ele>622</ele>
       <time>2013-10-22T18:16:02Z</time>
      </trkpt>
      <trkpt lat="43.603340" lon="6.433590">
       <ele>615</ele>
       <time>2013-10-22T18:16:17Z</time>
      </trkpt>
      <trkpt lat="43.603230" lon="6.433580">
       <ele>615</ele>
       <time>2013-10-22T18:16:19Z</time>
      </trkpt>
      <trkpt lat="43.603030" lon="6.433620">
       <ele>611</ele>
       <time>2013-10-22T18:16:24Z</time>
      </trkpt>
      <trkpt lat="43.602950" lon="6.433690">
       <ele>611</ele>
       <time>2013-10-22T18:16:26Z</time>
      </trkpt>
      <trkpt lat="43.602810" lon="6.433890">
       <ele>609</ele>
       <time>2013-10-22T18:16:30Z</time>
      </trkpt>
      <trkpt lat="43.602690" lon="6.434200">
       <ele>610</ele>
       <time>2013-10-22T18:16:35Z</time>
      </trkpt>
      <trkpt lat="43.602690" lon="6.434600">
       <ele>610</ele>
       <time>2013-10-22T18:16:41Z</time>
      </trkpt>
      <trkpt lat="43.602770" lon="6.434780">
       <ele>610</ele>
       <time>2013-10-22T18:16:44Z</time>
      </trkpt>
      <trkpt lat="43.602920" lon="6.434900">
       <ele>613</ele>
       <time>2013-10-22T18:16:48Z</time>
      </trkpt>
      <trkpt lat="43.603270" lon="6.435090">
       <ele>616</ele>
       <time>2013-10-22T18:16:56Z</time>
      </trkpt>
      <trkpt lat="43.603370" lon="6.435200">
       <ele>615</ele>
       <time>2013-10-22T18:16:58Z</time>
      </trkpt>
      <trkpt lat="43.603450" lon="6.435320">
       <ele>615</ele>
       <time>2013-10-22T18:17:01Z</time>
      </trkpt>
      <trkpt lat="43.603510" lon="6.435450">
       <ele>617</ele>
       <time>2013-10-22T18:17:03Z</time>
      </trkpt>
      <trkpt lat="43.603610" lon="6.435900">
       <ele>615</ele>
       <time>2013-10-22T18:17:10Z</time>
      </trkpt>
      <trkpt lat="43.603610" lon="6.436080">
       <ele>613</ele>
       <time>2013-10-22T18:17:13Z</time>
      </trkpt>
      <trkpt lat="43.603600" lon="6.436310">
       <ele>612</ele>
       <time>2013-10-22T18:17:16Z</time>
      </trkpt>
      <trkpt lat="43.603510" lon="6.436790">
       <ele>610</ele>
       <time>2013-10-22T18:17:24Z</time>
      </trkpt>
      <trkpt lat="43.603510" lon="6.436990">
       <ele>609</ele>
       <time>2013-10-22T18:17:27Z</time>
      </trkpt>
      <trkpt lat="43.603480" lon="6.437370">
       <ele>607</ele>
       <time>2013-10-22T18:17:32Z</time>
      </trkpt>
      <trkpt lat="43.603350" lon="6.437860">
       <ele>608</ele>
       <time>2013-10-22T18:17:40Z</time>
      </trkpt>
      <trkpt lat="43.603370" lon="6.438230">
       <ele>608</ele>
       <time>2013-10-22T18:17:46Z</time>
      </trkpt>
      <trkpt lat="43.603470" lon="6.438640">
       <ele>608</ele>
       <time>2013-10-22T18:17:52Z</time>
      </trkpt>
      <trkpt lat="43.603450" lon="6.438930">
       <ele>607</ele>
       <time>2013-10-22T18:17:57Z</time>
      </trkpt>
      <trkpt lat="43.603340" lon="6.439170">
       <ele>607</ele>
       <time>2013-10-22T18:18:01Z</time>
      </trkpt>
      <trkpt lat="43.602420" lon="6.439940">
       <ele>607</ele>
       <time>2013-10-22T18:18:23Z</time>
      </trkpt>
      <trkpt lat="43.602310" lon="6.440060">
       <ele>608</ele>
       <time>2013-10-22T18:18:26Z</time>
      </trkpt>
      <trkpt lat="43.602210" lon="6.440180">
       <ele>606</ele>
       <time>2013-10-22T18:18:29Z</time>
      </trkpt>
      <trkpt lat="43.602110" lon="6.440470">
       <ele>604</ele>
       <time>2013-10-22T18:18:34Z</time>
      </trkpt>
      <trkpt lat="43.602260" lon="6.441500">
       <ele>597</ele>
       <time>2013-10-22T18:18:49Z</time>
      </trkpt>
      <trkpt lat="43.602340" lon="6.441830">
       <ele>589</ele>
       <time>2013-10-22T18:18:55Z</time>
      </trkpt>
      <trkpt lat="43.602400" lon="6.441980">
       <ele>592</ele>
       <time>2013-10-22T18:18:57Z</time>
      </trkpt>
      <trkpt lat="43.602850" lon="6.442820">
       <ele>586</ele>
       <time>2013-10-22T18:19:13Z</time>
      </trkpt>
      <trkpt lat="43.602890" lon="6.442970">
       <ele>584</ele>
       <time>2013-10-22T18:19:15Z</time>
      </trkpt>
      <trkpt lat="43.602850" lon="6.443360">
       <ele>582</ele>
       <time>2013-10-22T18:19:21Z</time>
      </trkpt>
      <trkpt lat="43.602630" lon="6.443800">
       <ele>572</ele>
       <time>2013-10-22T18:19:29Z</time>
      </trkpt>
      <trkpt lat="43.602570" lon="6.444160">
       <ele>572</ele>
       <time>2013-10-22T18:19:35Z</time>
      </trkpt>
      <trkpt lat="43.602580" lon="6.444640">
       <ele>573</ele>
       <time>2013-10-22T18:19:42Z</time>
      </trkpt>
      <trkpt lat="43.602650" lon="6.444980">
       <ele>582</ele>
       <time>2013-10-22T18:19:47Z</time>
      </trkpt>
      <trkpt lat="43.602690" lon="6.445500">
       <ele>581</ele>
       <time>2013-10-22T18:19:55Z</time>
      </trkpt>
      <trkpt lat="43.602660" lon="6.446550">
       <ele>577</ele>
       <time>2013-10-22T18:20:11Z</time>
      </trkpt>
      <trkpt lat="43.602550" lon="6.446860">
       <ele>565</ele>
       <time>2013-10-22T18:20:16Z</time>
      </trkpt>
      <trkpt lat="43.602400" lon="6.447180">
       <ele>565</ele>
       <time>2013-10-22T18:20:22Z</time>
      </trkpt>
      <trkpt lat="43.602080" lon="6.447740">
       <ele>548</ele>
       <time>2013-10-22T18:20:33Z</time>
      </trkpt>
      <trkpt lat="43.601950" lon="6.448170">
       <ele>550</ele>
       <time>2013-10-22T18:20:40Z</time>
      </trkpt>
      <trkpt lat="43.601890" lon="6.448310">
       <ele>551</ele>
       <time>2013-10-22T18:20:42Z</time>
      </trkpt>
      <trkpt lat="43.601810" lon="6.448440">
       <ele>551</ele>
       <time>2013-10-22T18:20:45Z</time>
      </trkpt>
      <trkpt lat="43.601100" lon="6.449340">
       <ele>539</ele>
       <time>2013-10-22T18:21:05Z</time>
      </trkpt>
      <trkpt lat="43.600990" lon="6.449460">
       <ele>539</ele>
       <time>2013-10-22T18:21:08Z</time>
      </trkpt>
      <trkpt lat="43.600880" lon="6.449550">
       <ele>532</ele>
       <time>2013-10-22T18:21:10Z</time>
      </trkpt>
      <trkpt lat="43.600520" lon="6.449800">
       <ele>529</ele>
       <time>2013-10-22T18:21:19Z</time>
      </trkpt>
      <trkpt lat="43.600390" lon="6.449990">
       <ele>527</ele>
       <time>2013-10-22T18:21:22Z</time>
      </trkpt>
      <trkpt lat="43.600230" lon="6.450590">
       <ele>533</ele>
       <time>2013-10-22T18:21:32Z</time>
      </trkpt>
      <trkpt lat="43.600200" lon="6.450930">
       <ele>535</ele>
       <time>2013-10-22T18:21:37Z</time>
      </trkpt>
      <trkpt lat="43.600220" lon="6.451410">
       <ele>537</ele>
       <time>2013-10-22T18:21:44Z</time>
      </trkpt>
      <trkpt lat="43.600150" lon="6.451620">
       <ele>538</ele>
       <time>2013-10-22T18:21:48Z</time>
      </trkpt>
      <trkpt lat="43.600090" lon="6.451680">
       <ele>533</ele>
       <time>2013-10-22T18:21:49Z</time>
      </trkpt>
      <trkpt lat="43.600020" lon="6.451710">
       <ele>533</ele>
       <time>2013-10-22T18:21:51Z</time>
      </trkpt>
      <trkpt lat="43.599940" lon="6.451710">
       <ele>533</ele>
       <time>2013-10-22T18:21:53Z</time>
      </trkpt>
      <trkpt lat="43.599860" lon="6.451680">
       <ele>528</ele>
       <time>2013-10-22T18:21:54Z</time>
      </trkpt>
      <trkpt lat="43.599780" lon="6.451610">
       <ele>528</ele>
       <time>2013-10-22T18:21:56Z</time>
      </trkpt>
      <trkpt lat="43.598940" lon="6.450040">
       <ele>511</ele>
       <time>2013-10-22T18:22:26Z</time>
      </trkpt>
      <trkpt lat="43.598830" lon="6.449880">
       <ele>511</ele>
       <time>2013-10-22T18:22:29Z</time>
      </trkpt>
      <trkpt lat="43.598660" lon="6.449750">
       <ele>505</ele>
       <time>2013-10-22T18:22:33Z</time>
      </trkpt>
      <trkpt lat="43.598540" lon="6.449720">
       <ele>505</ele>
       <time>2013-10-22T18:22:35Z</time>
      </trkpt>
      <trkpt lat="43.598280" lon="6.449690">
       <ele>502</ele>
       <time>2013-10-22T18:22:41Z</time>
      </trkpt>
      <trkpt lat="43.598040" lon="6.449690">
       <ele>497</ele>
       <time>2013-10-22T18:22:46Z</time>
      </trkpt>
      <trkpt lat="43.597930" lon="6.449760">
       <ele>497</ele>
       <time>2013-10-22T18:22:48Z</time>
      </trkpt>
      <trkpt lat="43.597800" lon="6.449860">
       <ele>493</ele>
       <time>2013-10-22T18:22:51Z</time>
      </trkpt>
      <trkpt lat="43.597690" lon="6.450000">
       <ele>499</ele>
       <time>2013-10-22T18:22:55Z</time>
      </trkpt>
      <trkpt lat="43.597610" lon="6.450170">
       <ele>501</ele>
       <time>2013-10-22T18:22:58Z</time>
      </trkpt>
      <trkpt lat="43.597480" lon="6.450290">
       <ele>501</ele>
       <time>2013-10-22T18:23:01Z</time>
      </trkpt>
      <trkpt lat="43.597380" lon="6.450310">
       <ele>501</ele>
       <time>2013-10-22T18:23:03Z</time>
      </trkpt>
      <trkpt lat="43.597190" lon="6.450300">
       <ele>499</ele>
       <time>2013-10-22T18:23:07Z</time>
      </trkpt>
      <trkpt lat="43.596900" lon="6.450200">
       <ele>497</ele>
       <time>2013-10-22T18:23:13Z</time>
      </trkpt>
      <trkpt lat="43.596820" lon="6.450190">
       <ele>497</ele>
       <time>2013-10-22T18:23:15Z</time>
      </trkpt>
      <trkpt lat="43.596580" lon="6.450220">
       <ele>493</ele>
       <time>2013-10-22T18:23:20Z</time>
      </trkpt>
      <trkpt lat="43.596430" lon="6.450270">
       <ele>486</ele>
       <time>2013-10-22T18:23:23Z</time>
      </trkpt>
      <trkpt lat="43.596270" lon="6.450350">
       <ele>486</ele>
       <time>2013-10-22T18:23:26Z</time>
      </trkpt>
      <trkpt lat="43.595920" lon="6.450620">
       <ele>472</ele>
       <time>2013-10-22T18:23:35Z</time>
      </trkpt>
      <trkpt lat="43.595740" lon="6.450820">
       <ele>482</ele>
       <time>2013-10-22T18:23:40Z</time>
      </trkpt>
      <trkpt lat="43.595610" lon="6.451020">
       <ele>473</ele>
       <time>2013-10-22T18:23:44Z</time>
      </trkpt>
      <trkpt lat="43.595530" lon="6.451220">
       <ele>473</ele>
       <time>2013-10-22T18:23:47Z</time>
      </trkpt>
      <trkpt lat="43.595470" lon="6.451640">
       <ele>487</ele>
       <time>2013-10-22T18:23:53Z</time>
      </trkpt>
      <trkpt lat="43.595490" lon="6.451960">
       <ele>493</ele>
       <time>2013-10-22T18:23:58Z</time>
      </trkpt>
      <trkpt lat="43.595480" lon="6.452040">
       <ele>493</ele>
       <time>2013-10-22T18:24:00Z</time>
      </trkpt>
      <trkpt lat="43.595290" lon="6.452500">
       <ele>486</ele>
       <time>2013-10-22T18:24:07Z</time>
      </trkpt>
      <trkpt lat="43.595200" lon="6.453000">
       <ele>493</ele>
       <time>2013-10-22T18:24:15Z</time>
      </trkpt>
      <trkpt lat="43.595020" lon="6.453570">
       <ele>479</ele>
       <time>2013-10-22T18:24:25Z</time>
      </trkpt>
      <trkpt lat="43.594970" lon="6.453890">
       <ele>480</ele>
       <time>2013-10-22T18:24:29Z</time>
      </trkpt>
      <trkpt lat="43.594970" lon="6.454380">
       <ele>477</ele>
       <time>2013-10-22T18:24:37Z</time>
      </trkpt>
      <trkpt lat="43.595020" lon="6.454710">
       <ele>474</ele>
       <time>2013-10-22T18:24:42Z</time>
      </trkpt>
      <trkpt lat="43.595030" lon="6.455260">
       <ele>467</ele>
       <time>2013-10-22T18:24:50Z</time>
      </trkpt>
      <trkpt lat="43.595150" lon="6.455760">
       <ele>474</ele>
       <time>2013-10-22T18:24:58Z</time>
      </trkpt>
      <trkpt lat="43.595180" lon="6.456140">
       <ele>471</ele>
       <time>2013-10-22T18:25:04Z</time>
      </trkpt>
      <trkpt lat="43.595160" lon="6.457300">
       <ele>467</ele>
       <time>2013-10-22T18:25:21Z</time>
      </trkpt>
      <trkpt lat="43.595110" lon="6.457810">
       <ele>453</ele>
       <time>2013-10-22T18:25:29Z</time>
      </trkpt>
      <trkpt lat="43.595180" lon="6.458260">
       <ele>461</ele>
       <time>2013-10-22T18:25:36Z</time>
      </trkpt>
      <trkpt lat="43.595290" lon="6.458780">
       <ele>455</ele>
       <time>2013-10-22T18:25:44Z</time>
      </trkpt>
      <trkpt lat="43.595340" lon="6.458950">
       <ele>455</ele>
       <time>2013-10-22T18:25:47Z</time>
      </trkpt>
      <trkpt lat="43.595600" lon="6.459580">
       <ele>457</ele>
       <time>2013-10-22T18:25:58Z</time>
      </trkpt>
      <trkpt lat="43.595650" lon="6.459740">
       <ele>454</ele>
       <time>2013-10-22T18:26:00Z</time>
      </trkpt>
      <trkpt lat="43.595660" lon="6.460070">
       <ele>451</ele>
       <time>2013-10-22T18:26:05Z</time>
      </trkpt>
      <trkpt lat="43.595600" lon="6.460520">
       <ele>445</ele>
       <time>2013-10-22T18:26:12Z</time>
      </trkpt>
      <trkpt lat="43.595600" lon="6.460670">
       <ele>445</ele>
       <time>2013-10-22T18:26:14Z</time>
      </trkpt>
      <trkpt lat="43.595610" lon="6.460820">
       <ele>442</ele>
       <time>2013-10-22T18:26:17Z</time>
      </trkpt>
      <trkpt lat="43.595690" lon="6.461100">
       <ele>439</ele>
       <time>2013-10-22T18:26:21Z</time>
      </trkpt>
      <trkpt lat="43.595810" lon="6.461360">
       <ele>443</ele>
       <time>2013-10-22T18:26:26Z</time>
      </trkpt>
      <trkpt lat="43.595970" lon="6.461620">
       <ele>439</ele>
       <time>2013-10-22T18:26:31Z</time>
      </trkpt>
      <trkpt lat="43.596060" lon="6.461710">
       <ele>443</ele>
       <time>2013-10-22T18:26:33Z</time>
      </trkpt>
      <trkpt lat="43.596160" lon="6.461770">
       <ele>443</ele>
       <time>2013-10-22T18:26:35Z</time>
      </trkpt>
      <trkpt lat="43.596400" lon="6.461860">
       <ele>441</ele>
       <time>2013-10-22T18:26:41Z</time>
      </trkpt>
      <trkpt lat="43.596450" lon="6.461960">
       <ele>441</ele>
       <time>2013-10-22T18:26:42Z</time>
      </trkpt>
      <trkpt lat="43.596450" lon="6.462040">
       <ele>441</ele>
       <time>2013-10-22T18:26:44Z</time>
      </trkpt>
      <trkpt lat="43.596350" lon="6.462780">
       <ele>429</ele>
       <time>2013-10-22T18:26:55Z</time>
      </trkpt>
      <trkpt lat="43.595900" lon="6.465720">
       <ele>430</ele>
       <time>2013-10-22T18:27:40Z</time>
      </trkpt>
      <trkpt lat="43.595820" lon="6.466000">
       <ele>431</ele>
       <time>2013-10-22T18:27:45Z</time>
      </trkpt>
      <trkpt lat="43.595680" lon="6.466240">
       <ele>428</ele>
       <time>2013-10-22T18:27:49Z</time>
      </trkpt>
      <trkpt lat="43.595280" lon="6.466770">
       <ele>427</ele>
       <time>2013-10-22T18:28:01Z</time>
      </trkpt>
      <trkpt lat="43.594990" lon="6.467080">
       <ele>426</ele>
       <time>2013-10-22T18:28:08Z</time>
      </trkpt>
      <trkpt lat="43.594660" lon="6.467380">
       <ele>425</ele>
       <time>2013-10-22T18:28:16Z</time>
      </trkpt>
      <trkpt lat="43.594550" lon="6.467510">
       <ele>426</ele>
       <time>2013-10-22T18:28:19Z</time>
      </trkpt>
      <trkpt lat="43.594470" lon="6.467560">
       <ele>426</ele>
       <time>2013-10-22T18:28:21Z</time>
      </trkpt>
      <trkpt lat="43.594440" lon="6.467650">
       <ele>426</ele>
       <time>2013-10-22T18:28:23Z</time>
      </trkpt>
      <trkpt lat="43.594630" lon="6.467740">
       <ele>425</ele>
       <time>2013-10-22T18:28:27Z</time>
      </trkpt>
      <trkpt lat="43.595360" lon="6.468180">
       <ele>425</ele>
       <time>2013-10-22T18:28:43Z</time>
      </trkpt>
      <trkpt lat="43.595630" lon="6.468360">
       <ele>427</ele>
       <time>2013-10-22T18:28:50Z</time>
      </trkpt>
      <trkpt lat="43.595740" lon="6.468460">
       <ele>429</ele>
       <time>2013-10-22T18:28:52Z</time>
      </trkpt>
      <trkpt lat="43.596000" lon="6.468750">
       <ele>431</ele>
       <time>2013-10-22T18:28:59Z</time>
      </trkpt>
      <trkpt lat="43.596130" lon="6.468950">
       <ele>431</ele>
       <time>2013-10-22T18:29:03Z</time>
      </trkpt>
      <trkpt lat="43.596350" lon="6.469380">
       <ele>433</ele>
       <time>2013-10-22T18:29:11Z</time>
      </trkpt>
      <trkpt lat="43.596580" lon="6.470060">
       <ele>435</ele>
       <time>2013-10-22T18:29:23Z</time>
      </trkpt>
      <trkpt lat="43.596680" lon="6.470520">
       <ele>439</ele>
       <time>2013-10-22T18:29:30Z</time>
      </trkpt>
      <trkpt lat="43.596720" lon="6.470990">
       <ele>444</ele>
       <time>2013-10-22T18:29:37Z</time>
      </trkpt>
      <trkpt lat="43.596770" lon="6.471210">
       <ele>444</ele>
       <time>2013-10-22T18:29:40Z</time>
      </trkpt>
      <trkpt lat="43.596930" lon="6.471600">
       <ele>447</ele>
       <time>2013-10-22T18:29:47Z</time>
      </trkpt>
      <trkpt lat="43.597160" lon="6.471930">
       <ele>445</ele>
       <time>2013-10-22T18:29:54Z</time>
      </trkpt>
      <trkpt lat="43.597300" lon="6.472060">
       <ele>445</ele>
       <time>2013-10-22T18:29:57Z</time>
      </trkpt>
      <trkpt lat="43.598060" lon="6.472650">
       <ele>445</ele>
       <time>2013-10-22T18:30:16Z</time>
      </trkpt>
      <trkpt lat="43.598220" lon="6.472790">
       <ele>445</ele>
       <time>2013-10-22T18:30:19Z</time>
      </trkpt>
      <trkpt lat="43.598690" lon="6.473280">
       <ele>444</ele>
       <time>2013-10-22T18:30:32Z</time>
      </trkpt>
      <trkpt lat="43.599010" lon="6.473570">
       <ele>444</ele>
       <time>2013-10-22T18:30:40Z</time>
      </trkpt>
      <trkpt lat="43.599670" lon="6.474120">
       <ele>448</ele>
       <time>2013-10-22T18:30:56Z</time>
      </trkpt>
      <trkpt lat="43.600440" lon="6.474720">
       <ele>447</ele>
       <time>2013-10-22T18:31:14Z</time>
      </trkpt>
      <trkpt lat="43.600570" lon="6.474870">
       <ele>448</ele>
       <time>2013-10-22T18:31:17Z</time>
      </trkpt>
      <trkpt lat="43.600800" lon="6.475230">
       <ele>447</ele>
       <time>2013-10-22T18:31:25Z</time>
      </trkpt>
      <trkpt lat="43.601080" lon="6.475910">
       <ele>449</ele>
       <time>2013-10-22T18:31:36Z</time>
      </trkpt>
      <trkpt lat="43.601340" lon="6.476340">
       <ele>452</ele>
       <time>2013-10-22T18:31:45Z</time>
      </trkpt>
      <trkpt lat="43.602570" lon="6.477920">
       <ele>451</ele>
       <time>2013-10-22T18:32:20Z</time>
      </trkpt>
      <trkpt lat="43.602710" lon="6.478080">
       <ele>451</ele>
       <time>2013-10-22T18:32:23Z</time>
      </trkpt>
      <trkpt lat="43.602890" lon="6.478190">
       <ele>451</ele>
       <time>2013-10-22T18:32:27Z</time>
      </trkpt>
      <trkpt lat="43.603060" lon="6.478270">
       <ele>451</ele>
       <time>2013-10-22T18:32:31Z</time>
      </trkpt>
      <trkpt lat="43.604170" lon="6.478650">
       <ele>456</ele>
       <time>2013-10-22T18:32:55Z</time>
      </trkpt>
      <trkpt lat="43.604350" lon="6.478730">
       <ele>456</ele>
       <time>2013-10-22T18:32:59Z</time>
      </trkpt>
      <trkpt lat="43.604510" lon="6.478830">
       <ele>457</ele>
       <time>2013-10-22T18:33:02Z</time>
      </trkpt>
      <trkpt lat="43.604670" lon="6.478950">
       <ele>457</ele>
       <time>2013-10-22T18:33:06Z</time>
      </trkpt>
      <trkpt lat="43.606150" lon="6.480460">
       <ele>465</ele>
       <time>2013-10-22T18:33:44Z</time>
      </trkpt>
      <trkpt lat="43.606310" lon="6.480590">
       <ele>466</ele>
       <time>2013-10-22T18:33:48Z</time>
      </trkpt>
      <trkpt lat="43.606490" lon="6.480690">
       <ele>466</ele>
       <time>2013-10-22T18:33:52Z</time>
      </trkpt>
      <trkpt lat="43.606680" lon="6.480740">
       <ele>465</ele>
       <time>2013-10-22T18:33:56Z</time>
      </trkpt>
      <trkpt lat="43.607230" lon="6.480840">
       <ele>467</ele>
       <time>2013-10-22T18:34:08Z</time>
      </trkpt>
      <trkpt lat="43.607410" lon="6.480900">
       <ele>470</ele>
       <time>2013-10-22T18:34:12Z</time>
      </trkpt>
      <trkpt lat="43.607590" lon="6.480990">
       <ele>468</ele>
       <time>2013-10-22T18:34:16Z</time>
      </trkpt>
      <trkpt lat="43.608050" lon="6.481300">
       <ele>472</ele>
       <time>2013-10-22T18:34:26Z</time>
      </trkpt>
      <trkpt lat="43.608550" lon="6.481540">
       <ele>473</ele>
       <time>2013-10-22T18:34:37Z</time>
      </trkpt>
      <trkpt lat="43.609080" lon="6.481740">
       <ele>473</ele>
       <time>2013-10-22T18:34:49Z</time>
      </trkpt>
      <trkpt lat="43.609450" lon="6.481820">
       <ele>470</ele>
       <time>2013-10-22T18:34:56Z</time>
      </trkpt>
      <trkpt lat="43.609630" lon="6.481830">
       <ele>470</ele>
       <time>2013-10-22T18:35:00Z</time>
      </trkpt>
      <trkpt lat="43.609870" lon="6.481800">
       <ele>472</ele>
       <time>2013-10-22T18:35:05Z</time>
      </trkpt>
      <trkpt lat="43.609970" lon="6.482170">
       <ele>468</ele>
       <time>2013-10-22T18:35:11Z</time>
      </trkpt>
      <trkpt lat="43.610100" lon="6.482310">
       <ele>468</ele>
       <time>2013-10-22T18:35:14Z</time>
      </trkpt>
      <trkpt lat="43.610190" lon="6.482370">
       <ele>466</ele>
       <time>2013-10-22T18:35:16Z</time>
      </trkpt>
      <trkpt lat="43.610430" lon="6.482390">
       <ele>467</ele>
       <time>2013-10-22T18:35:21Z</time>
      </trkpt>
      <trkpt lat="43.610600" lon="6.482350">
       <ele>467</ele>
       <time>2013-10-22T18:35:25Z</time>
      </trkpt>
      <trkpt lat="43.611010" lon="6.481990">
       <ele>469</ele>
       <time>2013-10-22T18:35:35Z</time>
      </trkpt>
      <trkpt lat="43.611190" lon="6.481870">
       <ele>469</ele>
       <time>2013-10-22T18:35:39Z</time>
      </trkpt>
      <trkpt lat="43.611300" lon="6.481850">
       <ele>471</ele>
       <time>2013-10-22T18:35:42Z</time>
      </trkpt>
      <trkpt lat="43.611610" lon="6.481870">
       <ele>474</ele>
       <time>2013-10-22T18:35:48Z</time>
      </trkpt>
      <trkpt lat="43.611690" lon="6.481840">
       <ele>474</ele>
       <time>2013-10-22T18:35:50Z</time>
      </trkpt>
      <trkpt lat="43.611930" lon="6.481640">
       <ele>476</ele>
       <time>2013-10-22T18:35:56Z</time>
      </trkpt>
      <trkpt lat="43.612190" lon="6.481470">
       <ele>478</ele>
       <time>2013-10-22T18:36:01Z</time>
      </trkpt>
      <trkpt lat="43.612540" lon="6.481170">
       <ele>480</ele>
       <time>2013-10-22T18:36:10Z</time>
      </trkpt>
      <trkpt lat="43.612610" lon="6.481150">
       <ele>480</ele>
       <time>2013-10-22T18:36:12Z</time>
      </trkpt>
      <trkpt lat="43.612880" lon="6.481190">
       <ele>482</ele>
       <time>2013-10-22T18:36:17Z</time>
      </trkpt>
      <trkpt lat="43.613150" lon="6.481290">
       <ele>487</ele>
       <time>2013-10-22T18:36:23Z</time>
      </trkpt>
      <trkpt lat="43.613860" lon="6.481190">
       <ele>492</ele>
       <time>2013-10-22T18:36:38Z</time>
      </trkpt>
      <trkpt lat="43.614200" lon="6.481030">
       <ele>495</ele>
       <time>2013-10-22T18:36:45Z</time>
      </trkpt>
      <trkpt lat="43.614590" lon="6.480880">
       <ele>495</ele>
       <time>2013-10-22T18:36:54Z</time>
      </trkpt>
      <trkpt lat="43.614710" lon="6.480860">
       <ele>495</ele>
       <time>2013-10-22T18:36:56Z</time>
      </trkpt>
      <trkpt lat="43.614940" lon="6.480860">
       <ele>498</ele>
       <time>2013-10-22T18:37:01Z</time>
      </trkpt>
      <trkpt lat="43.615150" lon="6.480820">
       <ele>500</ele>
       <time>2013-10-22T18:37:05Z</time>
      </trkpt>
      <trkpt lat="43.615340" lon="6.480700">
       <ele>500</ele>
       <time>2013-10-22T18:37:10Z</time>
      </trkpt>
      <trkpt lat="43.615520" lon="6.480540">
       <ele>498</ele>
       <time>2013-10-22T18:37:14Z</time>
      </trkpt>
      <trkpt lat="43.615740" lon="6.480390">
       <ele>497</ele>
       <time>2013-10-22T18:37:19Z</time>
      </trkpt>
      <trkpt lat="43.615870" lon="6.480310">
       <ele>497</ele>
       <time>2013-10-22T18:37:22Z</time>
      </trkpt>
      <trkpt lat="43.615950" lon="6.480290">
       <ele>497</ele>
       <time>2013-10-22T18:37:24Z</time>
      </trkpt>
      <trkpt lat="43.616230" lon="6.480280">
       <ele>499</ele>
       <time>2013-10-22T18:37:30Z</time>
      </trkpt>
      <trkpt lat="43.616340" lon="6.480410">
       <ele>501</ele>
       <time>2013-10-22T18:37:33Z</time>
      </trkpt>
      <trkpt lat="43.616480" lon="6.480480">
       <ele>504</ele>
       <time>2013-10-22T18:37:36Z</time>
      </trkpt>
      <trkpt lat="43.616660" lon="6.480490">
       <ele>507</ele>
       <time>2013-10-22T18:37:39Z</time>
      </trkpt>
      <trkpt lat="43.617110" lon="6.480420">
       <ele>514</ele>
       <time>2013-10-22T18:37:49Z</time>
      </trkpt>
      <trkpt lat="43.617430" lon="6.480300">
       <ele>513</ele>
       <time>2013-10-22T18:37:56Z</time>
      </trkpt>
      <trkpt lat="43.617580" lon="6.480290">
       <ele>513</ele>
       <time>2013-10-22T18:37:59Z</time>
      </trkpt>
      <trkpt lat="43.617770" lon="6.480310">
       <ele>515</ele>
       <time>2013-10-22T18:38:03Z</time>
      </trkpt>
      <trkpt lat="43.618080" lon="6.480420">
       <ele>520</ele>
       <time>2013-10-22T18:38:09Z</time>
      </trkpt>
      <trkpt lat="43.618240" lon="6.480510">
       <ele>519</ele>
       <time>2013-10-22T18:38:13Z</time>
      </trkpt>
      <trkpt lat="43.618990" lon="6.481130">
       <ele>528</ele>
       <time>2013-10-22T18:38:31Z</time>
      </trkpt>
      <trkpt lat="43.619700" lon="6.481660">
       <ele>535</ele>
       <time>2013-10-22T18:38:48Z</time>
      </trkpt>
      <trkpt lat="43.620060" lon="6.481890">
       <ele>537</ele>
       <time>2013-10-22T18:38:56Z</time>
      </trkpt>
      <trkpt lat="43.620170" lon="6.482000">
       <ele>536</ele>
       <time>2013-10-22T18:38:59Z</time>
      </trkpt>
      <trkpt lat="43.620200" lon="6.482150">
       <ele>539</ele>
       <time>2013-10-22T18:39:01Z</time>
      </trkpt>
      <trkpt lat="43.620170" lon="6.482280">
       <ele>539</ele>
       <time>2013-10-22T18:39:03Z</time>
      </trkpt>
      <trkpt lat="43.620090" lon="6.482340">
       <ele>543</ele>
       <time>2013-10-22T18:39:05Z</time>
      </trkpt>
      <trkpt lat="43.620010" lon="6.482350">
       <ele>543</ele>
       <time>2013-10-22T18:39:07Z</time>
      </trkpt>
      <trkpt lat="43.619900" lon="6.482280">
       <ele>543</ele>
       <time>2013-10-22T18:39:09Z</time>
      </trkpt>
      <trkpt lat="43.619720" lon="6.482120">
       <ele>547</ele>
       <time>2013-10-22T18:39:14Z</time>
      </trkpt>
      <trkpt lat="43.619380" lon="6.481740">
       <ele>537</ele>
       <time>2013-10-22T18:39:23Z</time>
      </trkpt>
      <trkpt lat="43.619160" lon="6.481570">
       <ele>539</ele>
       <time>2013-10-22T18:39:28Z</time>
      </trkpt>
      <trkpt lat="43.619080" lon="6.481600">
       <ele>539</ele>
       <time>2013-10-22T18:39:30Z</time>
      </trkpt>
      <trkpt lat="43.619030" lon="6.481720">
       <ele>539</ele>
       <time>2013-10-22T18:39:32Z</time>
      </trkpt>
      <trkpt lat="43.619060" lon="6.481820">
       <ele>548</ele>
       <time>2013-10-22T18:39:33Z</time>
      </trkpt>
      <trkpt lat="43.619430" lon="6.482100">
       <ele>552</ele>
       <time>2013-10-22T18:39:42Z</time>
      </trkpt>
      <trkpt lat="43.619830" lon="6.482520">
       <ele>556</ele>
       <time>2013-10-22T18:39:53Z</time>
      </trkpt>
      <trkpt lat="43.620150" lon="6.482790">
       <ele>553</ele>
       <time>2013-10-22T18:40:00Z</time>
      </trkpt>
      <trkpt lat="43.620360" lon="6.483000">
       <ele>561</ele>
       <time>2013-10-22T18:40:06Z</time>
      </trkpt>
      <trkpt lat="43.620680" lon="6.483140">
       <ele>555</ele>
       <time>2013-10-22T18:40:13Z</time>
      </trkpt>
      <trkpt lat="43.620880" lon="6.483200">
       <ele>560</ele>
       <time>2013-10-22T18:40:17Z</time>
      </trkpt>
      <trkpt lat="43.621070" lon="6.483230">
       <ele>558</ele>
       <time>2013-10-22T18:40:21Z</time>
      </trkpt>
      <trkpt lat="43.621260" lon="6.483220">
       <ele>559</ele>
       <time>2013-10-22T18:40:25Z</time>
      </trkpt>
      <trkpt lat="43.621440" lon="6.483180">
       <ele>550</ele>
       <time>2013-10-22T18:40:29Z</time>
      </trkpt>
      <trkpt lat="43.621620" lon="6.483100">
       <ele>554</ele>
       <time>2013-10-22T18:40:33Z</time>
      </trkpt>
      <trkpt lat="43.622200" lon="6.482770">
       <ele>558</ele>
       <time>2013-10-22T18:40:46Z</time>
      </trkpt>
      <trkpt lat="43.622700" lon="6.482510">
       <ele>560</ele>
       <time>2013-10-22T18:40:57Z</time>
      </trkpt>
      <trkpt lat="43.623290" lon="6.482140">
       <ele>559</ele>
       <time>2013-10-22T18:41:10Z</time>
      </trkpt>
      <trkpt lat="43.623420" lon="6.482120">
       <ele>559</ele>
       <time>2013-10-22T18:41:13Z</time>
      </trkpt>
      <trkpt lat="43.623550" lon="6.482160">
       <ele>561</ele>
       <time>2013-10-22T18:41:16Z</time>
      </trkpt>
      <trkpt lat="43.623810" lon="6.482360">
       <ele>563</ele>
       <time>2013-10-22T18:41:22Z</time>
      </trkpt>
      <trkpt lat="43.624320" lon="6.482820">
       <ele>580</ele>
       <time>2013-10-22T18:41:34Z</time>
      </trkpt>
      <trkpt lat="43.624980" lon="6.483330">
       <ele>589</ele>
       <time>2013-10-22T18:41:50Z</time>
      </trkpt>
      <trkpt lat="43.625330" lon="6.483760">
       <ele>590</ele>
       <time>2013-10-22T18:42:00Z</time>
      </trkpt>
      <trkpt lat="43.625510" lon="6.484080">
       <ele>588</ele>
       <time>2013-10-22T18:42:06Z</time>
      </trkpt>
      <trkpt lat="43.625590" lon="6.484230">
       <ele>588</ele>
       <time>2013-10-22T18:42:09Z</time>
      </trkpt>
      <trkpt lat="43.625710" lon="6.484550">
       <ele>585</ele>
       <time>2013-10-22T18:42:14Z</time>
      </trkpt>
      <trkpt lat="43.625750" lon="6.484720">
       <ele>586</ele>
       <time>2013-10-22T18:42:17Z</time>
      </trkpt>
      <trkpt lat="43.625820" lon="6.484840">
       <ele>586</ele>
       <time>2013-10-22T18:42:19Z</time>
      </trkpt>
      <trkpt lat="43.625990" lon="6.484990">
       <ele>585</ele>
       <time>2013-10-22T18:42:23Z</time>
      </trkpt>
      <trkpt lat="43.626090" lon="6.485040">
       <ele>585</ele>
       <time>2013-10-22T18:42:25Z</time>
      </trkpt>
      <trkpt lat="43.626170" lon="6.485030">
       <ele>585</ele>
       <time>2013-10-22T18:42:27Z</time>
      </trkpt>
      <trkpt lat="43.626250" lon="6.484960">
       <ele>585</ele>
       <time>2013-10-22T18:42:29Z</time>
      </trkpt>
      <trkpt lat="43.626350" lon="6.484750">
       <ele>584</ele>
       <time>2013-10-22T18:42:33Z</time>
      </trkpt>
      <trkpt lat="43.626410" lon="6.484450">
       <ele>584</ele>
       <time>2013-10-22T18:42:37Z</time>
      </trkpt>
      <trkpt lat="43.626540" lon="6.483350">
       <ele>588</ele>
       <time>2013-10-22T18:42:54Z</time>
      </trkpt>
      <trkpt lat="43.626640" lon="6.482990">
       <ele>588</ele>
       <time>2013-10-22T18:43:00Z</time>
      </trkpt>
      <trkpt lat="43.626830" lon="6.482470">
       <ele>590</ele>
       <time>2013-10-22T18:43:09Z</time>
      </trkpt>
      <trkpt lat="43.626930" lon="6.482090">
       <ele>590</ele>
       <time>2013-10-22T18:43:15Z</time>
      </trkpt>
      <trkpt lat="43.627060" lon="6.481410">
       <ele>585</ele>
       <time>2013-10-22T18:43:25Z</time>
      </trkpt>
      <trkpt lat="43.627110" lon="6.481280">
       <ele>589</ele>
       <time>2013-10-22T18:43:28Z</time>
      </trkpt>
      <trkpt lat="43.627190" lon="6.481180">
       <ele>587</ele>
       <time>2013-10-22T18:43:30Z</time>
      </trkpt>
      <trkpt lat="43.627270" lon="6.481120">
       <ele>587</ele>
       <time>2013-10-22T18:43:32Z</time>
      </trkpt>
      <trkpt lat="43.627360" lon="6.481110">
       <ele>587</ele>
       <time>2013-10-22T18:43:34Z</time>
      </trkpt>
      <trkpt lat="43.627440" lon="6.481150">
       <ele>592</ele>
       <time>2013-10-22T18:43:35Z</time>
      </trkpt>
      <trkpt lat="43.627510" lon="6.481240">
       <ele>592</ele>
       <time>2013-10-22T18:43:37Z</time>
      </trkpt>
      <trkpt lat="43.627540" lon="6.481360">
       <ele>594</ele>
       <time>2013-10-22T18:43:39Z</time>
      </trkpt>
      <trkpt lat="43.627560" lon="6.481630">
       <ele>596</ele>
       <time>2013-10-22T18:43:43Z</time>
      </trkpt>
      <trkpt lat="43.627460" lon="6.483080">
       <ele>601</ele>
       <time>2013-10-22T18:44:05Z</time>
      </trkpt>
      <trkpt lat="43.627490" lon="6.483410">
       <ele>602</ele>
       <time>2013-10-22T18:44:10Z</time>
      </trkpt>
      <trkpt lat="43.627540" lon="6.483560">
       <ele>603</ele>
       <time>2013-10-22T18:44:13Z</time>
      </trkpt>
      <trkpt lat="43.627620" lon="6.483680">
       <ele>603</ele>
       <time>2013-10-22T18:44:15Z</time>
      </trkpt>
      <trkpt lat="43.627720" lon="6.483800">
       <ele>611</ele>
       <time>2013-10-22T18:44:18Z</time>
      </trkpt>
      <trkpt lat="43.628100" lon="6.484180">
       <ele>617</ele>
       <time>2013-10-22T18:44:28Z</time>
      </trkpt>
      <trkpt lat="43.628180" lon="6.484280">
       <ele>617</ele>
       <time>2013-10-22T18:44:30Z</time>
      </trkpt>
      <trkpt lat="43.628230" lon="6.484380">
       <ele>624</ele>
       <time>2013-10-22T18:44:32Z</time>
      </trkpt>
      <trkpt lat="43.628250" lon="6.484510">
       <ele>624</ele>
       <time>2013-10-22T18:44:34Z</time>
      </trkpt>
      <trkpt lat="43.628180" lon="6.484760">
       <ele>618</ele>
       <time>2013-10-22T18:44:38Z</time>
      </trkpt>
      <trkpt lat="43.628020" lon="6.485210">
       <ele>618</ele>
       <time>2013-10-22T18:44:45Z</time>
      </trkpt>
      <trkpt lat="43.628010" lon="6.485400">
       <ele>618</ele>
       <time>2013-10-22T18:44:48Z</time>
      </trkpt>
      <trkpt lat="43.628020" lon="6.485580">
       <ele>619</ele>
       <time>2013-10-22T18:44:51Z</time>
      </trkpt>
      <trkpt lat="43.628130" lon="6.486300">
       <ele>620</ele>
       <time>2013-10-22T18:45:02Z</time>
      </trkpt>
      <trkpt lat="43.628150" lon="6.486850">
       <ele>621</ele>
       <time>2013-10-22T18:45:10Z</time>
      </trkpt>
      <trkpt lat="43.628180" lon="6.487020">
       <ele>621</ele>
       <time>2013-10-22T18:45:13Z</time>
      </trkpt>
      <trkpt lat="43.628300" lon="6.487340">
       <ele>627</ele>
       <time>2013-10-22T18:45:18Z</time>
      </trkpt>
      <trkpt lat="43.628590" lon="6.487970">
       <ele>636</ele>
       <time>2013-10-22T18:45:29Z</time>
      </trkpt>
      <trkpt lat="43.628600" lon="6.488120">
       <ele>636</ele>
       <time>2013-10-22T18:45:32Z</time>
      </trkpt>
      <trkpt lat="43.628550" lon="6.488430">
       <ele>637</ele>
       <time>2013-10-22T18:45:36Z</time>
      </trkpt>
      <trkpt lat="43.628440" lon="6.488730">
       <ele>631</ele>
       <time>2013-10-22T18:45:41Z</time>
      </trkpt>
      <trkpt lat="43.628360" lon="6.489220">
       <ele>634</ele>
       <time>2013-10-22T18:45:49Z</time>
      </trkpt>
      <trkpt lat="43.628360" lon="6.489800">
       <ele>636</ele>
       <time>2013-10-22T18:45:58Z</time>
      </trkpt>
      <trkpt lat="43.628300" lon="6.490760">
       <ele>642</ele>
       <time>2013-10-22T18:46:12Z</time>
      </trkpt>
      <trkpt lat="43.628310" lon="6.491130">
       <ele>643</ele>
       <time>2013-10-22T18:46:18Z</time>
      </trkpt>
      <trkpt lat="43.628390" lon="6.491460">
       <ele>643</ele>
       <time>2013-10-22T18:46:23Z</time>
      </trkpt>
      <trkpt lat="43.628600" lon="6.491960">
       <ele>646</ele>
       <time>2013-10-22T18:46:31Z</time>
      </trkpt>
      <trkpt lat="43.628760" lon="6.492280">
       <ele>649</ele>
       <time>2013-10-22T18:46:37Z</time>
      </trkpt>
      <trkpt lat="43.629050" lon="6.492620">
       <ele>651</ele>
       <time>2013-10-22T18:46:45Z</time>
      </trkpt>
      <trkpt lat="43.629260" lon="6.492760">
       <ele>648</ele>
       <time>2013-10-22T18:46:50Z</time>
      </trkpt>
      <trkpt lat="43.629370" lon="6.492780">
       <ele>652</ele>
       <time>2013-10-22T18:46:52Z</time>
      </trkpt>
      <trkpt lat="43.629470" lon="6.492760">
       <ele>652</ele>
       <time>2013-10-22T18:46:54Z</time>
      </trkpt>
      <trkpt lat="43.629550" lon="6.492700">
       <ele>652</ele>
       <time>2013-10-22T18:46:56Z</time>
      </trkpt>
      <trkpt lat="43.629680" lon="6.492560">
       <ele>656</ele>
       <time>2013-10-22T18:47:00Z</time>
      </trkpt>
      <trkpt lat="43.629600" lon="6.492860">
       <ele>655</ele>
       <time>2013-10-22T18:47:05Z</time>
      </trkpt>
      <trkpt lat="43.629450" lon="6.493620">
       <ele>647</ele>
       <time>2013-10-22T18:47:16Z</time>
      </trkpt>
      <trkpt lat="43.629330" lon="6.493820">
       <ele>646</ele>
       <time>2013-10-22T18:47:20Z</time>
      </trkpt>
      <trkpt lat="43.629250" lon="6.494080">
       <ele>640</ele>
       <time>2013-10-22T18:47:25Z</time>
      </trkpt>
      <trkpt lat="43.629230" lon="6.494330">
       <ele>639</ele>
       <time>2013-10-22T18:47:28Z</time>
      </trkpt>
      <trkpt lat="43.629390" lon="6.495060">
       <ele>638</ele>
       <time>2013-10-22T18:47:40Z</time>
      </trkpt>
      <trkpt lat="43.629490" lon="6.495360">
       <ele>635</ele>
       <time>2013-10-22T18:47:45Z</time>
      </trkpt>
      <trkpt lat="43.629730" lon="6.495610">
       <ele>634</ele>
       <time>2013-10-22T18:47:51Z</time>
      </trkpt>
      <trkpt lat="43.630020" lon="6.495870">
       <ele>632</ele>
       <time>2013-10-22T18:47:58Z</time>
      </trkpt>
      <trkpt lat="43.630400" lon="6.496120">
       <ele>631</ele>
       <time>2013-10-22T18:48:07Z</time>
      </trkpt>
      <trkpt lat="43.630530" lon="6.496230">
       <ele>634</ele>
       <time>2013-10-22T18:48:10Z</time>
      </trkpt>
      <trkpt lat="43.630610" lon="6.496410">
       <ele>631</ele>
       <time>2013-10-22T18:48:13Z</time>
      </trkpt>
      <trkpt lat="43.630630" lon="6.496580">
       <ele>629</ele>
       <time>2013-10-22T18:48:16Z</time>
      </trkpt>
      <trkpt lat="43.630580" lon="6.496820">
       <ele>628</ele>
       <time>2013-10-22T18:48:19Z</time>
      </trkpt>
      <trkpt lat="43.630340" lon="6.497400">
       <ele>624</ele>
       <time>2013-10-22T18:48:30Z</time>
      </trkpt>
      <trkpt lat="43.630180" lon="6.497860">
       <ele>625</ele>
       <time>2013-10-22T18:48:37Z</time>
      </trkpt>
      <trkpt lat="43.629970" lon="6.498530">
       <ele>624</ele>
       <time>2013-10-22T18:48:48Z</time>
      </trkpt>
      <trkpt lat="43.629730" lon="6.499420">
       <ele>622</ele>
       <time>2013-10-22T18:49:02Z</time>
      </trkpt>
      <trkpt lat="43.629530" lon="6.499850">
       <ele>618</ele>
       <time>2013-10-22T18:49:10Z</time>
      </trkpt>
      <trkpt lat="43.629020" lon="6.500440">
       <ele>614</ele>
       <time>2013-10-22T18:49:24Z</time>
      </trkpt>
      <trkpt lat="43.628390" lon="6.501020">
       <ele>612</ele>
       <time>2013-10-22T18:49:40Z</time>
      </trkpt>
      <trkpt lat="43.627890" lon="6.501390">
       <ele>609</ele>
       <time>2013-10-22T18:49:51Z</time>
      </trkpt>
      <trkpt lat="43.627360" lon="6.501820">
       <ele>607</ele>
       <time>2013-10-22T18:50:04Z</time>
      </trkpt>
      <trkpt lat="43.626960" lon="6.502300">
       <ele>604</ele>
       <time>2013-10-22T18:50:15Z</time>
      </trkpt>
      <trkpt lat="43.626750" lon="6.502680">
       <ele>602</ele>
       <time>2013-10-22T18:50:22Z</time>
      </trkpt>
      <trkpt lat="43.626620" lon="6.503040">
       <ele>602</ele>
       <time>2013-10-22T18:50:28Z</time>
      </trkpt>
      <trkpt lat="43.626530" lon="6.503570">
       <ele>600</ele>
       <time>2013-10-22T18:50:36Z</time>
      </trkpt>
      <trkpt lat="43.626450" lon="6.504310">
       <ele>597</ele>
       <time>2013-10-22T18:50:48Z</time>
      </trkpt>
      <trkpt lat="43.626360" lon="6.504840">
       <ele>597</ele>
       <time>2013-10-22T18:50:56Z</time>
      </trkpt>
      <trkpt lat="43.626280" lon="6.505720">
       <ele>601</ele>
       <time>2013-10-22T18:51:09Z</time>
      </trkpt>
      <trkpt lat="43.626270" lon="6.506330">
       <ele>603</ele>
       <time>2013-10-22T18:51:18Z</time>
      </trkpt>
      <trkpt lat="43.626300" lon="6.507150">
       <ele>606</ele>
       <time>2013-10-22T18:51:31Z</time>
      </trkpt>
      <trkpt lat="43.626640" lon="6.509160">
       <ele>610</ele>
       <time>2013-10-22T18:52:02Z</time>
      </trkpt>
      <trkpt lat="43.626540" lon="6.510400">
       <ele>611</ele>
       <time>2013-10-22T18:52:20Z</time>
      </trkpt>
      <trkpt lat="43.625790" lon="6.514100">
       <ele>609</ele>
       <time>2013-10-22T18:53:18Z</time>
      </trkpt>
      <trkpt lat="43.625560" lon="6.515090">
       <ele>613</ele>
       <time>2013-10-22T18:53:34Z</time>
      </trkpt>
      <trkpt lat="43.625460" lon="6.515760">
       <ele>610</ele>
       <time>2013-10-22T18:53:44Z</time>
      </trkpt>
      <trkpt lat="43.625350" lon="6.516170">
       <ele>614</ele>
       <time>2013-10-22T18:53:50Z</time>
      </trkpt>
      <trkpt lat="43.625110" lon="6.516680">
       <ele>615</ele>
       <time>2013-10-22T18:54:00Z</time>
      </trkpt>
      <trkpt lat="43.624710" lon="6.517370">
       <ele>615</ele>
       <time>2013-10-22T18:54:13Z</time>
      </trkpt>
      <trkpt lat="43.624030" lon="6.518150">
       <ele>619</ele>
       <time>2013-10-22T18:54:31Z</time>
      </trkpt>
      <trkpt lat="43.623890" lon="6.518420">
       <ele>620</ele>
       <time>2013-10-22T18:54:36Z</time>
      </trkpt>
      <trkpt lat="43.623820" lon="6.518770">
       <ele>617</ele>
       <time>2013-10-22T18:54:42Z</time>
      </trkpt>
      <trkpt lat="43.623690" lon="6.520250">
       <ele>611</ele>
       <time>2013-10-22T18:55:04Z</time>
      </trkpt>
      <trkpt lat="43.623630" lon="6.520660">
       <ele>611</ele>
       <time>2013-10-22T18:55:10Z</time>
      </trkpt>
      <trkpt lat="43.622730" lon="6.524640">
       <ele>618</ele>
       <time>2013-10-22T18:56:13Z</time>
      </trkpt>
      <trkpt lat="43.622020" lon="6.526150">
       <ele>624</ele>
       <time>2013-10-22T18:56:40Z</time>
      </trkpt>
      <trkpt lat="43.621810" lon="6.527550">
       <ele>623</ele>
       <time>2013-10-22T18:57:01Z</time>
      </trkpt>
      <trkpt lat="43.621710" lon="6.527970">
       <ele>624</ele>
       <time>2013-10-22T18:57:08Z</time>
      </trkpt>
      <trkpt lat="43.621570" lon="6.528260">
       <ele>625</ele>
       <time>2013-10-22T18:57:13Z</time>
      </trkpt>
      <trkpt lat="43.621470" lon="6.528570">
       <ele>625</ele>
       <time>2013-10-22T18:57:18Z</time>
      </trkpt>
      <trkpt lat="43.621330" lon="6.528850">
       <ele>625</ele>
       <time>2013-10-22T18:57:23Z</time>
      </trkpt>
      <trkpt lat="43.621100" lon="6.529110">
       <ele>625</ele>
       <time>2013-10-22T18:57:30Z</time>
      </trkpt>
      <trkpt lat="43.620620" lon="6.529740">
       <ele>626</ele>
       <time>2013-10-22T18:57:43Z</time>
      </trkpt>
      <trkpt lat="43.620460" lon="6.530070">
       <ele>625</ele>
       <time>2013-10-22T18:57:49Z</time>
      </trkpt>
      <trkpt lat="43.620360" lon="6.530410">
       <ele>625</ele>
       <time>2013-10-22T18:57:55Z</time>
      </trkpt>
      <trkpt lat="43.620310" lon="6.530700">
       <ele>623</ele>
       <time>2013-10-22T18:57:59Z</time>
      </trkpt>
      <trkpt lat="43.620010" lon="6.531440">
       <ele>623</ele>
       <time>2013-10-22T18:58:12Z</time>
      </trkpt>
      <trkpt lat="43.619860" lon="6.531900">
       <ele>624</ele>
       <time>2013-10-22T18:58:20Z</time>
      </trkpt>
      <trkpt lat="43.619830" lon="6.532550">
       <ele>620</ele>
       <time>2013-10-22T18:58:29Z</time>
      </trkpt>
      <trkpt lat="43.619720" lon="6.533030">
       <ele>614</ele>
       <time>2013-10-22T18:58:37Z</time>
      </trkpt>
      <trkpt lat="43.619540" lon="6.533330">
       <ele>616</ele>
       <time>2013-10-22T18:58:43Z</time>
      </trkpt>
      <trkpt lat="43.619540" lon="6.533460">
       <ele>616</ele>
       <time>2013-10-22T18:58:45Z</time>
      </trkpt>
      <trkpt lat="43.619620" lon="6.533540">
       <ele>608</ele>
       <time>2013-10-22T18:58:47Z</time>
      </trkpt>
      <trkpt lat="43.619720" lon="6.533540">
       <ele>608</ele>
       <time>2013-10-22T18:58:49Z</time>
      </trkpt>
      <trkpt lat="43.619780" lon="6.533360">
       <ele>611</ele>
       <time>2013-10-22T18:58:52Z</time>
      </trkpt>
      <trkpt lat="43.619830" lon="6.533100">
       <ele>614</ele>
       <time>2013-10-22T18:58:56Z</time>
      </trkpt>
      <trkpt lat="43.620020" lon="6.532840">
       <ele>615</ele>
       <time>2013-10-22T18:59:01Z</time>
      </trkpt>
      <trkpt lat="43.620150" lon="6.532580">
       <ele>615</ele>
       <time>2013-10-22T18:59:06Z</time>
      </trkpt>
      <trkpt lat="43.620280" lon="6.532560">
       <ele>615</ele>
       <time>2013-10-22T18:59:09Z</time>
      </trkpt>
      <trkpt lat="43.620380" lon="6.532640">
       <ele>613</ele>
       <time>2013-10-22T18:59:11Z</time>
      </trkpt>
      <trkpt lat="43.620360" lon="6.533500">
       <ele>605</ele>
       <time>2013-10-22T18:59:24Z</time>
      </trkpt>
      <trkpt lat="43.620540" lon="6.536630">
       <ele>577</ele>
       <time>2013-10-22T19:00:11Z</time>
      </trkpt>
      <trkpt lat="43.620640" lon="6.537350">
       <ele>570</ele>
       <time>2013-10-22T19:00:22Z</time>
      </trkpt>
      <trkpt lat="43.620730" lon="6.537710">
       <ele>572</ele>
       <time>2013-10-22T19:00:28Z</time>
      </trkpt>
      <trkpt lat="43.620860" lon="6.537800">
       <ele>572</ele>
       <time>2013-10-22T19:00:31Z</time>
      </trkpt>
      <trkpt lat="43.621010" lon="6.537850">
       <ele>578</ele>
       <time>2013-10-22T19:00:34Z</time>
      </trkpt>
      <trkpt lat="43.621090" lon="6.537970">
       <ele>575</ele>
       <time>2013-10-22T19:00:37Z</time>
      </trkpt>
      <trkpt lat="43.621090" lon="6.538230">
       <ele>572</ele>
       <time>2013-10-22T19:00:41Z</time>
      </trkpt>
      <trkpt lat="43.620940" lon="6.538790">
       <ele>559</ele>
       <time>2013-10-22T19:00:49Z</time>
      </trkpt>
      <trkpt lat="43.620970" lon="6.539070">
       <ele>554</ele>
       <time>2013-10-22T19:00:54Z</time>
      </trkpt>
      <trkpt lat="43.621050" lon="6.539220">
       <ele>558</ele>
       <time>2013-10-22T19:00:57Z</time>
      </trkpt>
      <trkpt lat="43.621200" lon="6.539300">
       <ele>558</ele>
       <time>2013-10-22T19:01:00Z</time>
      </trkpt>
      <trkpt lat="43.621590" lon="6.539160">
       <ele>564</ele>
       <time>2013-10-22T19:01:08Z</time>
      </trkpt>
      <trkpt lat="43.621890" lon="6.539160">
       <ele>567</ele>
       <time>2013-10-22T19:01:14Z</time>
      </trkpt>
      <trkpt lat="43.622160" lon="6.539230">
       <ele>571</ele>
       <time>2013-10-22T19:01:20Z</time>
      </trkpt>
      <trkpt lat="43.622310" lon="6.539330">
       <ele>568</ele>
       <time>2013-10-22T19:01:24Z</time>
      </trkpt>
      <trkpt lat="43.622360" lon="6.539410">
       <ele>568</ele>
       <time>2013-10-22T19:01:25Z</time>
      </trkpt>
      <trkpt lat="43.622360" lon="6.539510">
       <ele>568</ele>
       <time>2013-10-22T19:01:27Z</time>
      </trkpt>
      <trkpt lat="43.622160" lon="6.539910">
       <ele>563</ele>
       <time>2013-10-22T19:01:34Z</time>
      </trkpt>
      <trkpt lat="43.622100" lon="6.540080">
       <ele>563</ele>
       <time>2013-10-22T19:01:37Z</time>
      </trkpt>
      <trkpt lat="43.622020" lon="6.540580">
       <ele>551</ele>
       <time>2013-10-22T19:01:44Z</time>
      </trkpt>
      <trkpt lat="43.621880" lon="6.541040">
       <ele>552</ele>
       <time>2013-10-22T19:01:52Z</time>
      </trkpt>
      <trkpt lat="43.621840" lon="6.541280">
       <ele>553</ele>
       <time>2013-10-22T19:01:56Z</time>
      </trkpt>
      <trkpt lat="43.621630" lon="6.541910">
       <ele>543</ele>
       <time>2013-10-22T19:02:06Z</time>
      </trkpt>
      <trkpt lat="43.621600" lon="6.542050">
       <ele>543</ele>
       <time>2013-10-22T19:02:08Z</time>
      </trkpt>
      <trkpt lat="43.621590" lon="6.542500">
       <ele>546</ele>
       <time>2013-10-22T19:02:15Z</time>
      </trkpt>
      <trkpt lat="43.621540" lon="6.542770">
       <ele>547</ele>
       <time>2013-10-22T19:02:19Z</time>
      </trkpt>
      <trkpt lat="43.621420" lon="6.542990">
       <ele>538</ele>
       <time>2013-10-22T19:02:23Z</time>
      </trkpt>
      <trkpt lat="43.621230" lon="6.543240">
       <ele>529</ele>
       <time>2013-10-22T19:02:29Z</time>
      </trkpt>
      <trkpt lat="43.620810" lon="6.544050">
       <ele>525</ele>
       <time>2013-10-22T19:02:44Z</time>
      </trkpt>
      <trkpt lat="43.620520" lon="6.544790">
       <ele>521</ele>
       <time>2013-10-22T19:02:56Z</time>
      </trkpt>
      <trkpt lat="43.620330" lon="6.545350">
       <ele>516</ele>
       <time>2013-10-22T19:03:06Z</time>
      </trkpt>
      <trkpt lat="43.620230" lon="6.545750">
       <ele>520</ele>
       <time>2013-10-22T19:03:12Z</time>
      </trkpt>
      <trkpt lat="43.620040" lon="6.546930">
       <ele>514</ele>
       <time>2013-10-22T19:03:30Z</time>
      </trkpt>
      <trkpt lat="43.619990" lon="6.547610">
       <ele>514</ele>
       <time>2013-10-22T19:03:40Z</time>
      </trkpt>
      <trkpt lat="43.620150" lon="6.548160">
       <ele>520</ele>
       <time>2013-10-22T19:03:49Z</time>
      </trkpt>
      <trkpt lat="43.620390" lon="6.548680">
       <ele>513</ele>
       <time>2013-10-22T19:03:59Z</time>
      </trkpt>
      <trkpt lat="43.620930" lon="6.549050">
       <ele>517</ele>
       <time>2013-10-22T19:04:11Z</time>
      </trkpt>
      <trkpt lat="43.621040" lon="6.549190">
       <ele>522</ele>
       <time>2013-10-22T19:04:14Z</time>
      </trkpt>
      <trkpt lat="43.621170" lon="6.549610">
       <ele>514</ele>
       <time>2013-10-22T19:04:21Z</time>
      </trkpt>
      <trkpt lat="43.621590" lon="6.550610">
       <ele>511</ele>
       <time>2013-10-22T19:04:38Z</time>
      </trkpt>
      <trkpt lat="43.621600" lon="6.550700">
       <ele>507</ele>
       <time>2013-10-22T19:04:40Z</time>
      </trkpt>
      <trkpt lat="43.621550" lon="6.550880">
       <ele>507</ele>
       <time>2013-10-22T19:04:43Z</time>
      </trkpt>
      <trkpt lat="43.621420" lon="6.550870">
       <ele>502</ele>
       <time>2013-10-22T19:04:45Z</time>
      </trkpt>
      <trkpt lat="43.621380" lon="6.550850">
       <ele>502</ele>
       <time>2013-10-22T19:04:46Z</time>
      </trkpt>
      <trkpt lat="43.621340" lon="6.550800">
       <ele>502</ele>
       <time>2013-10-22T19:04:47Z</time>
      </trkpt>
      <trkpt lat="43.621310" lon="6.550650">
       <ele>507</ele>
       <time>2013-10-22T19:04:50Z</time>
      </trkpt>
      <trkpt lat="43.621300" lon="6.550370">
       <ele>512</ele>
       <time>2013-10-22T19:04:54Z</time>
      </trkpt>
      <trkpt lat="43.621250" lon="6.550190">
       <ele>512</ele>
       <time>2013-10-22T19:04:57Z</time>
      </trkpt>
      <trkpt lat="43.620930" lon="6.549910">
       <ele>503</ele>
       <time>2013-10-22T19:05:05Z</time>
      </trkpt>
      <trkpt lat="43.620880" lon="6.549840">
       <ele>508</ele>
       <time>2013-10-22T19:05:06Z</time>
      </trkpt>
      <trkpt lat="43.620800" lon="6.549570">
       <ele>513</ele>
       <time>2013-10-22T19:05:10Z</time>
      </trkpt>
      <trkpt lat="43.620760" lon="6.549480">
       <ele>513</ele>
       <time>2013-10-22T19:05:12Z</time>
      </trkpt>
      <trkpt lat="43.620700" lon="6.549400">
       <ele>513</ele>
       <time>2013-10-22T19:05:14Z</time>
      </trkpt>
      <trkpt lat="43.620020" lon="6.549020">
       <ele>499</ele>
       <time>2013-10-22T19:05:29Z</time>
      </trkpt>
      <trkpt lat="43.619940" lon="6.548950">
       <ele>499</ele>
       <time>2013-10-22T19:05:31Z</time>
      </trkpt>
      <trkpt lat="43.619820" lon="6.548780">
       <ele>489</ele>
       <time>2013-10-22T19:05:35Z</time>
      </trkpt>
      <trkpt lat="43.619400" lon="6.547850">
       <ele>491</ele>
       <time>2013-10-22T19:05:51Z</time>
      </trkpt>
      <trkpt lat="43.619320" lon="6.547610">
       <ele>492</ele>
       <time>2013-10-22T19:05:55Z</time>
      </trkpt>
      <trkpt lat="43.619250" lon="6.547280">
       <ele>483</ele>
       <time>2013-10-22T19:06:00Z</time>
      </trkpt>
      <trkpt lat="43.619190" lon="6.547140">
       <ele>483</ele>
       <time>2013-10-22T19:06:03Z</time>
      </trkpt>
      <trkpt lat="43.619090" lon="6.547140">
       <ele>483</ele>
       <time>2013-10-22T19:06:05Z</time>
      </trkpt>
      <trkpt lat="43.619040" lon="6.547190">
       <ele>483</ele>
       <time>2013-10-22T19:06:06Z</time>
      </trkpt>
      <trkpt lat="43.619010" lon="6.547270">
       <ele>474</ele>
       <time>2013-10-22T19:06:07Z</time>
      </trkpt>
      <trkpt lat="43.619010" lon="6.547360">
       <ele>474</ele>
       <time>2013-10-22T19:06:09Z</time>
      </trkpt>
      <trkpt lat="43.619040" lon="6.547460">
       <ele>482</ele>
       <time>2013-10-22T19:06:10Z</time>
      </trkpt>
      <trkpt lat="43.619200" lon="6.547770">
       <ele>481</ele>
       <time>2013-10-22T19:06:16Z</time>
      </trkpt>
      <trkpt lat="43.619510" lon="6.548840">
       <ele>479</ele>
       <time>2013-10-22T19:06:33Z</time>
      </trkpt>
      <trkpt lat="43.619620" lon="6.549100">
       <ele>484</ele>
       <time>2013-10-22T19:06:38Z</time>
      </trkpt>
      <trkpt lat="43.619730" lon="6.549310">
       <ele>480</ele>
       <time>2013-10-22T19:06:42Z</time>
      </trkpt>
      <trkpt lat="43.620070" lon="6.549870">
       <ele>482</ele>
       <time>2013-10-22T19:06:53Z</time>
      </trkpt>
      <trkpt lat="43.620110" lon="6.550030">
       <ele>482</ele>
       <time>2013-10-22T19:06:55Z</time>
      </trkpt>
      <trkpt lat="43.620090" lon="6.550280">
       <ele>479</ele>
       <time>2013-10-22T19:06:59Z</time>
      </trkpt>
      <trkpt lat="43.619990" lon="6.550580">
       <ele>478</ele>
       <time>2013-10-22T19:07:04Z</time>
      </trkpt>
      <trkpt lat="43.619930" lon="6.550670">
       <ele>478</ele>
       <time>2013-10-22T19:07:06Z</time>
      </trkpt>
      <trkpt lat="43.619650" lon="6.550920">
       <ele>473</ele>
       <time>2013-10-22T19:07:13Z</time>
      </trkpt>
      <trkpt lat="43.619750" lon="6.551300">
       <ele>474</ele>
       <time>2013-10-22T19:07:19Z</time>
      </trkpt>
      <trkpt lat="43.619980" lon="6.551440">
       <ele>477</ele>
       <time>2013-10-22T19:07:24Z</time>
      </trkpt>
      <trkpt lat="43.621420" lon="6.552590">
       <ele>470</ele>
       <time>2013-10-22T19:07:58Z</time>
      </trkpt>
      <trkpt lat="43.622410" lon="6.552550">
       <ele>472</ele>
       <time>2013-10-22T19:08:19Z</time>
      </trkpt>
      <trkpt lat="43.623450" lon="6.552210">
       <ele>469</ele>
       <time>2013-10-22T19:08:41Z</time>
      </trkpt>
      <trkpt lat="43.624400" lon="6.550500">
       <ele>489</ele>
       <time>2013-10-22T19:09:13Z</time>
      </trkpt>
      <trkpt lat="43.624790" lon="6.550370">
       <ele>495</ele>
       <time>2013-10-22T19:09:22Z</time>
      </trkpt>
      <trkpt lat="43.624950" lon="6.550640">
       <ele>493</ele>
       <time>2013-10-22T19:09:27Z</time>
      </trkpt>
      <trkpt lat="43.624930" lon="6.552150">
       <ele>468</ele>
       <time>2013-10-22T19:09:50Z</time>
      </trkpt>
      <trkpt lat="43.625140" lon="6.552380">
       <ele>473</ele>
       <time>2013-10-22T19:09:55Z</time>
      </trkpt>
      <trkpt lat="43.625400" lon="6.552830">
       <ele>471</ele>
       <time>2013-10-22T19:10:04Z</time>
      </trkpt>
      <trkpt lat="43.625460" lon="6.553490">
       <ele>477</ele>
       <time>2013-10-22T19:10:14Z</time>
      </trkpt>
      <trkpt lat="43.625660" lon="6.553980">
       <ele>475</ele>
       <time>2013-10-22T19:10:22Z</time>
      </trkpt>
      <trkpt lat="43.625850" lon="6.554530">
       <ele>482</ele>
       <time>2013-10-22T19:10:31Z</time>
      </trkpt>
      <trkpt lat="43.625770" lon="6.555270">
       <ele>480</ele>
       <time>2013-10-22T19:10:43Z</time>
      </trkpt>
      <trkpt lat="43.625720" lon="6.556410">
       <ele>482</ele>
       <time>2013-10-22T19:11:00Z</time>
      </trkpt>
      <trkpt lat="43.625620" lon="6.557240">
       <ele>479</ele>
       <time>2013-10-22T19:11:12Z</time>
      </trkpt>
      <trkpt lat="43.625870" lon="6.557500">
       <ele>484</ele>
       <time>2013-10-22T19:11:19Z</time>
      </trkpt>
      <trkpt lat="43.626200" lon="6.558070">
       <ele>488</ele>
       <time>2013-10-22T19:11:30Z</time>
      </trkpt>
      <trkpt lat="43.626330" lon="6.558790">
       <ele>488</ele>
       <time>2013-10-22T19:11:41Z</time>
      </trkpt>
      <trkpt lat="43.626540" lon="6.559260">
       <ele>495</ele>
       <time>2013-10-22T19:11:49Z</time>
      </trkpt>
      <trkpt lat="43.626360" lon="6.559890">
       <ele>484</ele>
       <time>2013-10-22T19:12:00Z</time>
      </trkpt>
      <trkpt lat="43.626380" lon="6.560270">
       <ele>484</ele>
       <time>2013-10-22T19:12:05Z</time>
      </trkpt>
      <trkpt lat="43.626460" lon="6.560620">
       <ele>485</ele>
       <time>2013-10-22T19:12:11Z</time>
      </trkpt>
      <trkpt lat="43.626280" lon="6.562570">
       <ele>486</ele>
       <time>2013-10-22T19:12:40Z</time>
      </trkpt>
      <trkpt lat="43.625990" lon="6.562900">
       <ele>475</ele>
       <time>2013-10-22T19:12:48Z</time>
      </trkpt>
      <trkpt lat="43.626010" lon="6.563120">
       <ele>474</ele>
       <time>2013-10-22T19:12:51Z</time>
      </trkpt>
      <trkpt lat="43.626220" lon="6.563310">
       <ele>472</ele>
       <time>2013-10-22T19:12:57Z</time>
      </trkpt>
      <trkpt lat="43.626780" lon="6.563710">
       <ele>492</ele>
       <time>2013-10-22T19:13:10Z</time>
      </trkpt>
      <trkpt lat="43.627010" lon="6.564520">
       <ele>499</ele>
       <time>2013-10-22T19:13:23Z</time>
      </trkpt>
      <trkpt lat="43.626910" lon="6.565070">
       <ele>500</ele>
       <time>2013-10-22T19:13:31Z</time>
      </trkpt>
      <trkpt lat="43.626540" lon="6.565960">
       <ele>494</ele>
       <time>2013-10-22T19:13:47Z</time>
      </trkpt>
      <trkpt lat="43.626380" lon="6.566150">
       <ele>486</ele>
       <time>2013-10-22T19:13:51Z</time>
      </trkpt>
      <trkpt lat="43.626530" lon="6.567720">
       <ele>488</ele>
       <time>2013-10-22T19:14:15Z</time>
      </trkpt>
      <trkpt lat="43.627330" lon="6.568440">
       <ele>492</ele>
       <time>2013-10-22T19:14:35Z</time>
      </trkpt>
      <trkpt lat="43.627890" lon="6.568210">
       <ele>500</ele>
       <time>2013-10-22T19:14:47Z</time>
      </trkpt>
      <trkpt lat="43.628330" lon="6.568550">
       <ele>503</ele>
       <time>2013-10-22T19:14:57Z</time>
      </trkpt>
      <trkpt lat="43.628360" lon="6.569100">
       <ele>492</ele>
       <time>2013-10-22T19:15:05Z</time>
      </trkpt>
      <trkpt lat="43.628840" lon="6.569270">
       <ele>504</ele>
       <time>2013-10-22T19:15:16Z</time>
      </trkpt>
      <trkpt lat="43.629080" lon="6.569500">
       <ele>507</ele>
       <time>2013-10-22T19:15:22Z</time>
      </trkpt>
      <trkpt lat="43.629150" lon="6.570100">
       <ele>502</ele>
       <time>2013-10-22T19:15:31Z</time>
      </trkpt>
      <trkpt lat="43.629020" lon="6.570770">
       <ele>491</ele>
       <time>2013-10-22T19:15:41Z</time>
      </trkpt>
      <trkpt lat="43.629070" lon="6.571430">
       <ele>499</ele>
       <time>2013-10-22T19:15:51Z</time>
      </trkpt>
      <trkpt lat="43.629580" lon="6.571920">
       <ele>504</ele>
       <time>2013-10-22T19:16:04Z</time>
      </trkpt>
      <trkpt lat="43.630210" lon="6.572770">
       <ele>514</ele>
       <time>2013-10-22T19:16:22Z</time>
      </trkpt>
      <trkpt lat="43.630400" lon="6.573660">
       <ele>503</ele>
       <time>2013-10-22T19:16:36Z</time>
      </trkpt>
      <trkpt lat="43.630630" lon="6.575190">
       <ele>504</ele>
       <time>2013-10-22T19:17:00Z</time>
      </trkpt>
      <trkpt lat="43.631370" lon="6.577070">
       <ele>520</ele>
       <time>2013-10-22T19:17:32Z</time>
      </trkpt>
      <trkpt lat="43.631350" lon="6.578580">
       <ele>509</ele>
       <time>2013-10-22T19:17:55Z</time>
      </trkpt>
      <trkpt lat="43.631590" lon="6.579700">
       <ele>516</ele>
       <time>2013-10-22T19:18:12Z</time>
      </trkpt>
      <trkpt lat="43.632140" lon="6.580720">
       <ele>529</ele>
       <time>2013-10-22T19:18:31Z</time>
      </trkpt>
      <trkpt lat="43.631980" lon="6.581250">
       <ele>531</ele>
       <time>2013-10-22T19:18:40Z</time>
      </trkpt>
      <trkpt lat="43.631510" lon="6.581400">
       <ele>527</ele>
       <time>2013-10-22T19:18:50Z</time>
      </trkpt>
      <trkpt lat="43.630480" lon="6.581190">
       <ele>521</ele>
       <time>2013-10-22T19:19:11Z</time>
      </trkpt>
      <trkpt lat="43.629710" lon="6.580980">
       <ele>531</ele>
       <time>2013-10-22T19:19:28Z</time>
      </trkpt>
      <trkpt lat="43.629020" lon="6.580890">
       <ele>529</ele>
       <time>2013-10-22T19:19:42Z</time>
      </trkpt>
      <trkpt lat="43.628540" lon="6.580360">
       <ele>520</ele>
       <time>2013-10-22T19:19:55Z</time>
      </trkpt>
      <trkpt lat="43.628310" lon="6.580230">
       <ele>523</ele>
       <time>2013-10-22T19:20:00Z</time>
      </trkpt>
      <trkpt lat="43.628150" lon="6.581420">
       <ele>531</ele>
       <time>2013-10-22T19:20:18Z</time>
      </trkpt>
      <trkpt lat="43.627680" lon="6.584330">
       <ele>539</ele>
       <time>2013-10-22T19:21:03Z</time>
      </trkpt>
      <trkpt lat="43.628130" lon="6.585520">
       <ele>555</ele>
       <time>2013-10-22T19:21:23Z</time>
      </trkpt>
      <trkpt lat="43.627990" lon="6.585940">
       <ele>556</ele>
       <time>2013-10-22T19:21:30Z</time>
      </trkpt>
      <trkpt lat="43.628070" lon="6.586410">
       <ele>559</ele>
       <time>2013-10-22T19:21:37Z</time>
      </trkpt>
      <trkpt lat="43.627390" lon="6.587340">
       <ele>547</ele>
       <time>2013-10-22T19:21:57Z</time>
      </trkpt>
      <trkpt lat="43.627350" lon="6.587910">
       <ele>541</ele>
       <time>2013-10-22T19:22:06Z</time>
      </trkpt>
      <trkpt lat="43.627480" lon="6.588740">
       <ele>555</ele>
       <time>2013-10-22T19:22:18Z</time>
      </trkpt>
      <trkpt lat="43.627540" lon="6.589690">
       <ele>553</ele>
       <time>2013-10-22T19:22:33Z</time>
      </trkpt>
      <trkpt lat="43.627700" lon="6.590420">
       <ele>556</ele>
       <time>2013-10-22T19:22:44Z</time>
      </trkpt>
      <trkpt lat="43.628050" lon="6.591120">
       <ele>556</ele>
       <time>2013-10-22T19:22:57Z</time>
      </trkpt>
      <trkpt lat="43.628540" lon="6.591520">
       <ele>568</ele>
       <time>2013-10-22T19:23:09Z</time>
      </trkpt>
      <trkpt lat="43.628890" lon="6.592370">
       <ele>562</ele>
       <time>2013-10-22T19:23:23Z</time>
      </trkpt>
      <trkpt lat="43.629000" lon="6.593130">
       <ele>559</ele>
       <time>2013-10-22T19:23:35Z</time>
      </trkpt>
      <trkpt lat="43.629000" lon="6.593680">
       <ele>557</ele>
       <time>2013-10-22T19:23:43Z</time>
      </trkpt>
      <trkpt lat="43.629370" lon="6.594470">
       <ele>563</ele>
       <time>2013-10-22T19:23:57Z</time>
      </trkpt>
      <trkpt lat="43.629970" lon="6.594640">
       <ele>576</ele>
       <time>2013-10-22T19:24:10Z</time>
      </trkpt>
      <trkpt lat="43.630480" lon="6.595870">
       <ele>570</ele>
       <time>2013-10-22T19:24:31Z</time>
      </trkpt>
      <trkpt lat="43.631800" lon="6.596670">
       <ele>589</ele>
       <time>2013-10-22T19:25:01Z</time>
      </trkpt>
      <trkpt lat="43.632060" lon="6.596950">
       <ele>592</ele>
       <time>2013-10-22T19:25:08Z</time>
      </trkpt>
      <trkpt lat="43.632330" lon="6.597690">
       <ele>583</ele>
       <time>2013-10-22T19:25:20Z</time>
      </trkpt>
      <trkpt lat="43.632960" lon="6.598540">
       <ele>602</ele>
       <time>2013-10-22T19:25:39Z</time>
      </trkpt>
      <trkpt lat="43.633430" lon="6.599050">
       <ele>600</ele>
       <time>2013-10-22T19:25:51Z</time>
      </trkpt>
      <trkpt lat="43.634200" lon="6.599370">
       <ele>615</ele>
       <time>2013-10-22T19:26:08Z</time>
      </trkpt>
      <trkpt lat="43.634680" lon="6.599730">
       <ele>622</ele>
       <time>2013-10-22T19:26:19Z</time>
      </trkpt>
      <trkpt lat="43.634590" lon="6.600320">
       <ele>620</ele>
       <time>2013-10-22T19:26:28Z</time>
      </trkpt>
      <trkpt lat="43.634350" lon="6.600660">
       <ele>616</ele>
       <time>2013-10-22T19:26:35Z</time>
      </trkpt>
      <trkpt lat="43.633910" lon="6.600810">
       <ele>609</ele>
       <time>2013-10-22T19:26:45Z</time>
      </trkpt>
      <trkpt lat="43.632720" lon="6.601930">
       <ele>623</ele>
       <time>2013-10-22T19:27:15Z</time>
      </trkpt>
      <trkpt lat="43.632210" lon="6.602080">
       <ele>618</ele>
       <time>2013-10-22T19:27:25Z</time>
      </trkpt>
      <trkpt lat="43.631740" lon="6.601760">
       <ele>609</ele>
       <time>2013-10-22T19:27:36Z</time>
      </trkpt>
      <trkpt lat="43.631220" lon="6.601490">
       <ele>605</ele>
       <time>2013-10-22T19:27:48Z</time>
      </trkpt>
      <trkpt lat="43.630950" lon="6.601830">
       <ele>617</ele>
       <time>2013-10-22T19:27:55Z</time>
      </trkpt>
      <trkpt lat="43.630740" lon="6.602340">
       <ele>623</ele>
       <time>2013-10-22T19:28:04Z</time>
      </trkpt>
      <trkpt lat="43.630130" lon="6.602680">
       <ele>623</ele>
       <time>2013-10-22T19:28:18Z</time>
      </trkpt>
      <trkpt lat="43.629970" lon="6.603040">
       <ele>629</ele>
       <time>2013-10-22T19:28:24Z</time>
      </trkpt>
      <trkpt lat="43.629340" lon="6.603230">
       <ele>631</ele>
       <time>2013-10-22T19:28:37Z</time>
      </trkpt>
      <trkpt lat="43.628570" lon="6.604460">
       <ele>641</ele>
       <time>2013-10-22T19:29:02Z</time>
      </trkpt>
      <trkpt lat="43.628020" lon="6.604670">
       <ele>633</ele>
       <time>2013-10-22T19:29:14Z</time>
      </trkpt>
      <trkpt lat="43.627730" lon="6.605410">
       <ele>637</ele>
       <time>2013-10-22T19:29:26Z</time>
      </trkpt>
      <trkpt lat="43.627940" lon="6.606280">
       <ele>649</ele>
       <time>2013-10-22T19:29:40Z</time>
      </trkpt>
      <trkpt lat="43.627410" lon="6.609990">
       <ele>641</ele>
       <time>2013-10-22T19:30:37Z</time>
      </trkpt>
      <trkpt lat="43.626250" lon="6.612070">
       <ele>632</ele>
       <time>2013-10-22T19:31:16Z</time>
      </trkpt>
      <trkpt lat="43.626140" lon="6.612600">
       <ele>627</ele>
       <time>2013-10-22T19:31:25Z</time>
      </trkpt>
      <trkpt lat="43.625820" lon="6.612900">
       <ele>624</ele>
       <time>2013-10-22T19:31:33Z</time>
      </trkpt>
      <trkpt lat="43.624930" lon="6.612860">
       <ele>631</ele>
       <time>2013-10-22T19:31:51Z</time>
      </trkpt>
      <trkpt lat="43.623870" lon="6.613300">
       <ele>622</ele>
       <time>2013-10-22T19:32:14Z</time>
      </trkpt>
      <trkpt lat="43.623260" lon="6.614260">
       <ele>602</ele>
       <time>2013-10-22T19:32:33Z</time>
      </trkpt>
      <trkpt lat="43.622260" lon="6.614410">
       <ele>607</ele>
       <time>2013-10-22T19:32:54Z</time>
      </trkpt>
      <trkpt lat="43.622080" lon="6.614660">
       <ele>601</ele>
       <time>2013-10-22T19:32:59Z</time>
      </trkpt>
      <trkpt lat="43.622450" lon="6.614660">
       <ele>596</ele>
       <time>2013-10-22T19:33:07Z</time>
      </trkpt>
      <trkpt lat="43.622840" lon="6.614450">
       <ele>601</ele>
       <time>2013-10-22T19:33:16Z</time>
      </trkpt>
      <trkpt lat="43.623310" lon="6.614490">
       <ele>593</ele>
       <time>2013-10-22T19:33:25Z</time>
      </trkpt>
      <trkpt lat="43.624800" lon="6.613880">
       <ele>594</ele>
       <time>2013-10-22T19:33:58Z</time>
      </trkpt>
      <trkpt lat="43.625250" lon="6.613950">
       <ele>591</ele>
       <time>2013-10-22T19:34:07Z</time>
      </trkpt>
      <trkpt lat="43.625480" lon="6.614330">
       <ele>575</ele>
       <time>2013-10-22T19:34:14Z</time>
      </trkpt>
      <trkpt lat="43.625620" lon="6.614800">
       <ele>570</ele>
       <time>2013-10-22T19:34:22Z</time>
      </trkpt>
      <trkpt lat="43.625880" lon="6.614900">
       <ele>565</ele>
       <time>2013-10-22T19:34:28Z</time>
      </trkpt>
      <trkpt lat="43.626330" lon="6.614800">
       <ele>570</ele>
       <time>2013-10-22T19:34:37Z</time>
      </trkpt>
      <trkpt lat="43.626910" lon="6.614020">
       <ele>586</ele>
       <time>2013-10-22T19:34:54Z</time>
      </trkpt>
      <trkpt lat="43.627170" lon="6.614080">
       <ele>581</ele>
       <time>2013-10-22T19:34:59Z</time>
      </trkpt>
      <trkpt lat="43.627250" lon="6.614510">
       <ele>576</ele>
       <time>2013-10-22T19:35:06Z</time>
      </trkpt>
      <trkpt lat="43.627330" lon="6.615680">
       <ele>560</ele>
       <time>2013-10-22T19:35:24Z</time>
      </trkpt>
      <trkpt lat="43.627540" lon="6.615920">
       <ele>558</ele>
       <time>2013-10-22T19:35:29Z</time>
      </trkpt>
      <trkpt lat="43.628020" lon="6.615980">
       <ele>558</ele>
       <time>2013-10-22T19:35:39Z</time>
      </trkpt>
      <trkpt lat="43.628420" lon="6.616230">
       <ele>562</ele>
       <time>2013-10-22T19:35:48Z</time>
      </trkpt>
      <trkpt lat="43.628590" lon="6.617090">
       <ele>551</ele>
       <time>2013-10-22T19:36:02Z</time>
      </trkpt>
      <trkpt lat="43.628680" lon="6.617730">
       <ele>547</ele>
       <time>2013-10-22T19:36:12Z</time>
      </trkpt>
      <trkpt lat="43.628630" lon="6.619210">
       <ele>547</ele>
       <time>2013-10-22T19:36:34Z</time>
      </trkpt>
      <trkpt lat="43.628440" lon="6.619970">
       <ele>535</ele>
       <time>2013-10-22T19:36:46Z</time>
      </trkpt>
      <trkpt lat="43.628670" lon="6.621200">
       <ele>536</ele>
       <time>2013-10-22T19:37:05Z</time>
      </trkpt>
      <trkpt lat="43.629200" lon="6.622880">
       <ele>537</ele>
       <time>2013-10-22T19:37:32Z</time>
      </trkpt>
      <trkpt lat="43.629230" lon="6.623970">
       <ele>525</ele>
       <time>2013-10-22T19:37:49Z</time>
      </trkpt>
      <trkpt lat="43.629570" lon="6.624740">
       <ele>519</ele>
       <time>2013-10-22T19:38:02Z</time>
      </trkpt>
      <trkpt lat="43.629820" lon="6.624930">
       <ele>524</ele>
       <time>2013-10-22T19:38:08Z</time>
      </trkpt>
      <trkpt lat="43.629810" lon="6.625170">
       <ele>522</ele>
       <time>2013-10-22T19:38:12Z</time>
      </trkpt>
      <trkpt lat="43.629650" lon="6.625410">
       <ele>522</ele>
       <time>2013-10-22T19:38:17Z</time>
      </trkpt>
      <trkpt lat="43.629410" lon="6.625650">
       <ele>514</ele>
       <time>2013-10-22T19:38:23Z</time>
      </trkpt>
      <trkpt lat="43.628860" lon="6.627530">
       <ele>507</ele>
       <time>2013-10-22T19:38:53Z</time>
      </trkpt>
      <trkpt lat="43.628810" lon="6.628280">
       <ele>507</ele>
       <time>2013-10-22T19:39:05Z</time>
      </trkpt>
      <trkpt lat="43.628360" lon="6.629200">
       <ele>496</ele>
       <time>2013-10-22T19:39:21Z</time>
      </trkpt>
      <trkpt lat="43.628130" lon="6.630290">
       <ele>494</ele>
       <time>2013-10-22T19:39:38Z</time>
      </trkpt>
      <trkpt lat="43.627800" lon="6.630860">
       <ele>489</ele>
       <time>2013-10-22T19:39:49Z</time>
      </trkpt>
      <trkpt lat="43.626990" lon="6.633330">
       <ele>481</ele>
       <time>2013-10-22T19:40:30Z</time>
      </trkpt>
      <trkpt lat="43.626940" lon="6.634080">
       <ele>481</ele>
       <time>2013-10-22T19:40:41Z</time>
      </trkpt>
      <trkpt lat="43.627020" lon="6.634620">
       <ele>480</ele>
       <time>2013-10-22T19:40:50Z</time>
      </trkpt>
      <trkpt lat="43.626650" lon="6.637040">
       <ele>469</ele>
       <time>2013-10-22T19:41:27Z</time>
      </trkpt>
      <trkpt lat="43.626510" lon="6.637440">
       <ele>465</ele>
       <time>2013-10-22T19:41:33Z</time>
      </trkpt>
      <trkpt lat="43.626170" lon="6.637650">
       <ele>465</ele>
       <time>2013-10-22T19:41:41Z</time>
      </trkpt>
      <trkpt lat="43.625720" lon="6.637600">
       <ele>472</ele>
       <time>2013-10-22T19:41:50Z</time>
      </trkpt>
      <trkpt lat="43.625460" lon="6.637740">
       <ele>475</ele>
       <time>2013-10-22T19:41:56Z</time>
      </trkpt>
      <trkpt lat="43.625430" lon="6.637950">
       <ele>472</ele>
       <time>2013-10-22T19:41:59Z</time>
      </trkpt>
      <trkpt lat="43.625590" lon="6.638550">
       <ele>468</ele>
       <time>2013-10-22T19:42:09Z</time>
      </trkpt>
      <trkpt lat="43.625770" lon="6.638860">
       <ele>459</ele>
       <time>2013-10-22T19:42:15Z</time>
      </trkpt>
      <trkpt lat="43.625910" lon="6.638710">
       <ele>462</ele>
       <time>2013-10-22T19:42:19Z</time>
      </trkpt>
      <trkpt lat="43.625830" lon="6.638360">
       <ele>464</ele>
       <time>2013-10-22T19:42:24Z</time>
      </trkpt>
      <trkpt lat="43.625930" lon="6.638110">
       <ele>466</ele>
       <time>2013-10-22T19:42:28Z</time>
      </trkpt>
      <trkpt lat="43.626170" lon="6.638130">
       <ele>462</ele>
       <time>2013-10-22T19:42:33Z</time>
      </trkpt>
      <trkpt lat="43.626670" lon="6.638340">
       <ele>451</ele>
       <time>2013-10-22T19:42:44Z</time>
      </trkpt>
      <trkpt lat="43.626860" lon="6.638240">
       <ele>448</ele>
       <time>2013-10-22T19:42:49Z</time>
      </trkpt>
      <trkpt lat="43.627150" lon="6.637820">
       <ele>453</ele>
       <time>2013-10-22T19:42:57Z</time>
      </trkpt>
      <trkpt lat="43.627880" lon="6.637650">
       <ele>445</ele>
       <time>2013-10-22T19:43:13Z</time>
      </trkpt>
      <trkpt lat="43.628070" lon="6.637550">
       <ele>447</ele>
       <time>2013-10-22T19:43:17Z</time>
      </trkpt>
      <trkpt lat="43.628360" lon="6.637650">
       <ele>443</ele>
       <time>2013-10-22T19:43:23Z</time>
      </trkpt>
      <trkpt lat="43.628680" lon="6.638570">
       <ele>433</ele>
       <time>2013-10-22T19:43:38Z</time>
      </trkpt>
      <trkpt lat="43.629150" lon="6.638900">
       <ele>433</ele>
       <time>2013-10-22T19:43:49Z</time>
      </trkpt>
      <trkpt lat="43.629730" lon="6.639490">
       <ele>424</ele>
       <time>2013-10-22T19:44:04Z</time>
      </trkpt>
      <trkpt lat="43.630470" lon="6.639730">
       <ele>427</ele>
       <time>2013-10-22T19:44:20Z</time>
      </trkpt>
      <trkpt lat="43.630870" lon="6.640540">
       <ele>418</ele>
       <time>2013-10-22T19:44:35Z</time>
      </trkpt>
      <trkpt lat="43.631260" lon="6.640960">
       <ele>424</ele>
       <time>2013-10-22T19:44:45Z</time>
      </trkpt>
      <trkpt lat="43.631260" lon="6.641560">
       <ele>414</ele>
       <time>2013-10-22T19:44:54Z</time>
      </trkpt>
      <trkpt lat="43.631240" lon="6.641930">
       <ele>407</ele>
       <time>2013-10-22T19:44:59Z</time>
      </trkpt>
      <trkpt lat="43.631550" lon="6.642100">
       <ele>409</ele>
       <time>2013-10-22T19:45:06Z</time>
      </trkpt>
      <trkpt lat="43.632950" lon="6.642590">
       <ele>399</ele>
       <time>2013-10-22T19:45:36Z</time>
      </trkpt>
      <trkpt lat="43.633220" lon="6.642500">
       <ele>396</ele>
       <time>2013-10-22T19:45:42Z</time>
      </trkpt>
      <trkpt lat="43.633330" lon="6.642310">
       <ele>400</ele>
       <time>2013-10-22T19:45:46Z</time>
      </trkpt>
      <trkpt lat="43.633570" lon="6.641490">
       <ele>413</ele>
       <time>2013-10-22T19:45:59Z</time>
      </trkpt>
      <trkpt lat="43.633700" lon="6.641420">
       <ele>413</ele>
       <time>2013-10-22T19:46:02Z</time>
      </trkpt>
      <trkpt lat="43.633930" lon="6.641610">
       <ele>408</ele>
       <time>2013-10-22T19:46:07Z</time>
      </trkpt>
      <trkpt lat="43.634140" lon="6.642160">
       <ele>401</ele>
       <time>2013-10-22T19:46:17Z</time>
      </trkpt>
      <trkpt lat="43.635170" lon="6.643810">
       <ele>387</ele>
       <time>2013-10-22T19:46:50Z</time>
      </trkpt>
      <trkpt lat="43.635830" lon="6.644160">
       <ele>387</ele>
       <time>2013-10-22T19:47:04Z</time>
      </trkpt>
      <trkpt lat="43.636260" lon="6.644140">
       <ele>392</ele>
       <time>2013-10-22T19:47:13Z</time>
      </trkpt>
      <trkpt lat="43.636620" lon="6.644070">
       <ele>394</ele>
       <time>2013-10-22T19:47:21Z</time>
      </trkpt>
      <trkpt lat="43.636730" lon="6.644270">
       <ele>394</ele>
       <time>2013-10-22T19:47:24Z</time>
      </trkpt>
      <trkpt lat="43.636600" lon="6.644720">
       <ele>387</ele>
       <time>2013-10-22T19:47:32Z</time>
      </trkpt>
      <trkpt lat="43.636450" lon="6.645090">
       <ele>382</ele>
       <time>2013-10-22T19:47:38Z</time>
      </trkpt>
      <trkpt lat="43.636470" lon="6.645550">
       <ele>380</ele>
       <time>2013-10-22T19:47:45Z</time>
      </trkpt>
      <trkpt lat="43.636260" lon="6.646290">
       <ele>375</ele>
       <time>2013-10-22T19:47:57Z</time>
      </trkpt>
      <trkpt lat="43.636180" lon="6.647050">
       <ele>368</ele>
       <time>2013-10-22T19:48:08Z</time>
      </trkpt>
      <trkpt lat="43.636070" lon="6.647700">
       <ele>362</ele>
       <time>2013-10-22T19:48:18Z</time>
      </trkpt>
      <trkpt lat="43.635760" lon="6.648410">
       <ele>359</ele>
       <time>2013-10-22T19:48:31Z</time>
      </trkpt>
      <trkpt lat="43.635390" lon="6.648720">
       <ele>353</ele>
       <time>2013-10-22T19:48:40Z</time>
      </trkpt>
      <trkpt lat="43.634990" lon="6.649140">
       <ele>350</ele>
       <time>2013-10-22T19:48:50Z</time>
      </trkpt>
      <trkpt lat="43.634440" lon="6.649960">
       <ele>344</ele>
       <time>2013-10-22T19:49:07Z</time>
      </trkpt>
      <trkpt lat="43.634170" lon="6.650730">
       <ele>341</ele>
       <time>2013-10-22T19:49:20Z</time>
      </trkpt>
      <trkpt lat="43.633570" lon="6.651720">
       <ele>338</ele>
       <time>2013-10-22T19:49:39Z</time>
      </trkpt>
      <trkpt lat="43.633380" lon="6.652530">
       <ele>336</ele>
       <time>2013-10-22T19:49:52Z</time>
      </trkpt>
      <trkpt lat="43.633040" lon="6.653140">
       <ele>334</ele>
       <time>2013-10-22T19:50:04Z</time>
      </trkpt>
      <trkpt lat="43.632250" lon="6.654130">
       <ele>331</ele>
       <time>2013-10-22T19:50:26Z</time>
      </trkpt>
      <trkpt lat="43.632090" lon="6.654600">
       <ele>332</ele>
       <time>2013-10-22T19:50:33Z</time>
      </trkpt>
      <trkpt lat="43.631980" lon="6.655050">
       <ele>332</ele>
       <time>2013-10-22T19:50:41Z</time>
      </trkpt>
      <trkpt lat="43.631800" lon="6.655420">
       <ele>330</ele>
       <time>2013-10-22T19:50:47Z</time>
      </trkpt>
      <trkpt lat="43.631370" lon="6.655570">
       <ele>327</ele>
       <time>2013-10-22T19:50:56Z</time>
      </trkpt>
      <trkpt lat="43.630890" lon="6.656100">
       <ele>322</ele>
       <time>2013-10-22T19:51:09Z</time>
      </trkpt>
      <trkpt lat="43.630450" lon="6.656850">
       <ele>320</ele>
       <time>2013-10-22T19:51:24Z</time>
      </trkpt>
      <trkpt lat="43.629950" lon="6.659410">
       <ele>312</ele>
       <time>2013-10-22T19:52:04Z</time>
      </trkpt>
      <trkpt lat="43.629710" lon="6.660260">
       <ele>310</ele>
       <time>2013-10-22T19:52:17Z</time>
      </trkpt>
      <trkpt lat="43.629470" lon="6.660800">
       <ele>311</ele>
       <time>2013-10-22T19:52:27Z</time>
      </trkpt>
      <trkpt lat="43.629180" lon="6.662040">
       <ele>310</ele>
       <time>2013-10-22T19:52:46Z</time>
      </trkpt>
      <trkpt lat="43.629130" lon="6.662410">
       <ele>308</ele>
       <time>2013-10-22T19:52:52Z</time>
      </trkpt>
      <trkpt lat="43.629210" lon="6.662850">
       <ele>307</ele>
       <time>2013-10-22T19:52:59Z</time>
      </trkpt>
      <trkpt lat="43.629200" lon="6.663180">
       <ele>306</ele>
       <time>2013-10-22T19:53:04Z</time>
      </trkpt>
      <trkpt lat="43.629050" lon="6.663480">
       <ele>306</ele>
       <time>2013-10-22T19:53:09Z</time>
      </trkpt>
      <trkpt lat="43.628460" lon="6.664480">
       <ele>303</ele>
       <time>2013-10-22T19:53:29Z</time>
      </trkpt>
      <trkpt lat="43.628020" lon="6.665290">
       <ele>307</ele>
       <time>2013-10-22T19:53:44Z</time>
      </trkpt>
      <trkpt lat="43.627430" lon="6.666540">
       <ele>312</ele>
       <time>2013-10-22T19:54:06Z</time>
      </trkpt>
      <trkpt lat="43.627120" lon="6.667390">
       <ele>316</ele>
       <time>2013-10-22T19:54:20Z</time>
      </trkpt>
      <trkpt lat="43.626770" lon="6.668200">
       <ele>317</ele>
       <time>2013-10-22T19:54:35Z</time>
      </trkpt>
      <trkpt lat="43.626490" lon="6.669140">
       <ele>320</ele>
       <time>2013-10-22T19:54:50Z</time>
      </trkpt>
      <trkpt lat="43.626220" lon="6.669870">
       <ele>320</ele>
       <time>2013-10-22T19:55:02Z</time>
      </trkpt>
      <trkpt lat="43.625900" lon="6.670210">
       <ele>317</ele>
       <time>2013-10-22T19:55:10Z</time>
      </trkpt>
      <trkpt lat="43.625660" lon="6.670380">
       <ele>317</ele>
       <time>2013-10-22T19:55:16Z</time>
      </trkpt>
      <trkpt lat="43.625090" lon="6.670640">
       <ele>314</ele>
       <time>2013-10-22T19:55:29Z</time>
      </trkpt>
      <trkpt lat="43.624390" lon="6.670840">
       <ele>310</ele>
       <time>2013-10-22T19:55:43Z</time>
      </trkpt>
      <trkpt lat="43.624080" lon="6.670850">
       <ele>309</ele>
       <time>2013-10-22T19:55:50Z</time>
      </trkpt>
      <trkpt lat="43.623810" lon="6.670660">
       <ele>312</ele>
       <time>2013-10-22T19:55:56Z</time>
      </trkpt>
      <trkpt lat="43.623370" lon="6.670500">
       <ele>307</ele>
       <time>2013-10-22T19:56:05Z</time>
      </trkpt>
      <trkpt lat="43.622620" lon="6.670360">
       <ele>309</ele>
       <time>2013-10-22T19:56:21Z</time>
      </trkpt>
      <trkpt lat="43.622500" lon="6.670460">
       <ele>305</ele>
       <time>2013-10-22T19:56:24Z</time>
      </trkpt>
      <trkpt lat="43.622450" lon="6.670600">
       <ele>305</ele>
       <time>2013-10-22T19:56:26Z</time>
      </trkpt>
      <trkpt lat="43.622470" lon="6.670770">
       <ele>300</ele>
       <time>2013-10-22T19:56:29Z</time>
      </trkpt>
      <trkpt lat="43.622550" lon="6.670830">
       <ele>300</ele>
       <time>2013-10-22T19:56:31Z</time>
      </trkpt>
      <trkpt lat="43.623690" lon="6.671000">
       <ele>299</ele>
       <time>2013-10-22T19:56:55Z</time>
      </trkpt>
      <trkpt lat="43.624110" lon="6.671360">
       <ele>298</ele>
       <time>2013-10-22T19:57:05Z</time>
      </trkpt>
      <trkpt lat="43.624530" lon="6.671820">
       <ele>289</ele>
       <time>2013-10-22T19:57:16Z</time>
      </trkpt>
      <trkpt lat="43.624770" lon="6.672300">
       <ele>288</ele>
       <time>2013-10-22T19:57:25Z</time>
      </trkpt>
      <trkpt lat="43.625030" lon="6.673750">
       <ele>275</ele>
       <time>2013-10-22T19:57:47Z</time>
      </trkpt>
      <trkpt lat="43.625510" lon="6.674190">
       <ele>279</ele>
       <time>2013-10-22T19:57:59Z</time>
      </trkpt>
      <trkpt lat="43.626270" lon="6.674930">
       <ele>278</ele>
       <time>2013-10-22T19:58:18Z</time>
      </trkpt>
      <trkpt lat="43.627040" lon="6.675970">
       <ele>271</ele>
       <time>2013-10-22T19:58:41Z</time>
      </trkpt>
      <trkpt lat="43.627220" lon="6.676300">
       <ele>266</ele>
       <time>2013-10-22T19:58:47Z</time>
      </trkpt>
      <trkpt lat="43.627200" lon="6.676860">
       <ele>262</ele>
       <time>2013-10-22T19:58:55Z</time>
      </trkpt>
      <trkpt lat="43.626960" lon="6.677990">
       <ele>258</ele>
       <time>2013-10-22T19:59:13Z</time>
      </trkpt>
      <trkpt lat="43.626700" lon="6.678870">
       <ele>255</ele>
       <time>2013-10-22T19:59:27Z</time>
      </trkpt>
      <trkpt lat="43.625850" lon="6.681070">
       <ele>250</ele>
       <time>2013-10-22T20:00:05Z</time>
      </trkpt>
      <trkpt lat="43.625400" lon="6.682060">
       <ele>250</ele>
       <time>2013-10-22T20:00:22Z</time>
      </trkpt>
      <trkpt lat="43.625030" lon="6.683060">
       <ele>253</ele>
       <time>2013-10-22T20:00:39Z</time>
      </trkpt>
      <trkpt lat="43.624710" lon="6.683450">
       <ele>251</ele>
       <time>2013-10-22T20:00:48Z</time>
      </trkpt>
      <trkpt lat="43.624290" lon="6.683920">
       <ele>251</ele>
       <time>2013-10-22T20:00:59Z</time>
      </trkpt>
      <trkpt lat="43.623970" lon="6.684900">
       <ele>255</ele>
       <time>2013-10-22T20:01:15Z</time>
      </trkpt>
      <trkpt lat="43.623970" lon="6.685350">
       <ele>256</ele>
       <time>2013-10-22T20:01:22Z</time>
      </trkpt>
      <trkpt lat="43.623930" lon="6.685940">
       <ele>257</ele>
       <time>2013-10-22T20:01:31Z</time>
      </trkpt>
      <trkpt lat="43.623580" lon="6.687080">
       <ele>256</ele>
       <time>2013-10-22T20:01:50Z</time>
      </trkpt>
      <trkpt lat="43.623530" lon="6.687430">
       <ele>257</ele>
       <time>2013-10-22T20:01:55Z</time>
      </trkpt>
      <trkpt lat="43.623480" lon="6.687560">
       <ele>257</ele>
       <time>2013-10-22T20:01:57Z</time>
      </trkpt>
      <trkpt lat="43.623390" lon="6.687750">
       <ele>257</ele>
       <time>2013-10-22T20:02:01Z</time>
      </trkpt>
      <trkpt lat="43.623130" lon="6.688050">
       <ele>257</ele>
       <time>2013-10-22T20:02:08Z</time>
      </trkpt>
      <trkpt lat="43.622050" lon="6.689640">
       <ele>260</ele>
       <time>2013-10-22T20:02:40Z</time>
      </trkpt>
      <trkpt lat="43.621910" lon="6.690000">
       <ele>261</ele>
       <time>2013-10-22T20:02:46Z</time>
      </trkpt>
      <trkpt lat="43.621620" lon="6.690650">
       <ele>261</ele>
       <time>2013-10-22T20:02:58Z</time>
      </trkpt>
      <trkpt lat="43.621470" lon="6.690890">
       <ele>260</ele>
       <time>2013-10-22T20:03:03Z</time>
      </trkpt>
      <trkpt lat="43.621130" lon="6.691370">
       <ele>260</ele>
       <time>2013-10-22T20:03:13Z</time>
      </trkpt>
      <trkpt lat="43.620760" lon="6.691750">
       <ele>258</ele>
       <time>2013-10-22T20:03:22Z</time>
      </trkpt>
      <trkpt lat="43.620540" lon="6.692040">
       <ele>256</ele>
       <time>2013-10-22T20:03:29Z</time>
      </trkpt>
      <trkpt lat="43.620070" lon="6.692230">
       <ele>252</ele>
       <time>2013-10-22T20:03:39Z</time>
      </trkpt>
      <trkpt lat="43.619800" lon="6.692490">
       <ele>250</ele>
       <time>2013-10-22T20:03:46Z</time>
      </trkpt>
      <trkpt lat="43.619620" lon="6.692790">
       <ele>251</ele>
       <time>2013-10-22T20:03:51Z</time>
      </trkpt>
      <trkpt lat="43.619280" lon="6.693630">
       <ele>247</ele>
       <time>2013-10-22T20:04:06Z</time>
      </trkpt>
      <trkpt lat="43.618850" lon="6.694790">
       <ele>248</ele>
       <time>2013-10-22T20:04:25Z</time>
      </trkpt>
      <trkpt lat="43.618620" lon="6.695290">
       <ele>247</ele>
       <time>2013-10-22T20:04:34Z</time>
      </trkpt>
      <trkpt lat="43.617980" lon="6.696380">
       <ele>243</ele>
       <time>2013-10-22T20:04:55Z</time>
      </trkpt>
      <trkpt lat="43.617880" lon="6.696890">
       <ele>240</ele>
       <time>2013-10-22T20:05:03Z</time>
      </trkpt>
      <trkpt lat="43.617720" lon="6.698850">
       <ele>236</ele>
       <time>2013-10-22T20:05:33Z</time>
      </trkpt>
      <trkpt lat="43.617370" lon="6.700920">
       <ele>233</ele>
       <time>2013-10-22T20:06:05Z</time>
      </trkpt>
      <trkpt lat="43.617450" lon="6.701430">
       <ele>233</ele>
       <time>2013-10-22T20:06:13Z</time>
      </trkpt>
      <trkpt lat="43.617630" lon="6.703150">
       <ele>234</ele>
       <time>2013-10-22T20:06:39Z</time>
      </trkpt>
      <trkpt lat="43.617690" lon="6.703990">
       <ele>237</ele>
       <time>2013-10-22T20:06:51Z</time>
      </trkpt>
      <trkpt lat="43.617900" lon="6.707080">
       <ele>237</ele>
       <time>2013-10-22T20:07:38Z</time>
      </trkpt>
      <trkpt lat="43.617320" lon="6.706700">
       <ele>235</ele>
       <time>2013-10-22T20:07:51Z</time>
      </trkpt>
      <trkpt lat="43.608210" lon="6.711220">
       <ele>206</ele>
       <time>2013-10-22T20:11:12Z</time>
      </trkpt>
      <trkpt lat="43.608050" lon="6.711320">
       <ele>206</ele>
       <time>2013-10-22T20:11:16Z</time>
      </trkpt>
      <trkpt lat="43.608500" lon="6.714470">
       <ele>205</ele>
       <time>2013-10-22T20:12:04Z</time>
      </trkpt>
      <trkpt lat="43.609760" lon="6.718020">
       <ele>206</ele>
       <time>2013-10-22T20:13:03Z</time>
      </trkpt>
      <trkpt lat="43.610030" lon="6.720480">
       <ele>208</ele>
       <time>2013-10-22T20:13:41Z</time>
      </trkpt>
    </trkseg>
  </trk>
</gpx>
